GFSSE_925_thetae_000.txt.gz
Theta_e
342 337 328 328 330 333 335 339 341 340 341 343 342 340 335 333 334 335 335 333 331 331 331 333 333 333 330 326 324 324 323 321 324 325 325 325 328 329 329 333 336 339 334
341 336 329 327 327 330 333 336 342 343 344 344 343 341 339 337 337 336 335 335 334 333 330 333 334 334 331 328 328 328 327 326 326 327 328 330 328 329 327 332 335 337 334
340 339 332 325 322 324 332 337 340 344 342 342 342 341 341 340 338 337 334 325 326 326 326 333 334 334 332 331 328 328 328 327 328 327 328 337 335 329 325 327 332 335 332
340 338 331 327 322 320 323 333 338 339 339 337 336 340 340 339 337 335 331 324 326 327 326 326 333 334 333 332 331 329 328 329 330 327 325 333 337 333 325 321 332 332 331
339 339 331 328 325 322 319 321 330 333 335 337 338 338 337 338 337 336 334 328 329 326 329 333 334 335 334 334 335 332 330 332 330 329 333 332 333 335 328 321 326 331 329
340 339 332 330 328 325 321 324 326 325 328 328 329 330 335 336 336 336 327 326 325 328 332 335 331 325 333 332 333 335 335 331 332 332 334 332 330 335 331 323 328 329 328
340 340 334 331 331 330 326 321 320 322 322 323 322 326 329 330 335 335 335 334 333 333 331 327 326 322 330 325 334 334 336 334 334 334 334 330 330 333 334 327 331 333 325
340 340 339 334 330 330 329 328 327 325 325 326 327 326 324 324 325 327 331 331 330 331 329 326 326 327 329 328 327 330 333 334 333 333 332 330 331 330 332 330 326 334 333
335 336 338 339 336 336 332 328 326 328 328 328 328 328 329 326 327 325 323 328 330 330 331 330 330 331 330 329 326 327 329 331 331 332 331 330 331 331 331 329 326 334 335
335 335 335 335 337 337 335 327 327 325 326 327 328 329 329 329 329 328 328 326 328 329 329 329 329 329 329 328 327 322 325 326 326 326 331 330 330 330 330 330 328 334 333
331 331 335 337 337 335 333 327 333 332 331 331 329 326 329 332 328 330 327 327 325 323 322 325 324 324 326 326 325 324 323 323 324 328 328 330 329 327 327 326 330 329 331
326 325 325 330 334 334 332 327 333 334 332 332 332 331 330 329 329 327 326 323 322 321 319 320 321 321 319 321 323 326 324 320 322 326 329 329 329 328 326 325 326 330 328
323 322 321 326 331 333 332 331 332 331 330 329 329 328 327 325 325 325 325 326 325 320 317 317 319 320 320 319 318 319 323 323 323 321 322 324 325 325 326 324 324 329 329
321 320 319 324 328 328 328 327 329 327 326 325 325 325 323 323 322 324 324 322 320 321 322 321 317 318 316 319 320 318 318 318 319 323 325 327 327 324 327 326 324 327 329
318 319 318 320 325 327 325 324 322 320 319 318 318 318 321 321 323 322 322 322 321 321 321 320 320 317 315 315 315 317 316 317 318 319 321 323 325 324 323 326 328 330 327
317 317 317 318 321 321 323 322 319 317 314 314 315 317 319 320 320 321 319 319 318 318 319 319 321 321 321 321 321 319 318 319 317 316 322 322 321 321 320 321 324 328 330
317 316 315 316 318 319 320 319 316 313 311 312 315 316 316 316 314 314 314 314 314 315 314 314 314 315 317 319 321 322 323 322 322 321 321 323 322 322 321 317 317 319 326
316 314 314 312 313 314 315 313 312 311 310 312 314 314 313 313 313 313 312 311 308 308 309 308 306 307 311 313 315 316 315 318 321 322 322 322 322 321 321 322 320 317 320
315 313 312 311 309 311 311 311 310 310 309 311 312 312 311 309 308 308 308 308 306 305 305 305 305 304 304 304 305 310 308 307 309 315 321 322 323 322 320 321 322 321 319
314 312 311 310 309 310 309 309 309 309 309 309 309 309 309 307 306 306 306 306 306 305 305 305 305 304 304 304 304 303 304 305 309 315 316 322 322 322 322 322 320 320 317
313 312 310 310 309 308 308 308 308 308 308 308 308 308 308 307 306 305 305 305 305 305 304 304 304 304 304 304 304 303 303 303 305 305 307 319 321 323 322 322 321 320 319
313 312 311 310 309 308 308 307 307 308 308 308 307 307 307 307 305 305 305 304 304 304 304 304 305 304 304 303 305 304 303 303 305 305 305 307 318 319 321 322 321 320 320
314 313 312 311 310 309 308 308 308 307 307 306 306 306 307 306 306 306 305 305 304 304 304 304 303 303 304 304 303 304 304 304 304 304 303 303 304 305 311 314 320 322 320
314 314 313 312 311 310 309 308 307 307 306 306 305 305 305 306 306 306 305 305 304 303 303 303 304 304 303 304 304 304 304 304 304 304 304 304 303 303 304 308 306 313 320
313 314 313 312 312 311 310 309 307 307 307 307 306 305 305 305 304 304 304 303 303 303 303 302 301 302 302 304 304 304 304 304 304 304 304 304 305 304 303 303 306 309 306
314 313 313 313 312 312 311 310 308 307 306 307 306 305 304 303 302 301 301 300 300 299 299 299 298 298 299 300 301 301 302 303 303 303 303 303 303 304 303 303 303 304 304

GFSSE_925_thetae_003.txt.gz
Theta_e
340 329 327 330 335 338 338 342 343 343 344 344 342 340 336 334 332 331 329 327 327 327 327 328 332 332 332 330 329 326 322 320 323 326 328 330 331 330 332 337 339 337 332
339 328 327 325 329 334 338 340 343 342 343 343 343 341 338 336 335 333 330 328 333 327 326 325 329 332 332 332 329 328 327 325 323 321 323 328 330 328 324 335 337 337 333
338 333 325 321 322 328 334 338 340 340 336 340 341 340 339 339 337 335 335 330 326 325 325 324 331 333 333 332 330 329 329 327 326 324 323 325 334 330 326 328 335 335 333
337 333 327 322 317 318 328 334 336 337 338 338 339 339 339 338 337 336 335 331 326 325 324 326 333 331 329 333 331 330 329 328 328 328 326 331 338 333 328 323 333 334 332
339 330 328 325 322 322 326 328 327 326 328 333 335 334 336 337 336 333 332 326 325 325 328 331 332 332 325 325 332 332 330 329 328 329 330 334 335 336 331 324 330 332 331
339 332 330 327 324 321 319 319 320 319 318 320 322 326 333 333 333 333 327 332 328 326 329 333 333 328 322 325 325 329 332 332 329 328 332 333 333 332 331 324 326 332 330
339 336 330 329 328 327 325 323 320 318 319 324 326 327 326 329 332 332 331 327 329 331 332 332 328 329 323 322 324 327 327 333 333 332 331 335 331 330 333 331 324 328 329
338 338 336 333 332 330 326 326 326 325 325 326 328 328 326 328 332 334 334 334 333 331 328 324 325 324 326 324 324 327 330 333 335 335 333 334 331 330 331 333 326 331 327
338 338 338 337 336 335 332 324 324 326 326 326 327 328 328 327 326 325 330 330 331 330 329 329 329 329 329 329 329 328 330 332 333 332 334 332 331 331 330 330 328 330 329
336 337 339 338 337 335 333 326 330 325 326 326 327 328 328 328 328 327 326 326 328 328 329 329 330 330 329 328 327 326 326 328 329 330 330 330 331 332 331 331 329 326 332
331 330 334 338 337 335 334 328 333 332 330 330 329 327 329 330 326 327 326 323 322 321 324 325 325 326 326 326 326 326 324 323 325 327 327 330 329 330 330 330 329 328 334
326 325 324 324 333 333 333 327 333 331 331 331 330 329 329 330 326 324 322 320 318 318 318 319 321 320 323 323 321 323 325 326 322 323 324 328 328 329 329 327 327 327 330
323 322 321 323 327 333 330 330 331 330 331 329 328 328 327 324 321 323 323 322 321 317 317 317 319 320 320 320 321 320 321 324 320 321 322 323 324 328 328 328 327 326 328
321 320 319 319 325 329 327 330 330 331 327 327 324 324 322 321 319 321 321 320 317 317 315 317 317 317 314 313 315 318 319 320 320 321 321 321 325 326 328 329 329 325 325
319 319 318 318 322 324 325 325 324 324 322 319 318 319 321 322 322 321 321 321 320 321 320 320 322 321 320 320 320 319 316 318 317 316 318 320 322 322 325 327 328 330 328
317 318 317 317 319 321 324 323 321 318 317 315 315 315 318 319 320 321 319 319 317 316 314 314 316 317 317 318 320 321 321 321 321 320 318 317 318 319 321 323 323 328 329
317 316 316 316 318 319 321 322 320 314 311 312 313 314 317 316 315 313 314 312 313 311 312 310 307 305 306 310 313 315 316 318 320 321 322 321 321 318 321 321 321 321 325
316 315 314 313 314 316 318 318 315 313 310 310 312 313 312 314 313 312 312 311 310 308 307 306 305 305 304 304 303 304 310 307 307 308 313 322 323 322 321 321 321 321 320
315 314 313 313 309 311 313 313 312 311 310 311 313 314 312 309 309 309 309 309 305 305 305 305 305 304 304 304 304 304 303 302 303 303 306 310 318 323 323 322 321 320 321
314 313 312 311 311 309 311 310 309 309 309 309 313 312 311 309 307 307 307 307 306 305 305 305 304 304 304 303 304 303 304 303 303 303 304 306 311 312 320 323 322 322 321
313 312 311 310 310 309 309 309 308 308 308 308 308 308 311 308 307 306 305 307 306 305 304 305 304 304 304 304 303 304 303 303 303 303 305 306 311 314 318 324 324 323 323
312 311 311 310 309 309 308 308 308 307 307 307 307 308 309 308 307 306 305 305 304 304 304 304 305 305 304 303 305 303 301 303 303 305 303 304 304 305 307 306 318 324 324
313 313 312 311 310 310 309 308 307 307 307 308 307 308 307 307 307 306 306 305 305 304 304 304 303 303 304 305 303 304 304 303 303 304 305 305 305 305 305 305 305 311 310
314 314 313 313 312 312 311 309 308 308 308 307 307 306 306 307 306 307 306 306 305 303 303 304 303 302 303 304 304 304 304 304 304 304 305 305 305 306 306 306 305 304 305
314 314 314 313 312 312 312 311 309 308 307 307 307 306 306 306 307 307 306 304 303 303 302 301 301 300 299 299 300 302 302 303 303 303 304 304 304 305 305 305 305 305 305
314 313 313 313 313 313 313 312 311 310 308 307 307 306 306 304 303 302 302 302 301 300 299 298 298 297 296 295 296 298 299 301 301 301 301 301 301 301 300 300 300 302 303

GFSSE_925_thetae_006.txt.gz
Theta_e
331 328 330 335 337 338 341 342 342 342 343 341 339 335 333 334 334 335 335 334 332 328 327 327 326 326 329 332 331 327 325 327 329 329 327 325 326 330 333 333 336 336 335
329 326 326 330 335 337 339 341 340 342 342 341 340 337 335 333 332 330 328 325 327 327 326 325 324 325 327 332 330 331 328 327 326 327 329 330 329 331 332 338 339 333 332
336 325 321 324 330 335 337 339 338 338 340 340 340 340 338 335 333 331 328 328 330 325 326 325 328 331 332 332 330 331 329 328 327 326 328 330 331 329 326 336 338 335 332
337 327 321 319 323 328 332 334 336 337 335 335 337 338 339 338 338 337 335 334 329 325 325 326 328 332 324 328 329 330 330 329 328 326 326 329 336 333 329 325 332 334 333
335 328 324 320 319 319 320 321 322 326 332 334 334 335 337 337 336 335 335 332 327 325 327 329 328 330 329 328 325 323 331 329 328 328 326 329 334 335 334 325 331 334 332
333 329 325 322 320 318 318 318 318 318 318 321 324 330 333 335 334 333 332 330 326 326 327 332 331 330 325 325 324 324 332 332 331 330 328 330 334 333 333 328 324 332 331
331 329 328 326 325 323 321 321 321 322 323 324 325 326 329 330 331 332 328 328 328 327 329 329 331 331 329 324 324 328 328 323 328 332 330 332 334 334 332 330 323 329 331
332 332 332 331 330 327 325 325 325 325 325 325 325 326 324 325 327 330 333 333 333 333 331 328 326 324 328 324 323 324 325 326 328 332 333 332 334 332 332 331 329 323 329
337 336 333 334 333 331 326 322 324 325 326 326 326 327 327 326 325 325 326 329 330 329 328 326 326 325 325 326 327 327 328 327 328 330 330 331 333 331 332 331 331 326 327
339 339 336 336 334 332 327 329 326 325 325 325 326 326 326 327 327 326 325 325 326 328 328 328 329 330 329 329 328 328 326 327 329 330 331 332 332 330 330 330 330 328 330
338 338 337 337 335 333 330 331 331 330 329 328 325 326 328 328 325 326 325 324 324 324 325 327 328 328 327 326 326 326 325 324 325 324 326 327 328 329 331 330 330 329 327
334 332 330 333 335 333 332 330 332 331 330 330 329 329 329 329 326 325 322 321 320 319 321 323 322 323 325 324 323 321 323 325 326 324 323 326 327 328 329 330 330 329 328
326 324 322 320 321 330 328 329 332 331 330 330 329 328 328 328 325 324 322 321 319 317 316 316 317 319 319 319 319 320 320 320 324 323 320 323 325 326 328 328 328 327 327
322 321 320 319 324 329 328 331 331 330 330 328 327 326 323 321 318 320 320 318 317 316 316 317 318 319 318 318 318 318 316 317 319 319 319 320 321 323 326 329 328 327 327
321 319 319 318 318 327 326 329 329 329 329 326 323 322 321 321 321 319 319 318 318 318 318 318 317 318 320 320 320 320 319 320 320 318 317 316 317 318 322 326 328 329 329
319 318 318 317 316 319 324 323 322 322 319 317 317 316 318 320 320 320 321 321 318 315 315 310 307 308 307 309 311 313 315 316 317 318 320 319 319 319 317 318 320 326 327
317 318 317 316 316 317 319 322 322 320 316 313 313 313 314 317 318 318 317 317 316 313 311 308 305 304 304 304 303 303 303 308 307 304 304 307 314 321 322 321 317 320 321
316 316 316 314 315 317 316 320 319 315 313 311 310 311 312 313 313 312 312 312 311 308 308 306 304 304 304 303 303 303 304 303 303 302 302 303 304 308 317 322 322 319 321
316 315 313 312 313 312 312 314 315 312 312 310 310 311 312 311 310 311 312 311 309 305 305 305 305 304 304 304 303 303 303 303 303 302 303 305 306 306 314 314 313 320 321
314 313 312 312 311 311 309 310 311 310 310 310 310 311 312 313 309 307 308 308 307 305 305 305 304 304 304 304 303 303 303 303 303 303 302 304 303 308 308 311 315 318 317
312 312 312 312 311 310 309 309 309 309 308 308 308 309 313 310 310 307 306 306 307 305 305 305 304 304 304 304 303 303 303 303 303 303 304 303 304 304 304 308 305 306 315
313 312 312 312 311 311 310 309 309 308 308 308 307 307 309 310 310 309 307 305 305 305 305 304 304 305 304 303 304 302 300 302 302 303 302 304 304 304 304 304 305 305 306
313 313 313 313 313 312 311 310 309 308 307 307 307 307 307 307 309 308 307 306 305 304 304 304 304 303 303 303 303 303 301 300 302 303 302 303 304 303 304 305 305 305 308
314 313 313 313 313 312 311 310 309 308 307 308 307 307 307 307 308 307 307 306 305 304 304 304 302 301 301 300 298 300 299 300 300 300 301 301 301 301 302 303 303 302 302
313 313 313 313 313 312 312 311 311 309 308 308 308 307 307 306 306 307 306 305 305 304 303 300 299 296 295 295 295 295 295 295 298 299 298 298 298 299 300 300 300 300 300
314 313 314 313 313 312 312 312 312 311 311 309 309 307 307 305 306 306 306 305 302 299 300 301 298 296 297 296 298 298 295 296 296 297 296 296 296 296 297 297 298 299 299

GFSSE_925_thetae_009.txt.gz
Theta_e
328 329 336 338 338 341 340 340 341 341 341 338 335 333 334 338 337 336 335 334 334 332 331 329 328 328 329 329 329 325 323 325 330 329 326 325 326 330 329 332 335 336 337
327 328 333 337 338 339 339 341 342 341 341 340 337 335 332 332 336 336 335 333 329 333 326 325 327 330 331 330 329 328 325 324 324 325 326 326 327 329 329 331 334 333 335
325 324 328 333 337 338 339 337 340 340 341 340 339 337 335 332 331 330 327 328 327 325 326 325 326 331 329 329 328 327 327 328 327 325 326 325 328 327 328 334 336 333 331
326 321 322 325 329 333 335 336 336 334 334 337 338 338 338 336 334 331 329 329 329 328 326 328 328 331 331 332 330 329 328 327 330 328 326 326 332 331 329 327 336 334 332
331 324 320 319 323 324 323 324 326 329 332 334 336 337 338 338 337 336 335 334 331 328 326 328 328 329 328 326 327 325 324 325 329 330 329 328 330 333 331 329 327 330 333
328 325 321 320 319 318 317 316 315 316 317 320 325 331 334 335 335 334 333 330 330 325 327 329 331 329 327 326 327 324 325 331 331 329 330 330 331 333 334 333 326 329 333
328 326 325 323 323 322 322 321 320 320 322 323 324 322 324 328 331 331 329 327 329 327 328 328 329 328 330 328 325 323 328 331 326 325 331 330 332 333 331 331 329 326 331
328 327 328 327 327 324 323 324 324 324 324 325 325 324 324 325 326 328 330 331 331 332 332 328 326 326 326 326 328 324 325 326 325 327 329 330 332 333 332 333 330 326 328
334 333 333 333 331 328 324 322 324 324 324 325 324 324 325 325 324 325 327 328 329 329 327 327 328 327 324 325 325 328 328 329 328 327 328 329 330 330 332 332 331 327 326
334 334 334 334 333 330 325 326 324 324 324 325 325 325 325 326 326 325 326 326 327 327 327 328 328 329 329 329 328 328 327 327 327 327 326 328 329 331 331 330 331 330 328
335 335 335 335 334 331 328 329 328 328 326 327 325 326 326 327 325 325 324 323 323 324 325 326 327 327 327 326 326 326 325 324 324 324 323 324 326 327 328 329 331 330 329
338 337 336 335 335 333 330 330 330 330 329 328 327 327 328 327 325 324 321 319 320 320 321 322 322 322 323 323 323 322 321 320 320 324 324 322 322 325 329 330 330 330 329
337 337 333 332 332 332 331 330 331 330 330 329 328 327 327 327 325 324 322 320 317 315 314 315 315 316 318 317 316 316 316 317 319 320 319 320 320 323 325 330 328 327 328
333 327 324 324 328 329 329 329 331 331 330 329 328 326 326 323 321 318 319 318 317 315 312 314 315 315 316 317 316 317 318 318 318 317 317 318 319 317 318 322 329 330 328
324 323 321 319 324 321 325 328 331 330 329 329 327 324 323 321 320 318 318 318 316 316 317 317 314 313 313 312 311 311 311 313 317 318 318 319 318 318 319 319 322 326 329
323 320 319 319 319 320 324 326 327 328 327 328 324 322 319 319 320 320 319 320 320 318 316 311 307 305 303 303 303 303 303 304 308 305 304 306 310 312 316 320 320 319 323
321 319 319 318 318 318 320 320 321 320 318 317 316 316 314 314 318 319 319 320 319 316 313 310 306 304 303 303 303 303 303 303 303 303 302 303 303 304 305 307 312 321 321
319 318 319 317 316 317 317 317 319 319 316 313 311 311 311 312 313 315 315 315 315 313 310 308 304 304 304 303 303 303 303 303 303 303 302 303 303 304 308 305 310 314 314
315 317 316 314 314 315 313 313 314 314 313 312 311 310 310 312 312 311 310 311 311 310 306 305 305 304 303 303 303 303 302 303 303 302 303 302 303 303 304 304 306 310 310
315 315 313 312 312 310 310 310 310 310 310 310 310 310 310 312 313 311 309 310 311 308 305 305 305 304 303 303 303 303 302 302 302 302 302 303 301 301 303 304 306 305 305
313 313 312 312 311 310 310 309 309 309 309 309 308 308 309 308 311 312 309 307 308 307 305 305 305 304 303 303 303 302 303 302 302 300 301 300 302 301 303 303 303 305 305
312 312 311 312 311 311 311 311 310 310 309 308 308 308 307 307 307 312 310 307 306 306 306 305 305 304 304 304 302 301 299 301 300 300 300 301 300 303 301 301 303 303 303
311 312 312 312 312 312 311 311 310 309 308 309 309 308 308 307 307 310 310 309 307 305 306 305 305 304 304 302 302 302 299 299 299 299 297 298 299 297 298 299 298 301 302
313 312 312 312 311 311 310 310 309 308 307 309 310 310 310 309 307 306 307 310 308 305 305 305 303 303 303 301 297 301 296 297 296 295 296 295 295 296 295 296 297 296 296
311 312 312 312 312 312 311 311 311 310 310 310 309 308 308 307 306 306 306 308 307 304 303 303 301 296 296 295 296 296 297 296 295 296 294 293 294 295 296 297 297 297 298
312 312 312 311 311 310 310 309 308 308 308 308 308 308 308 308 307 305 305 305 305 303 299 296 296 297 298 297 296 295 295 295 294 294 293 293 294 295 295 296 297 296 296

GFSSE_925_thetae_012.txt.gz
Theta_e
330 336 337 338 338 340 339 341 341 340 338 336 334 336 337 338 339 338 336 333 333 333 334 332 331 330 331 331 328 324 329 330 329 324 323 324 325 327 328 329 333 335 336
328 334 337 338 339 339 340 340 341 341 340 338 335 333 335 337 337 336 335 333 332 332 328 326 327 328 328 328 328 324 322 321 321 322 320 319 324 328 328 328 329 332 334
327 331 334 336 339 338 338 339 341 341 340 339 338 336 332 333 336 335 333 332 332 326 327 328 326 326 328 328 328 326 326 326 325 325 326 323 322 327 328 328 332 332 331
323 324 329 332 333 336 336 335 335 335 335 337 337 338 337 334 331 330 329 329 327 328 328 327 327 331 331 331 330 329 329 329 329 330 328 328 326 329 329 327 334 333 331
323 320 321 324 325 325 325 326 329 331 332 333 335 336 337 337 336 334 332 333 333 330 328 326 327 328 329 328 328 329 326 328 330 331 329 331 329 333 331 329 327 334 332
324 321 319 318 318 318 317 316 315 317 320 325 329 333 336 337 336 335 333 332 329 328 326 327 328 330 329 330 326 327 325 324 329 330 329 329 330 331 332 331 331 328 330
324 322 321 321 321 321 321 321 320 320 321 321 322 323 327 329 330 329 328 326 327 327 328 332 331 330 331 331 329 325 325 327 329 327 325 330 329 329 333 332 330 330 326
324 324 323 324 323 323 323 323 323 323 324 324 325 326 327 327 328 328 328 329 330 330 330 328 325 325 324 324 325 325 325 324 325 325 326 327 328 329 330 332 330 330 327
327 329 330 329 328 326 323 322 323 323 324 324 325 325 325 325 325 325 326 326 327 327 327 327 327 327 327 328 328 328 329 329 329 329 328 327 329 330 329 331 330 331 329
331 331 332 332 331 328 325 326 325 324 324 324 325 325 325 325 325 324 324 323 323 324 325 326 326 327 328 328 327 326 325 325 325 324 324 324 325 328 329 329 330 330 330
332 332 333 333 332 330 327 327 327 327 326 327 325 324 325 325 324 323 322 321 321 321 322 322 323 325 326 326 326 324 321 321 322 323 325 324 323 324 329 330 329 329 330
334 334 334 334 333 332 329 328 328 328 328 328 327 325 326 326 325 323 322 319 318 319 319 319 320 320 321 321 321 320 319 317 318 318 320 321 321 321 324 327 329 329 330
337 336 335 333 332 331 331 329 328 328 329 328 327 326 326 326 326 324 323 321 319 316 315 314 315 315 315 316 317 317 315 314 316 317 317 318 318 319 320 322 325 327 327
337 337 335 328 323 322 327 329 328 329 329 329 328 327 325 324 323 318 316 316 316 315 314 312 314 316 314 313 313 312 311 311 313 316 316 317 317 317 318 318 320 323 326
335 335 328 322 321 325 327 328 328 329 330 329 329 327 325 323 320 319 318 317 317 316 315 315 314 310 307 305 304 303 303 304 307 308 306 304 303 305 310 316 318 320 324
331 331 323 321 324 325 323 324 326 329 328 328 328 327 324 321 319 319 319 319 318 318 318 314 309 306 303 303 302 302 302 303 303 302 302 302 303 304 305 305 310 317 321
329 326 322 321 321 320 320 320 321 321 321 320 322 320 318 316 313 314 317 317 318 319 318 314 310 305 303 303 303 303 303 303 303 303 302 303 304 304 307 306 308 309 313
325 321 320 319 317 317 317 317 317 318 319 316 314 313 312 311 311 312 312 312 312 315 316 312 310 304 304 303 303 303 302 302 302 302 302 301 302 302 301 303 306 306 305
322 319 318 318 315 315 315 314 316 316 313 312 312 311 311 311 311 311 311 310 310 311 312 310 308 304 304 303 303 303 302 302 302 302 301 302 301 300 301 302 303 303 305
316 316 317 315 314 313 312 310 310 310 310 310 310 309 309 309 310 311 312 311 310 309 310 309 305 304 304 304 303 303 302 302 302 302 301 300 298 299 300 303 300 303 304
313 316 314 313 312 311 310 310 310 310 310 310 310 310 309 308 308 309 311 312 311 309 308 308 306 305 304 304 303 303 303 302 302 301 300 299 299 298 301 302 296 299 299
314 313 312 312 310 310 309 309 308 308 309 309 310 310 309 308 308 308 308 309 311 309 308 308 306 305 304 304 303 300 299 300 301 300 298 300 297 300 298 296 296 294 295
311 312 311 310 309 308 308 308 309 309 309 310 311 310 310 310 308 307 307 307 308 310 308 307 306 305 304 303 302 302 299 299 297 298 299 296 297 295 296 294 294 294 296
310 310 309 309 309 310 309 309 309 308 308 308 308 307 307 308 307 307 306 305 307 310 307 306 305 304 303 302 301 301 298 298 294 294 295 296 294 294 293 294 294 293 297
309 310 310 310 310 310 309 308 308 306 305 305 305 306 304 304 305 305 306 305 304 306 306 304 303 302 301 299 295 297 297 296 296 294 294 293 293 293 294 294 293 295 295
310 310 310 310 310 309 309 308 305 303 303 303 304 303 304 303 304 304 305 303 303 302 299 297 297 297 298 298 297 298 296 295 295 294 295 294 293 294 294 294 295 294 293

GFSSE_925_thetae_015.txt.gz
Theta_e
331 336 338 339 340 340 341 342 340 338 335 335 337 337 336 336 337 337 336 334 333 334 334 332 331 331 330 331 329 327 333 332 330 328 325 326 327 327 328 334 335 339 335
328 335 337 338 339 339 340 341 340 340 338 335 334 335 336 337 338 337 335 334 333 332 327 326 326 326 327 329 328 325 324 327 327 326 326 326 325 327 328 329 332 337 335
326 332 335 336 337 336 339 341 340 339 339 338 335 333 335 336 336 335 334 333 332 327 328 328 327 328 327 330 330 328 327 327 327 327 328 332 333 329 328 327 331 331 334
325 328 330 333 334 335 334 336 338 338 337 337 337 337 333 333 335 334 332 330 328 328 330 330 330 330 330 332 331 330 329 329 329 330 333 333 333 332 331 327 329 333 331
320 322 325 328 329 329 329 332 333 334 335 336 337 337 337 336 332 330 329 328 331 333 331 327 329 330 331 329 328 328 326 326 328 330 329 330 329 333 333 329 327 330 331
320 319 320 321 320 318 318 318 320 324 328 332 335 336 337 337 337 336 335 333 329 328 328 327 327 330 330 330 330 325 327 325 325 328 330 329 331 331 331 331 330 329 329
321 320 320 320 320 320 320 320 320 321 321 322 322 323 327 331 332 331 329 327 328 327 330 331 328 328 327 327 328 328 325 325 326 328 327 326 328 329 329 331 331 330 330
321 321 321 322 322 322 322 322 322 323 323 324 323 323 324 325 326 326 325 326 327 328 328 326 326 327 325 326 327 326 326 326 327 327 326 327 328 328 329 329 330 329 330
324 324 325 326 326 325 323 323 323 323 324 324 324 324 324 324 324 324 324 325 325 325 324 325 325 326 327 328 328 327 327 326 326 326 326 326 327 328 329 329 328 330 330
327 328 329 329 329 327 325 325 325 325 325 324 324 324 323 323 323 324 323 322 321 321 322 323 324 325 326 326 326 325 324 324 324 324 324 324 323 324 328 329 330 329 329
329 330 332 331 331 329 326 326 326 327 326 327 326 325 323 323 324 323 320 319 317 318 320 320 320 321 323 324 324 323 322 321 320 320 321 322 323 323 324 326 327 328 328
333 333 333 332 332 329 327 327 326 327 327 327 327 326 325 325 325 324 322 321 319 317 316 317 317 317 317 318 319 318 318 317 317 318 319 318 320 320 322 323 325 327 328
335 334 334 333 332 328 328 328 327 326 327 327 327 326 326 325 324 324 322 320 318 318 315 315 312 314 315 314 314 314 313 314 316 318 318 317 318 318 319 320 323 323 326
335 335 335 334 332 329 327 328 328 328 328 328 328 327 327 325 323 322 318 317 317 316 315 313 313 313 312 311 310 309 308 309 315 314 310 307 308 311 315 317 319 322 323
335 336 336 335 329 323 323 326 327 327 328 329 328 327 327 325 323 321 319 318 317 317 316 316 315 312 306 304 303 302 302 302 303 307 305 302 303 304 305 308 314 318 321
334 334 335 332 323 322 322 322 324 326 328 327 326 326 327 325 321 318 316 314 314 316 317 318 315 311 307 303 303 303 303 303 303 303 303 304 303 305 305 305 306 316 319
331 332 333 325 321 319 320 320 320 320 320 320 318 318 318 316 314 313 312 312 312 313 316 318 316 312 307 304 303 303 303 303 302 302 302 302 304 303 303 304 306 307 308
324 326 329 322 319 317 318 317 316 315 317 317 315 314 313 312 311 311 311 310 311 312 313 315 315 312 308 304 304 304 303 302 302 302 302 302 302 303 303 302 303 305 305
320 324 324 320 318 316 316 315 313 313 313 312 311 311 311 310 310 310 310 310 310 311 311 311 312 311 308 306 305 304 303 302 302 302 302 302 300 300 302 300 301 302 303
320 321 319 318 317 315 315 313 311 310 310 310 310 309 309 309 309 309 309 310 310 311 311 310 311 310 308 306 305 304 305 304 302 302 302 302 300 299 301 301 301 301 299
315 317 317 317 314 313 313 310 309 309 309 309 309 309 309 308 308 307 307 308 309 312 312 310 310 309 308 305 305 305 305 304 304 304 303 302 301 300 299 299 299 299 299
313 314 314 310 309 308 307 307 307 307 309 310 310 310 309 309 308 308 307 307 308 310 310 311 309 308 307 306 306 306 307 306 303 303 303 302 301 301 299 297 296 297 298
309 308 308 307 307 308 309 309 309 309 309 309 308 307 306 306 305 304 305 305 306 308 308 309 309 308 308 306 305 306 308 308 306 303 302 301 300 298 298 296 296 296 296
308 309 310 309 309 309 308 308 306 306 306 305 305 304 303 304 304 304 304 304 305 306 307 307 307 307 306 307 304 303 302 302 306 306 300 299 299 297 296 297 296 296 296
309 309 309 309 309 308 307 306 305 305 305 304 304 302 301 301 302 303 302 302 303 304 305 304 304 303 303 304 303 302 300 299 299 300 303 300 296 296 296 296 296 296 296
309 309 309 309 308 308 306 306 305 305 305 304 304 303 302 301 301 301 301 301 302 301 299 299 299 299 299 299 299 299 299 299 298 298 298 297 297 298 296 295 295 295 295

GFSSE_925_thetae_018.txt.gz
Theta_e
335 341 338 339 339 340 341 341 338 336 336 336 337 336 335 335 334 335 335 334 334 335 334 332 330 328 328 330 328 328 333 333 331 328 327 327 330 329 332 334 337 338 337
336 340 337 337 338 339 340 341 339 338 335 336 338 337 338 338 338 337 335 334 334 331 327 327 327 328 331 331 329 327 326 327 328 326 325 328 324 330 331 331 332 337 334
333 338 339 337 337 340 341 340 340 339 338 335 334 336 337 337 337 336 334 334 332 329 328 329 329 332 331 330 330 330 329 328 327 326 324 333 332 328 331 330 329 332 334
333 336 338 336 336 337 341 341 341 340 339 338 336 334 335 336 335 335 333 331 330 328 330 332 333 330 332 332 331 330 329 329 329 328 333 333 332 330 330 331 332 332 332
332 334 336 333 333 332 333 333 333 333 335 335 336 336 335 333 332 331 330 329 331 332 330 332 333 331 331 330 329 328 329 326 327 329 332 333 333 332 331 331 331 328 330
327 329 325 325 321 318 317 318 319 324 328 331 333 334 336 337 336 335 335 334 331 328 329 329 329 330 330 330 330 328 325 327 325 330 330 331 331 333 329 331 330 330 329
326 328 327 320 320 320 321 321 322 322 322 323 323 324 327 329 330 329 328 327 326 327 329 330 327 326 324 324 325 327 327 325 328 331 331 331 332 329 329 328 330 331 330
326 329 328 322 322 322 322 322 322 323 323 323 323 323 323 324 324 324 325 326 327 327 326 325 325 327 326 327 327 327 327 327 329 331 331 331 331 327 329 328 329 330 329
326 328 330 330 328 323 323 323 324 324 324 324 324 324 323 323 324 324 324 324 324 324 324 325 325 326 326 327 327 326 326 326 330 329 329 329 327 328 329 328 328 328 329
330 330 332 332 331 331 330 324 325 325 324 325 325 324 324 325 324 324 324 323 321 321 321 322 322 323 324 325 325 325 325 325 327 328 328 327 323 326 328 328 328 327 328
332 334 334 333 333 331 329 328 326 326 326 327 328 325 328 329 328 328 323 320 318 317 317 317 318 318 318 319 320 321 321 323 325 325 325 323 322 323 326 325 327 328 328
334 335 335 336 335 332 327 330 330 329 330 330 331 331 328 329 329 326 325 321 319 317 316 313 313 313 315 318 319 319 319 321 321 322 322 320 319 320 323 323 323 325 327
334 334 336 337 336 334 330 328 327 327 328 329 332 331 330 330 329 328 326 324 324 322 320 319 319 318 319 318 317 317 317 318 317 317 318 315 315 317 318 320 322 324 324
332 335 337 337 337 335 330 328 327 327 328 328 329 331 330 328 327 327 324 323 322 321 321 319 319 320 319 318 316 314 314 314 314 315 313 309 310 311 313 316 318 319 323
333 335 338 338 337 332 330 328 328 328 327 328 327 327 328 326 325 324 322 321 320 319 319 319 318 318 316 313 311 310 309 310 311 309 309 303 303 304 306 308 313 316 319
333 335 338 339 337 329 326 328 326 327 326 326 324 324 326 325 323 321 319 318 317 317 317 317 317 317 314 313 311 310 308 308 309 309 308 308 304 304 305 305 306 310 313
332 333 337 337 332 327 326 324 323 322 322 321 321 322 322 323 321 320 318 317 316 316 318 319 318 317 315 313 310 309 308 308 308 309 307 307 307 304 303 304 305 306 306
328 330 333 332 328 326 324 323 321 320 319 318 318 318 318 318 318 318 317 317 316 317 316 316 316 315 315 313 311 309 308 308 308 308 307 307 307 306 306 303 303 305 305
324 326 329 330 326 324 323 321 321 320 319 318 318 316 316 316 316 316 316 316 316 316 315 316 315 315 315 312 311 309 308 308 307 307 307 307 307 306 306 305 301 302 303
322 325 328 327 324 323 320 319 316 315 315 314 314 314 313 313 313 314 314 315 316 316 315 314 315 315 314 313 311 309 308 308 308 307 307 307 307 306 306 306 305 304 300
321 323 323 323 319 317 316 314 314 314 313 313 313 313 313 312 312 312 312 313 313 313 314 315 314 314 315 313 312 310 309 309 309 308 307 307 306 305 306 305 304 303 303
317 316 315 313 312 311 311 311 312 312 313 313 313 312 311 310 309 309 309 310 310 310 311 312 313 314 314 313 313 311 313 311 310 309 308 307 307 306 305 304 303 302 302
315 314 313 313 313 313 312 312 313 313 313 312 310 309 308 307 307 307 307 308 308 308 309 310 311 312 313 313 313 312 313 313 311 310 308 307 306 306 305 303 301 301 300
314 314 313 313 312 312 311 311 311 310 310 309 308 307 307 306 305 305 305 306 306 307 307 308 308 309 310 311 311 312 310 310 312 312 308 307 306 305 303 302 301 301 300
314 314 313 313 312 312 311 309 309 310 309 308 308 307 306 305 304 304 304 304 305 306 306 306 306 307 307 306 307 307 305 306 307 308 310 307 305 303 301 300 301 301 300
314 314 313 312 311 311 310 309 308 308 308 307 306 305 303 303 302 302 303 303 304 304 304 303 301 299 299 299 298 297 297 298 300 299 303 306 305 302 301 301 300 299 300

GFSSE_925_thetae_021.txt.gz
Theta_e
341 341 337 338 339 340 341 339 337 336 337 338 337 335 336 335 335 335 335 335 336 335 333 330 329 333 334 331 328 329 333 333 332 328 324 322 321 324 331 334 338 339 335
340 341 337 338 340 341 341 340 338 336 336 338 338 338 338 338 336 336 335 334 333 330 329 329 329 337 331 330 329 327 326 326 326 324 322 327 324 320 326 329 334 337 334
340 340 340 338 340 341 341 341 340 339 336 335 336 337 337 338 337 336 335 334 333 330 329 332 334 335 332 330 330 330 328 327 326 324 323 328 334 330 321 327 328 333 334
337 338 340 336 337 340 340 340 340 339 338 337 335 334 336 336 336 335 333 332 330 329 329 332 335 331 330 331 331 330 329 329 328 327 329 335 333 333 323 327 328 332 333
334 336 334 334 333 332 332 333 333 335 335 335 335 336 334 333 332 331 331 331 332 332 331 332 331 331 330 329 329 328 328 328 327 328 331 333 334 333 329 331 331 328 327
330 331 328 326 319 318 319 320 322 324 328 332 333 334 335 336 336 335 335 332 328 329 331 331 330 330 330 329 329 329 329 325 327 330 331 331 331 331 332 330 330 332 331
326 326 326 319 320 321 322 322 323 323 323 323 324 326 328 329 328 327 326 326 326 328 329 328 326 325 324 324 323 325 327 327 327 329 331 331 332 332 331 328 330 331 330
326 327 325 321 321 322 322 323 324 324 324 324 325 325 325 324 324 324 325 325 325 324 323 323 324 325 326 326 326 326 327 326 328 330 331 330 330 329 327 329 328 328 329
326 328 328 329 327 323 323 324 324 324 324 324 324 324 323 323 323 323 323 322 321 320 320 321 321 322 323 324 324 325 324 325 325 326 327 329 329 327 331 329 328 328 328
327 329 330 330 329 330 330 323 324 325 325 325 325 324 323 329 327 325 328 323 317 316 317 318 318 319 318 319 320 321 321 322 326 325 327 328 327 324 328 328 328 327 327
330 332 331 330 329 328 327 326 327 326 326 330 330 328 330 330 329 328 326 321 320 318 317 315 315 315 314 316 319 318 315 322 323 323 325 326 324 323 325 325 325 327 326
331 331 332 334 331 328 324 328 328 327 329 329 330 330 328 329 328 326 327 326 324 323 321 319 319 318 319 319 319 319 320 320 319 319 322 322 321 319 322 323 323 323 326
330 330 331 337 334 331 328 325 326 326 327 328 330 330 328 328 329 327 326 326 326 325 323 321 320 320 320 320 318 317 317 317 316 317 318 317 314 315 317 319 321 322 323
329 329 331 338 336 332 328 326 325 325 327 327 328 328 327 326 326 325 323 322 320 320 320 320 320 320 321 320 317 316 315 314 313 315 316 314 309 310 311 316 318 319 321
328 329 330 335 340 333 330 326 326 326 326 327 326 325 325 324 323 322 321 320 319 318 319 318 318 318 318 318 316 314 313 311 312 312 312 310 306 304 305 308 313 318 320
328 329 330 334 339 334 326 327 325 326 325 325 323 322 323 324 323 322 320 319 318 317 317 318 318 318 318 316 315 314 313 311 310 311 311 310 308 304 304 304 306 307 312
328 329 331 334 337 333 326 325 323 322 321 321 321 321 321 321 320 320 319 319 318 318 318 318 318 318 318 317 316 314 312 312 311 310 311 310 309 308 304 304 305 305 305
328 328 329 333 336 332 325 324 322 321 320 319 319 319 319 320 319 319 318 318 318 318 318 318 317 317 317 317 316 315 313 311 311 311 311 310 309 309 308 304 303 304 305
326 327 329 333 333 330 325 323 322 321 320 319 319 318 318 318 317 318 317 317 317 317 318 318 317 316 316 317 316 315 314 312 311 311 310 310 309 309 309 309 305 302 303
324 326 328 331 331 327 324 322 319 318 317 317 316 316 316 316 316 316 316 316 316 316 315 315 316 317 317 316 316 315 315 313 311 311 311 310 309 309 309 309 307 303 301
325 327 328 328 323 321 320 318 317 317 316 316 316 316 316 315 314 313 313 312 312 312 312 313 314 315 316 316 317 317 316 315 313 312 311 311 310 309 309 308 308 308 305
320 320 319 318 317 316 315 315 315 316 315 316 316 314 313 312 311 310 309 310 309 310 310 311 312 313 314 314 316 316 319 316 315 314 312 311 311 310 309 308 308 308 306
319 317 317 316 316 316 315 315 315 315 315 314 313 313 312 312 310 309 308 308 308 308 308 309 309 310 312 312 312 314 317 317 316 313 314 313 311 311 309 308 308 306 305
318 317 316 316 315 315 314 313 314 314 314 314 313 313 312 311 309 307 306 306 307 307 307 308 308 309 310 310 309 309 311 312 313 315 313 312 311 310 310 309 308 306 304
318 318 317 316 315 314 314 313 313 313 313 312 311 310 309 307 306 305 305 305 306 306 307 307 307 307 306 306 305 303 305 307 308 305 309 310 310 309 308 307 307 305 303
317 317 316 315 315 314 314 313 312 311 310 309 308 307 306 305 304 304 304 304 305 306 306 305 302 301 300 300 299 297 296 296 297 295 298 299 297 302 302 304 302 302 303

GFSSE_925_thetae_024.txt.gz
Theta_e
342 338 337 339 341 341 340 337 336 337 338 338 336 336 336 336 335 336 335 335 334 332 329 329 332 335 330 329 328 327 327 330 330 328 323 320 322 322 326 333 339 338 335
342 338 338 338 340 341 340 338 336 336 337 338 337 337 337 336 335 335 334 333 332 332 334 330 330 330 330 329 329 328 327 326 324 323 322 323 331 324 324 326 337 334 335
341 341 338 339 339 340 339 340 339 337 335 335 337 337 337 338 337 335 334 333 332 331 331 334 332 331 330 330 330 329 329 328 326 325 323 324 332 331 326 325 327 332 333
342 340 336 337 339 339 339 340 339 338 337 336 334 335 336 335 335 334 332 330 329 330 331 333 333 331 330 329 330 330 329 329 328 328 326 330 334 332 325 325 325 329 332
339 334 333 332 332 332 331 332 333 334 334 335 335 335 334 333 332 332 332 333 333 330 329 329 329 329 329 328 328 329 328 327 328 329 328 331 333 332 330 328 333 329 327
334 328 324 319 318 318 319 320 324 327 330 331 332 334 336 336 335 334 332 328 326 327 328 328 326 325 324 324 324 326 327 328 327 326 329 331 331 331 331 330 330 332 333
328 319 318 318 319 321 322 322 322 323 323 323 324 325 326 325 325 325 325 326 326 326 324 322 322 322 323 323 324 324 324 323 323 327 330 331 331 324 326 330 328 329 329
326 321 319 320 320 321 321 323 323 323 323 323 323 323 323 323 323 323 323 322 321 320 319 318 319 319 320 320 320 321 321 321 321 328 330 330 330 329 328 327 329 328 328
326 327 326 321 322 321 321 322 323 323 323 323 323 322 322 322 322 322 322 320 318 316 316 316 316 316 315 315 315 315 316 316 320 325 327 328 328 327 326 327 328 328 328
327 329 330 331 331 331 328 319 320 322 322 323 322 323 328 329 328 328 328 321 318 316 315 314 313 311 311 311 316 317 315 311 324 325 326 326 327 326 324 325 327 327 327
329 330 330 329 328 330 329 326 328 323 330 330 331 329 330 330 330 329 326 325 324 322 321 319 319 318 315 316 319 318 318 320 322 321 323 325 325 324 322 324 324 325 327
330 331 331 330 328 326 325 328 328 327 330 331 331 330 330 328 328 326 327 327 325 324 323 322 321 320 320 321 320 319 319 320 319 317 320 320 320 318 315 320 322 323 323
330 329 333 333 330 331 326 325 328 328 328 330 331 328 329 327 327 326 325 325 322 323 323 321 321 321 322 321 320 319 318 317 316 316 317 317 317 316 310 314 318 320 321
330 330 335 336 333 330 329 327 325 327 327 328 327 328 325 325 325 323 322 321 320 319 319 319 319 319 319 320 320 318 316 314 314 313 314 316 316 313 308 312 316 318 319
329 329 331 335 339 333 328 327 326 325 327 327 327 325 325 325 324 322 321 320 319 319 318 318 318 317 318 318 318 317 315 314 312 311 312 312 311 310 305 307 314 318 319
328 329 331 334 338 336 329 328 325 326 326 325 323 322 323 324 324 322 320 320 319 319 318 318 318 319 319 319 318 316 316 314 312 311 311 312 311 310 307 304 307 317 319
328 329 330 333 336 336 329 326 324 324 322 321 322 321 321 321 320 320 320 319 319 319 319 318 318 318 318 318 318 318 317 314 313 312 310 311 312 310 309 306 304 306 306
328 329 330 332 336 337 330 325 322 322 321 320 320 320 320 320 320 319 319 319 318 318 318 319 318 318 318 317 318 318 317 316 314 312 311 311 311 310 309 309 306 304 304
327 327 327 330 334 334 329 325 323 322 321 320 320 319 319 318 317 317 317 317 317 317 317 317 318 318 318 318 318 317 317 317 315 313 312 311 311 310 310 309 308 306 303
325 326 327 332 332 328 325 323 321 319 319 318 317 317 317 316 316 316 315 314 314 313 313 314 314 314 315 316 317 317 317 316 315 316 312 312 311 310 309 310 309 307 305
327 328 327 326 322 321 321 318 316 317 316 316 317 316 316 315 314 312 311 311 311 311 312 311 312 312 313 314 315 316 316 316 317 316 315 313 312 311 310 309 309 308 307
320 319 319 318 318 317 317 316 316 316 316 316 315 315 314 313 312 312 311 310 309 309 309 309 310 311 312 312 314 314 313 314 314 314 314 315 313 312 311 310 309 309 309
319 318 318 317 317 316 314 315 315 315 315 315 315 314 314 313 311 309 310 308 307 307 308 307 308 308 311 310 311 312 311 311 311 312 312 313 313 313 312 311 310 308 308
318 318 317 316 316 315 315 314 314 315 315 314 313 311 311 309 308 306 305 305 305 306 306 307 308 308 306 306 306 307 303 304 308 309 309 309 309 310 310 311 310 310 309
319 318 317 316 316 315 315 315 314 313 312 311 310 310 308 308 306 305 304 304 304 305 305 307 305 303 302 301 301 300 299 299 302 301 302 301 302 303 302 303 306 307 307
318 317 317 316 316 315 314 313 312 311 310 310 310 308 307 306 304 303 302 303 303 305 305 304 302 300 300 299 299 298 297 296 296 295 296 295 295 297 297 299 301 303 302

GFSSE_925_thetae_027.txt.gz
Theta_e
339 338 339 340 340 338 337 336 336 337 337 335 335 336 336 335 335 335 334 333 333 332 330 332 332 330 329 329 328 327 326 326 325 324 324 328 329 324 330 339 339 335 334
338 338 338 340 340 339 337 336 335 336 337 336 336 336 336 335 335 335 334 333 332 331 330 330 330 329 330 329 329 329 328 328 326 324 322 322 331 330 325 331 334 334 334
338 338 338 339 339 339 339 338 337 335 335 336 336 336 337 337 336 335 334 333 331 330 330 331 331 331 330 329 328 329 329 328 328 327 327 327 331 332 327 325 327 331 334
337 338 338 338 338 338 338 338 337 336 335 334 334 335 335 334 334 332 331 330 331 332 331 329 326 327 328 328 328 328 328 328 328 328 328 330 332 332 326 327 325 330 332
334 334 334 333 331 330 331 331 332 333 334 336 335 335 334 334 333 333 333 332 328 325 325 325 325 324 324 325 325 325 326 327 327 326 327 331 332 329 323 327 328 326 331
329 326 323 319 319 319 320 322 324 327 328 330 333 333 333 333 331 327 324 324 324 325 324 320 319 320 320 322 322 322 322 322 322 325 328 330 331 330 328 329 330 329 330
320 318 318 319 320 320 320 321 321 321 321 322 322 323 323 323 322 323 323 324 323 320 318 317 316 316 316 316 315 314 315 317 320 324 328 330 330 328 326 328 329 329 330
318 319 319 319 318 317 319 319 321 321 321 322 321 321 320 320 320 321 321 319 316 315 314 313 313 312 312 312 311 311 311 312 315 320 329 330 328 327 325 327 326 328 328
318 318 319 325 324 317 317 320 322 322 322 321 320 320 325 324 326 323 322 319 316 314 313 312 311 310 309 310 312 317 316 310 321 324 326 327 327 327 326 325 325 327 328
327 328 329 329 329 326 316 315 317 320 323 326 325 329 329 329 328 325 324 324 323 322 321 317 319 319 316 314 315 318 317 318 320 323 323 326 326 326 325 323 324 325 327
328 330 330 331 328 328 326 326 324 329 329 330 329 330 328 330 328 326 326 326 325 323 323 321 320 320 319 320 320 320 318 319 320 319 319 322 325 324 323 322 321 323 324
331 330 330 329 327 329 327 328 326 329 329 330 329 330 329 328 327 327 327 326 321 322 323 321 320 320 320 321 320 320 318 318 317 316 316 317 321 319 317 316 312 321 322
330 331 330 328 328 328 327 328 328 329 329 330 330 327 326 328 326 324 323 321 320 320 319 319 319 319 320 319 319 319 318 316 315 315 314 316 318 317 316 314 308 313 320
330 332 331 325 329 329 328 325 327 329 330 331 328 327 325 325 324 322 321 319 320 318 318 318 320 318 317 318 318 319 319 317 314 313 312 312 313 314 312 310 306 311 316
330 332 332 331 324 324 325 326 324 326 326 326 327 325 322 324 323 322 321 320 319 319 319 318 317 317 317 318 318 317 317 316 315 314 311 311 311 312 311 310 305 308 316
330 334 335 335 334 333 327 326 325 325 326 325 324 323 319 322 323 321 320 319 319 319 319 319 318 317 318 319 319 319 318 317 316 315 313 311 311 312 311 310 308 305 313
328 333 336 336 331 330 328 326 323 326 324 323 322 321 320 320 320 319 319 319 319 318 318 318 317 318 318 317 318 317 317 318 317 315 314 312 310 310 311 310 309 307 305
329 330 335 334 329 328 327 326 322 322 320 320 320 320 320 320 320 318 317 317 316 316 316 315 316 317 317 318 318 318 318 317 317 317 315 313 311 310 310 311 309 309 307
326 328 329 332 332 330 326 324 322 322 321 319 320 319 320 317 316 316 316 315 313 313 313 313 313 314 314 313 314 315 315 315 315 316 316 314 312 311 310 310 310 309 308
328 330 330 328 326 325 324 323 321 321 320 319 318 317 316 315 315 315 314 311 311 311 310 310 309 309 309 309 311 312 312 312 314 315 316 316 315 312 311 310 310 309 309
320 320 319 320 317 317 316 316 316 316 315 315 316 316 314 314 312 312 311 311 310 309 309 308 307 308 308 308 309 311 312 312 312 313 313 314 315 315 312 310 310 309 309
318 317 317 317 317 315 315 316 315 315 315 316 315 314 313 311 309 308 307 306 306 306 306 307 307 306 309 309 308 309 309 309 310 310 311 311 312 312 312 311 309 310 309
317 317 316 316 315 314 314 314 314 314 314 313 312 310 309 308 307 305 304 304 304 304 306 306 307 308 305 304 303 304 304 307 303 307 307 308 307 308 307 308 310 309 308
317 317 316 316 316 315 315 315 314 314 312 311 310 309 308 307 305 305 303 302 302 303 303 305 306 306 305 300 299 299 299 300 300 301 305 303 304 301 301 301 302 306 308
318 317 316 316 315 315 314 314 313 312 310 310 309 308 306 306 305 302 301 300 301 303 304 305 304 302 301 300 298 298 297 297 299 297 298 298 296 297 297 297 298 299 304
317 317 317 316 316 314 313 313 312 311 311 309 307 306 304 303 301 300 300 302 303 303 303 302 301 300 299 298 297 297 296 295 294 294 294 293 294 295 294 295 296 298 298

GFSSE_925_thetae_030.txt.gz
Theta_e
341 341 340 338 337 336 336 336 336 336 334 334 334 334 334 334 334 333 333 332 332 332 330 329 329 328 328 328 328 328 328 327 325 326 324 326 331 323 334 338 337 333 334
340 341 340 339 337 336 335 335 336 335 335 335 335 335 335 334 334 333 333 332 332 332 330 330 329 330 330 329 328 328 328 328 327 327 326 327 332 328 323 328 333 333 333
339 340 340 339 338 337 336 335 335 336 336 336 336 336 336 335 334 333 332 330 329 330 334 331 327 326 327 327 327 327 327 328 328 328 327 331 331 332 329 325 329 329 331
338 339 339 338 338 338 337 336 335 334 334 335 335 334 334 333 331 331 331 332 330 326 325 325 325 325 325 326 326 326 326 327 327 326 328 331 331 331 330 326 324 325 328
338 338 337 336 336 335 333 331 331 332 333 333 332 332 331 331 331 329 326 323 323 323 322 320 319 318 319 320 321 321 321 321 323 326 328 331 331 330 325 324 326 325 326
336 334 331 328 325 324 324 327 328 329 328 329 330 330 329 326 323 322 322 322 321 318 314 313 312 312 312 312 312 312 314 318 321 324 328 330 330 330 328 326 328 328 327
327 322 319 318 318 319 320 321 321 322 323 323 322 322 321 320 319 319 318 316 314 312 311 311 311 310 310 310 310 310 311 313 315 321 328 329 330 328 324 326 328 328 327
318 319 318 317 317 319 319 319 320 320 320 320 320 319 320 319 320 318 318 315 313 312 312 311 310 310 310 310 310 315 314 314 315 321 326 329 329 328 327 327 326 327 327
318 317 318 317 316 314 317 319 320 320 320 319 319 325 326 326 324 323 323 321 319 318 317 316 318 318 316 313 314 318 317 317 318 321 323 325 327 326 324 324 324 324 327
318 324 325 324 321 314 313 315 317 318 321 327 328 328 327 326 325 325 325 324 322 322 321 321 319 319 319 319 319 318 318 318 319 319 318 322 326 326 325 324 323 324 325
321 326 328 327 325 323 317 322 326 328 327 328 329 328 328 327 326 326 326 324 322 322 322 320 319 320 320 319 319 319 318 317 317 317 316 317 322 325 324 322 319 318 322
326 328 328 326 327 326 325 324 328 328 328 328 329 329 327 328 327 326 326 323 321 321 320 319 319 319 319 319 319 319 319 318 316 314 315 314 316 322 320 316 315 312 313
329 330 328 325 327 327 327 327 327 328 329 329 328 327 328 327 327 325 324 320 319 318 318 318 318 319 317 317 317 318 319 319 318 315 313 313 312 313 316 314 311 309 309
329 329 328 325 329 327 326 327 328 328 329 330 328 327 326 328 323 322 321 319 319 319 319 318 318 317 317 317 318 318 317 317 317 316 315 313 310 310 311 311 310 309 307
329 328 327 327 329 327 325 326 327 328 329 330 327 326 323 324 323 321 321 320 320 319 319 319 318 318 317 317 318 318 318 318 318 317 316 315 313 310 311 311 311 310 310
330 330 328 325 327 325 326 325 324 327 328 326 327 324 320 322 322 320 321 319 318 319 318 318 317 316 316 317 317 317 318 317 317 318 317 316 315 312 311 310 311 311 309
330 331 331 329 331 329 327 326 324 325 325 325 325 323 320 320 319 320 318 317 317 317 316 315 314 314 314 314 315 316 316 317 317 317 316 316 315 314 311 310 310 310 310
330 333 333 333 329 327 325 326 324 324 323 321 322 321 321 321 320 319 318 316 315 312 312 312 311 311 310 310 309 309 310 311 312 313 313 314 315 315 312 310 310 310 310
333 335 335 332 329 323 326 326 322 321 320 319 319 320 319 318 316 316 315 312 311 311 310 310 309 308 307 306 306 308 309 310 310 310 312 313 313 314 315 312 310 310 310
330 333 331 331 328 327 325 321 320 319 316 317 316 315 315 314 312 311 310 310 309 309 308 307 307 306 306 305 305 305 307 307 307 309 311 311 312 313 313 311 311 310 310
319 321 317 317 316 318 316 316 315 315 314 314 313 312 311 309 308 307 305 305 305 304 305 306 306 305 305 306 306 306 307 307 308 309 308 308 309 310 310 311 310 309 310
316 316 315 314 314 315 314 314 314 314 313 311 310 309 308 307 306 305 304 303 302 302 302 303 304 305 306 306 303 304 305 304 305 303 302 303 305 305 305 305 308 309 308
316 316 315 315 315 315 314 314 314 313 313 311 309 308 307 307 306 305 303 300 299 299 302 302 303 305 305 304 301 300 301 301 298 301 299 300 300 300 300 299 300 303 308
316 316 316 315 315 314 314 314 313 312 311 310 309 308 308 307 307 305 304 300 299 301 303 304 304 304 302 300 299 298 298 298 298 297 299 296 298 296 296 294 296 298 301
316 316 315 315 315 314 313 313 312 311 310 309 307 307 306 304 302 300 298 300 301 302 303 303 301 300 299 298 297 297 296 295 296 295 294 295 294 294 293 293 294 297 299
316 316 316 315 313 313 312 312 311 310 309 308 305 303 302 300 299 299 300 300 299 299 300 300 299 299 298 297 297 297 296 295 294 294 294 293 292 293 294 293 293 295 297

GFSSE_925_thetae_033.txt.gz
Theta_e
341 340 337 335 335 334 334 335 334 334 333 334 333 333 334 334 333 332 332 332 332 332 331 330 329 328 328 328 328 328 328 327 326 324 324 324 330 324 331 336 336 333 332
341 339 337 336 336 336 335 335 335 334 334 334 334 334 334 334 333 332 332 331 331 334 336 335 330 328 326 326 326 327 327 327 327 327 326 327 329 329 325 325 333 332 332
341 339 337 336 335 335 335 335 335 335 335 335 335 335 334 334 333 331 330 330 332 335 333 331 328 325 324 324 325 326 326 327 327 327 327 330 330 331 329 325 321 326 331
341 339 338 337 336 336 335 335 335 335 335 335 334 333 333 331 330 331 330 327 323 323 324 321 320 319 319 319 319 320 321 323 325 326 327 330 330 330 329 325 324 322 324
340 339 339 338 337 336 334 334 333 333 332 332 332 331 330 329 326 322 320 320 320 318 314 312 312 313 315 316 317 317 318 320 321 325 328 331 331 330 327 324 326 325 324
339 339 337 336 333 330 330 330 330 331 331 330 329 327 325 321 319 318 318 316 312 311 311 310 310 310 311 311 312 313 313 314 316 323 328 330 329 330 327 327 325 327 327
337 335 330 325 324 324 325 325 325 324 324 324 322 320 318 317 317 317 315 313 311 310 310 310 310 310 310 310 311 314 314 313 315 321 327 328 329 329 326 325 326 328 328
325 321 319 319 319 319 319 319 320 321 321 320 318 317 317 319 318 319 317 315 314 313 312 317 317 317 315 312 315 318 318 317 319 321 324 325 329 328 327 324 325 325 326
318 318 318 317 317 317 318 319 320 319 319 318 319 322 324 322 322 323 322 321 320 320 319 319 319 318 318 318 318 318 318 317 319 319 318 319 324 325 325 325 323 322 323
318 317 317 314 314 318 319 318 317 316 317 319 325 326 325 325 325 324 324 321 321 321 320 318 318 318 318 318 318 318 318 316 316 316 317 316 317 321 323 323 322 321 320
320 322 322 318 314 315 314 317 320 322 326 327 327 327 327 326 325 325 325 323 321 321 320 319 319 319 318 319 318 318 318 318 317 315 313 314 315 315 321 324 320 316 316
323 324 324 322 321 316 323 325 326 326 327 328 328 328 326 327 326 326 325 324 322 321 320 319 319 319 319 318 317 317 317 317 317 316 315 314 312 313 316 321 317 314 312
325 326 326 325 323 324 323 327 327 328 328 328 328 327 327 327 327 326 324 322 321 319 318 319 318 319 317 317 317 317 317 317 317 317 316 315 314 311 311 316 315 312 310
324 327 327 326 325 326 326 326 327 327 329 328 328 327 325 326 326 323 322 319 319 319 319 319 318 317 317 317 317 318 318 318 318 318 318 316 316 315 312 310 315 317 316
327 328 327 327 327 326 327 327 327 327 328 329 329 327 325 326 323 322 321 320 319 318 318 318 317 316 315 314 314 315 316 317 317 317 317 317 316 315 315 313 312 316 316
327 329 328 327 328 326 326 326 327 327 328 329 329 326 324 324 323 320 320 319 318 318 317 315 314 313 312 311 311 311 311 311 311 312 313 314 315 316 315 313 312 311 313
328 329 328 328 327 325 325 325 325 326 327 328 327 325 323 322 321 321 319 318 316 314 312 311 311 310 310 308 307 306 305 305 307 308 309 311 312 314 313 315 314 311 310
329 328 326 328 324 327 328 325 323 324 323 324 326 323 322 321 319 318 315 313 311 310 310 310 309 308 306 305 304 304 303 302 303 306 309 311 312 312 312 313 315 314 311
329 329 329 329 327 326 326 323 320 319 319 318 319 318 316 315 313 312 310 309 308 308 307 306 306 305 305 304 304 303 303 302 304 307 308 308 310 310 311 312 313 314 312
332 331 330 328 327 323 319 316 316 315 314 314 313 313 312 310 309 308 307 306 306 305 304 303 304 303 304 305 304 304 304 304 306 306 303 303 305 306 306 308 310 310 311
327 327 324 324 325 322 316 316 314 312 312 312 311 311 311 310 309 308 307 306 304 303 300 300 301 301 303 304 305 304 303 305 301 302 298 300 300 302 302 302 302 304 309
317 315 315 315 315 315 314 314 314 313 311 311 310 310 309 308 307 306 305 305 304 301 300 301 303 304 305 304 302 301 299 300 301 298 299 298 298 297 297 296 297 298 300
315 315 314 314 314 314 314 314 313 312 311 310 309 307 306 305 304 303 302 300 299 299 302 303 303 303 303 301 300 298 297 297 297 298 297 298 296 295 294 293 293 296 297
315 315 315 314 314 314 314 314 313 313 311 309 307 306 305 304 303 301 299 298 298 299 300 300 301 301 300 299 298 298 297 297 294 294 296 295 295 294 294 293 293 295 298
314 314 314 314 314 314 313 313 312 311 310 308 307 306 304 302 301 299 299 299 299 298 298 299 300 299 298 298 297 297 296 296 294 294 294 293 294 293 293 294 292 294 297
314 314 314 314 313 312 312 312 311 310 309 307 305 304 303 301 300 299 299 299 298 298 298 298 299 298 297 296 296 296 295 295 294 293 294 294 294 294 294 294 294 292 292

GFSSE_925_thetae_036.txt.gz
Theta_e
340 337 336 336 335 336 335 333 333 333 332 332 333 333 333 332 332 332 332 333 334 336 337 334 330 329 328 328 327 327 327 327 326 325 325 324 330 325 326 331 332 332 332
340 337 335 335 335 335 334 334 334 334 333 333 333 333 333 333 332 332 331 330 333 337 334 329 323 323 324 325 325 326 326 326 326 326 326 327 329 330 329 324 328 330 331
339 337 336 336 336 335 335 334 334 334 334 334 334 333 333 332 331 329 330 331 330 330 328 321 319 318 319 320 320 321 323 324 326 326 326 328 330 331 328 324 323 325 327
338 337 336 336 335 335 335 335 335 334 334 333 333 332 330 329 329 328 323 320 322 324 323 314 313 314 316 317 317 318 319 320 323 325 326 328 330 330 329 325 325 324 326
339 337 336 335 335 335 335 334 334 333 332 332 330 329 328 325 321 318 318 319 316 313 315 312 311 310 310 310 310 310 311 313 317 324 327 329 330 330 330 325 326 326 326
340 339 338 337 335 333 332 332 330 329 329 328 326 324 321 318 318 317 315 312 311 311 310 310 310 310 310 309 313 313 314 312 315 323 327 329 329 329 328 327 326 328 328
339 339 337 334 330 328 328 328 328 327 324 323 321 319 317 317 316 315 313 312 311 311 312 314 316 315 313 312 317 318 317 317 320 321 324 326 328 328 325 326 323 325 327
338 335 331 326 324 324 324 323 322 321 321 320 318 317 317 317 318 317 316 316 317 316 318 317 317 317 317 318 317 317 317 317 318 319 319 320 323 325 324 322 324 323 322
329 324 322 321 319 320 319 319 320 320 320 318 318 321 320 321 322 321 320 320 320 319 317 317 317 317 317 317 317 318 317 316 315 315 316 316 317 319 323 324 324 323 320
320 319 317 317 317 317 318 319 319 319 319 319 323 324 323 323 323 323 321 320 321 320 319 318 318 318 317 317 317 317 317 317 316 316 314 313 313 315 316 320 321 321 317
319 317 316 316 317 317 318 318 319 318 319 324 325 325 325 325 325 324 323 322 321 321 320 319 319 319 318 317 316 316 316 317 317 316 316 315 314 311 313 318 320 319 315
320 320 318 316 315 315 316 317 320 322 326 327 326 326 326 326 325 325 325 323 321 319 319 318 318 318 318 316 316 317 318 318 317 317 317 317 315 314 314 314 313 314 313
322 322 321 318 315 317 320 323 324 325 327 327 328 327 326 326 326 325 324 323 320 319 318 318 318 317 317 316 316 316 317 317 317 317 317 317 317 316 316 319 318 316 313
324 324 324 321 320 319 324 325 326 327 327 327 327 327 325 326 326 324 322 320 319 318 318 318 318 316 315 314 312 312 312 313 315 316 316 316 316 317 316 316 319 318 318
324 326 325 324 322 322 322 325 326 327 328 328 328 327 326 324 325 322 320 320 318 318 317 316 315 313 311 311 310 309 308 308 308 309 310 311 312 313 315 315 316 319 319
323 326 327 325 325 324 325 326 325 325 327 328 329 329 326 324 322 321 320 318 316 314 312 311 310 310 309 308 307 305 304 303 302 302 306 308 309 309 311 312 313 314 317
324 326 327 327 327 326 324 324 324 325 326 327 328 327 323 322 321 319 317 315 312 310 310 310 309 307 306 305 305 304 303 302 301 302 303 305 308 310 311 312 312 312 314
325 326 327 327 326 327 326 325 321 324 322 323 324 322 320 319 317 315 313 311 309 309 308 307 306 305 304 303 303 302 302 301 302 306 306 305 306 308 309 310 311 311 312
326 327 327 327 325 326 323 321 318 318 318 317 317 316 314 313 312 312 310 308 307 306 305 304 303 301 301 301 302 301 301 300 304 303 302 300 301 302 303 304 306 307 309
328 328 328 327 325 321 319 314 314 314 314 314 314 312 312 311 310 308 308 306 306 305 305 303 301 300 302 304 303 303 301 302 301 300 298 298 298 298 298 298 300 302 303
328 329 328 327 322 315 314 313 313 313 313 312 311 310 309 308 308 307 306 305 304 302 300 300 301 302 304 303 302 299 300 302 298 299 297 297 297 297 295 294 294 295 297
319 320 320 318 315 315 314 313 313 312 311 310 309 308 307 307 306 305 304 303 299 297 296 299 301 302 302 300 299 298 297 298 299 297 297 297 296 295 294 293 292 293 295
313 314 314 314 314 314 314 314 313 312 310 309 308 307 306 305 305 304 302 299 297 297 297 297 298 300 300 299 298 298 296 295 295 296 296 296 295 295 294 293 293 293 296
314 314 314 314 314 314 314 313 312 312 311 309 308 306 305 305 303 302 299 298 298 298 297 297 297 298 299 298 297 297 297 296 294 294 295 294 294 294 293 294 294 293 296
314 314 314 314 314 313 313 313 312 312 310 308 306 306 305 303 301 300 299 299 299 298 298 298 298 299 298 297 297 296 296 295 295 294 295 294 294 294 294 293 293 294 292
313 314 313 313 313 313 312 312 311 310 309 307 306 305 303 300 299 299 299 299 298 297 297 297 298 298 297 296 295 295 295 294 294 294 294 293 293 293 291 291 292 293 292

GFSSE_925_thetae_039.txt.gz
Theta_e
340 340 338 337 335 333 332 331 330 331 332 333 333 333 332 332 332 332 332 332 334 336 335 334 332 331 327 325 326 326 326 326 326 326 325 326 330 328 327 330 333 334 331
338 338 337 337 336 334 333 333 332 333 334 334 333 333 332 332 331 331 330 333 333 333 331 329 329 327 322 322 323 323 325 325 326 326 326 328 330 330 328 325 324 330 331
337 336 337 336 336 334 334 333 333 333 333 333 333 332 331 330 329 328 328 327 324 328 327 325 320 317 318 318 318 318 319 321 324 325 327 330 333 330 328 326 325 325 325
337 336 338 336 335 335 334 334 334 334 333 332 331 329 327 327 326 324 321 323 323 324 321 314 311 310 310 309 310 310 311 314 319 325 328 330 331 330 328 326 326 326 326
338 337 337 336 335 335 335 335 334 333 332 330 328 326 326 323 320 320 320 316 313 313 312 310 310 310 309 312 314 316 314 314 315 324 327 330 332 330 328 326 327 328 328
338 338 336 336 336 335 335 334 332 330 328 326 325 324 320 318 319 317 313 312 312 311 311 313 313 311 312 317 317 317 317 319 319 323 324 327 329 328 327 327 324 325 326
338 337 336 335 335 334 333 330 328 327 325 323 322 319 318 318 316 314 312 312 311 316 317 317 317 316 317 317 317 316 316 316 318 319 321 323 324 326 325 324 324 324 322
339 338 338 335 332 330 327 325 325 323 322 321 318 317 317 317 316 316 316 317 317 317 317 317 317 317 317 317 317 317 316 316 316 316 317 319 316 318 322 323 323 323 322
338 337 335 330 326 324 324 323 322 322 321 318 317 319 319 321 320 319 319 319 318 318 317 317 317 317 317 317 316 316 316 315 316 316 315 315 312 312 317 319 320 321 321
335 330 325 323 323 321 322 321 321 320 319 319 321 321 322 322 322 320 320 320 320 320 318 318 318 317 317 316 316 316 316 316 317 318 317 316 315 314 312 314 315 318 319
326 323 321 320 318 319 319 320 320 319 318 323 324 323 323 323 323 323 321 320 320 319 318 318 318 318 318 316 315 315 316 317 317 318 318 317 317 316 317 314 312 313 313
323 320 319 318 318 318 319 319 319 319 320 325 325 325 325 324 325 324 323 321 320 318 318 318 318 318 317 317 315 314 315 315 315 316 317 316 317 317 317 320 318 315 313
319 319 318 316 318 318 319 320 319 323 324 326 326 326 325 326 326 325 324 323 320 318 318 318 318 317 316 314 312 311 311 311 312 313 314 316 316 316 316 320 321 320 319
321 321 319 318 318 319 320 321 323 324 326 326 327 327 326 326 326 326 324 320 319 318 318 317 316 314 312 310 309 307 306 306 307 307 309 310 312 313 313 314 319 321 321
322 323 322 320 319 320 322 323 324 325 326 327 327 327 327 326 326 322 320 319 318 316 315 313 311 310 310 309 307 306 305 304 303 305 306 302 304 307 309 310 312 315 318
323 324 324 324 323 322 323 325 325 325 325 326 327 327 325 324 322 320 319 317 314 312 311 310 309 309 308 307 307 305 305 305 305 303 306 307 303 305 308 309 310 311 312
322 324 325 325 326 325 323 323 323 324 324 325 326 325 322 322 321 319 316 313 311 310 308 307 306 305 306 305 305 305 305 305 305 304 306 306 306 306 307 308 309 310 310
323 326 326 326 325 323 322 320 320 323 322 322 322 322 320 319 317 314 312 309 307 306 306 306 305 305 305 304 305 305 305 304 306 303 304 303 302 302 302 304 304 305 306
324 325 325 325 325 324 321 321 320 319 318 318 315 314 312 311 309 309 307 306 306 306 305 303 303 302 303 304 303 303 303 303 304 301 301 301 299 298 298 298 299 300 301
325 325 325 325 324 323 320 321 317 314 312 311 311 310 309 308 307 307 307 306 305 303 301 299 301 302 303 304 301 302 300 302 302 300 300 299 298 297 297 296 296 296 295
326 326 326 326 326 324 320 314 313 312 310 310 310 309 308 307 307 307 306 304 301 298 296 298 301 302 301 301 301 299 299 303 301 299 298 298 297 297 296 296 295 295 296
326 326 327 326 323 320 316 313 312 311 309 309 308 307 306 306 306 305 303 300 297 299 299 299 300 299 300 300 299 299 299 298 300 299 297 297 297 296 296 296 295 295 295
322 323 322 318 318 316 314 313 311 310 308 308 306 306 306 306 304 302 299 298 297 298 299 299 299 299 299 299 299 298 299 298 298 297 296 297 296 296 295 295 295 295 295
313 314 314 315 314 313 312 312 311 311 312 309 307 306 306 304 301 299 299 298 298 297 298 298 298 299 299 298 297 297 298 297 296 296 295 295 294 295 295 295 294 295 295
312 312 312 312 312 312 312 312 312 311 310 308 307 306 304 301 300 299 299 299 299 298 298 298 298 299 298 298 297 296 296 295 295 295 295 294 293 294 294 293 293 294 294
312 313 313 313 313 313 312 312 311 310 309 308 307 304 302 300 300 299 299 299 299 298 298 298 298 298 298 297 296 295 294 294 294 293 293 293 293 292 292 292 291 291 293

GFSSE_925_thetae_042.txt.gz
Theta_e
342 341 337 333 330 328 330 330 328 328 329 331 332 332 332 332 332 333 333 334 335 337 335 333 330 326 324 324 324 325 325 326 326 326 326 328 333 331 326 326 332 334 331
342 341 338 335 332 330 329 329 331 332 332 332 332 332 332 332 332 331 333 334 334 333 332 328 321 319 318 318 318 319 320 323 325 325 327 331 331 330 326 325 324 329 330
342 341 339 336 333 332 331 332 333 333 333 333 333 332 332 331 329 330 330 325 328 328 326 323 315 313 311 310 310 311 313 317 323 325 328 329 332 329 326 327 326 326 326
340 340 340 337 334 334 334 334 334 334 333 333 332 331 329 328 327 322 321 319 316 321 319 312 310 309 310 312 315 314 312 313 319 326 328 330 331 329 327 326 328 329 327
340 341 340 336 335 335 335 334 334 334 333 332 330 327 326 323 320 320 317 315 317 319 318 311 310 312 316 317 316 316 317 318 319 323 325 330 330 329 326 325 327 327 327
341 341 337 336 335 335 335 334 334 333 331 328 326 324 320 319 319 315 313 314 315 316 317 315 313 317 317 317 316 315 316 318 320 320 323 326 329 329 331 324 322 323 322
340 341 339 336 335 336 337 335 333 330 328 326 323 318 319 319 315 313 312 312 317 317 317 317 317 317 317 317 316 316 315 316 318 319 319 322 321 320 329 325 323 323 322
340 340 339 337 336 336 335 332 330 328 327 324 319 318 318 316 315 315 315 317 317 317 317 317 317 317 317 317 316 316 315 316 317 316 316 317 313 312 322 326 321 321 322
341 340 339 338 336 333 330 329 328 326 324 319 318 318 319 318 318 319 318 318 317 318 318 318 317 317 316 316 316 316 315 317 319 319 317 317 315 318 321 321 324 320 320
340 337 334 333 333 332 332 326 325 323 320 319 320 321 321 320 320 320 321 320 319 319 319 318 318 318 316 315 315 314 315 318 319 318 318 318 316 316 318 322 319 316 314
335 333 331 330 330 329 329 329 324 322 320 322 323 322 324 327 326 326 321 320 320 319 318 318 318 318 317 318 316 314 316 317 317 317 317 315 315 316 317 317 317 318 317
326 326 327 327 327 327 325 327 328 325 327 328 328 328 328 329 328 327 324 321 319 318 317 318 317 318 319 319 317 315 315 316 316 316 316 312 313 315 316 317 318 319 319
323 323 324 326 327 326 326 326 325 327 328 330 330 330 330 330 330 328 328 326 324 319 321 321 321 320 319 317 315 314 314 313 313 312 313 309 307 311 314 315 317 320 322
324 324 324 325 326 326 325 326 328 328 329 330 331 331 331 330 330 330 327 324 322 322 322 320 319 317 316 314 313 313 312 312 312 312 311 309 304 303 306 310 313 315 316
325 325 325 324 325 326 327 328 329 329 330 331 331 332 331 329 328 326 324 322 321 319 318 317 316 315 314 313 313 312 312 311 311 310 310 309 307 303 304 307 308 310 312
326 327 328 327 326 327 327 327 327 326 327 329 330 327 327 325 325 324 322 319 317 316 315 315 313 313 312 312 311 311 310 310 310 309 309 309 307 306 306 306 307 308 309
327 329 329 329 327 326 325 323 322 322 323 324 325 325 323 324 323 321 319 316 314 312 312 311 311 311 310 310 309 309 308 308 308 308 306 306 306 306 304 304 304 304 304
326 329 329 327 326 325 321 320 319 320 321 321 322 322 320 317 316 314 313 311 311 310 310 309 309 308 308 307 307 306 305 305 304 306 304 305 304 303 302 301 299 298 299
327 329 328 327 326 321 318 319 319 319 318 316 314 314 311 310 309 309 310 310 310 309 308 306 305 304 303 303 303 301 302 302 301 303 303 304 302 301 300 300 298 297 297
329 330 328 328 323 322 323 321 321 317 314 312 311 310 309 309 309 310 310 309 307 305 303 303 302 302 302 303 302 301 302 301 302 303 302 301 301 300 299 299 299 298 297
328 328 328 325 324 326 323 319 315 312 312 311 311 310 309 309 309 309 307 305 303 302 303 302 301 301 301 302 302 300 300 301 304 303 301 300 299 299 298 299 298 298 298
329 329 328 328 328 325 322 318 317 315 314 312 310 309 309 308 307 305 304 303 302 302 302 302 301 301 300 300 301 300 301 300 299 301 299 299 299 298 298 298 298 298 298
330 330 328 326 323 320 318 316 315 314 312 311 310 309 308 307 305 304 303 302 302 302 301 301 301 301 300 299 300 300 302 300 299 298 298 297 297 297 297 297 297 296 296
326 324 320 319 319 318 317 315 315 315 315 314 312 310 309 305 304 303 303 303 302 302 302 301 300 300 300 299 298 298 298 298 298 298 296 296 295 295 295 295 295 295 295
318 318 318 317 316 316 316 316 316 315 314 312 310 310 307 305 304 303 302 303 302 302 301 301 301 300 299 299 298 297 296 296 295 296 297 295 294 294 294 293 294 293 293
317 317 317 316 316 315 316 315 315 314 312 310 309 307 305 304 303 302 302 302 301 301 301 300 300 299 298 297 297 296 295 294 294 294 295 294 294 293 293 292 292 292 292

GFSSE_925_thetae_045.txt.gz
Theta_e
342 339 332 331 338 339 338 337 336 332 329 330 331 333 333 333 334 334 335 335 336 335 334 332 327 322 319 318 318 319 321 324 325 325 327 331 330 327 325 323 331 333 330
342 340 332 330 332 337 336 333 329 328 331 333 333 333 333 334 334 335 333 330 332 332 330 320 315 314 312 311 312 313 316 320 324 325 330 331 330 327 326 326 326 329 328
342 340 337 331 330 330 330 330 331 333 333 333 333 332 332 331 331 331 325 325 327 327 325 321 316 310 311 313 312 311 311 316 323 327 327 333 332 327 327 327 327 327 329
342 340 339 333 331 331 331 332 332 333 333 333 333 331 329 328 326 322 321 318 321 325 323 320 312 315 316 316 316 316 314 316 322 324 328 328 332 327 326 327 326 326 328
340 341 340 334 333 333 333 333 333 333 334 333 331 328 327 322 320 318 315 318 321 323 319 312 315 317 316 315 315 315 317 319 320 323 326 327 330 329 328 323 326 326 322
341 342 337 335 335 334 334 334 334 334 333 330 328 325 321 319 316 313 314 315 318 319 317 315 317 316 316 315 315 314 315 318 320 320 322 325 325 328 331 324 323 323 322
341 341 339 336 335 335 334 334 334 333 330 328 325 321 320 316 313 313 313 317 317 317 317 317 316 316 315 315 314 313 315 318 318 317 318 321 320 321 324 327 320 321 322
340 339 339 335 335 336 335 335 333 331 327 325 321 320 317 315 314 313 317 317 317 317 317 317 317 316 315 315 315 314 314 320 320 319 318 320 314 317 323 323 322 320 320
339 340 339 338 337 336 335 332 331 328 325 321 320 318 316 316 318 317 317 317 317 317 317 317 317 316 315 315 314 313 317 319 321 320 320 321 314 316 323 323 321 318 316
338 338 335 335 334 335 332 330 327 326 322 320 319 320 319 319 319 320 320 319 319 319 318 318 318 317 316 316 316 313 317 319 319 319 320 318 311 313 318 318 318 318 318
335 332 331 331 330 331 331 329 325 323 320 321 322 322 326 326 325 327 325 320 320 319 318 317 317 317 317 320 319 315 317 318 318 318 318 316 312 309 316 319 317 317 318
331 329 329 329 329 327 326 327 327 325 326 328 328 328 329 329 329 328 323 319 319 318 318 318 318 319 320 320 319 317 317 317 316 316 316 314 312 308 307 314 320 321 322
325 325 326 328 327 325 326 326 325 327 329 330 330 330 331 329 329 328 328 328 326 322 323 322 322 321 321 319 318 317 316 316 316 316 315 313 311 310 306 314 318 319 320
324 324 325 326 327 326 325 325 327 328 329 329 330 332 331 331 331 330 327 326 324 323 324 322 321 320 319 318 317 317 316 316 315 315 314 313 311 310 307 313 314 315 316
325 325 324 325 326 328 329 329 330 330 330 331 331 332 333 331 331 329 327 325 324 322 321 320 319 318 317 317 316 316 315 314 314 313 313 312 310 308 306 305 309 311 312
326 327 326 327 328 330 331 331 330 329 330 330 332 329 328 327 326 328 326 324 321 319 318 317 316 315 314 314 314 314 313 312 312 311 311 310 308 307 306 304 304 305 307
328 328 329 329 329 330 327 325 325 324 325 326 327 326 327 327 327 325 322 319 316 314 313 312 312 311 312 311 310 310 309 308 307 308 308 307 307 306 304 303 301 300 301
330 331 330 330 330 328 325 322 321 320 320 321 324 323 321 321 319 318 316 314 312 312 311 311 309 307 306 306 306 306 304 303 304 305 304 305 305 305 303 302 301 299 299
331 332 331 330 329 324 321 321 321 320 317 319 317 316 314 313 313 313 313 313 312 310 308 307 305 305 304 304 304 304 303 303 304 303 304 305 304 303 303 302 301 300 299
329 332 331 330 327 323 323 324 320 318 320 314 312 312 312 312 313 313 312 311 308 307 307 306 305 304 303 303 303 303 303 302 302 303 305 305 303 302 301 301 300 300 299
331 332 330 328 325 327 327 323 322 319 316 314 314 313 313 312 312 311 310 308 307 305 305 304 304 303 303 302 302 302 302 302 302 303 303 303 302 301 301 300 299 299 299
332 331 330 328 328 329 326 323 320 317 316 315 314 313 313 312 310 308 308 307 306 305 304 304 304 303 302 301 301 301 303 301 301 301 301 300 300 299 299 298 299 298 298
330 330 330 330 327 324 320 318 318 317 316 314 314 313 312 310 308 307 307 306 305 304 303 303 303 302 301 301 301 300 302 302 300 299 299 298 298 298 297 297 297 297 297
331 330 329 324 321 319 318 317 317 316 316 316 315 314 312 309 308 306 305 304 304 304 303 303 302 302 301 301 300 300 299 299 300 299 297 297 297 296 296 295 296 295 295
327 324 321 320 319 319 318 317 318 317 316 315 313 313 311 309 307 305 304 304 303 303 302 302 301 301 301 300 299 299 298 298 297 297 298 296 296 295 295 295 295 294 294
322 321 320 320 319 318 318 318 318 317 314 313 312 311 309 307 305 304 304 303 303 302 301 300 299 299 299 299 299 298 298 297 296 296 296 296 295 294 294 294 293 293 293

GFSSE_925_thetae_048.txt.gz
Theta_e
338 328 330 341 342 340 337 337 336 333 332 331 332 333 334 334 334 334 334 333 333 332 330 328 318 315 313 312 313 315 318 321 324 327 330 331 329 325 326 325 330 328 328
338 331 330 340 340 338 338 336 332 330 331 333 332 333 334 334 334 332 328 329 330 329 325 320 313 309 309 309 309 310 315 320 323 326 332 331 331 326 325 325 326 328 330
339 333 330 338 339 338 335 331 330 333 333 333 333 333 335 334 332 326 324 324 324 323 321 317 313 314 315 315 314 312 312 321 324 324 327 332 330 327 325 327 325 327 331
339 337 332 333 335 332 331 332 333 333 333 333 332 334 333 329 324 321 318 318 318 321 318 313 314 314 314 314 314 314 317 320 321 323 331 332 331 330 324 326 325 322 326
340 338 332 331 331 332 332 333 334 333 333 331 332 330 325 322 319 316 315 315 316 318 317 316 315 314 313 312 312 313 319 319 320 325 325 325 325 330 329 322 323 323 321
341 339 333 332 332 333 333 333 333 334 331 329 327 322 320 319 315 314 314 317 318 317 317 316 315 314 314 313 312 316 317 318 318 322 323 319 314 323 326 326 321 321 322
339 336 334 334 334 334 334 333 334 331 329 326 321 320 318 313 312 313 317 316 316 316 315 315 315 315 314 314 313 314 318 321 321 320 320 313 313 321 324 323 318 320 319
330 334 335 334 335 334 334 334 332 329 326 322 319 318 314 313 313 316 316 315 315 315 315 315 315 314 314 314 313 316 319 320 321 320 320 314 312 315 324 323 320 316 315
335 336 336 336 335 335 335 332 330 326 322 318 318 316 315 316 316 316 315 316 316 316 316 316 316 316 315 316 315 313 318 318 319 320 321 316 312 311 321 322 321 319 319
335 335 337 336 335 334 332 330 327 323 318 318 317 317 318 318 318 319 318 317 317 317 317 317 317 317 316 319 318 317 318 318 317 318 319 316 315 313 311 319 321 320 321
333 336 335 335 333 328 328 327 324 319 318 319 320 321 323 325 324 326 321 317 317 316 316 317 317 317 318 320 319 317 318 317 317 317 317 315 314 313 312 311 319 321 322
332 332 332 332 330 329 329 326 321 319 324 326 322 328 330 329 328 328 321 318 320 320 319 321 322 322 321 320 319 318 317 317 317 316 316 315 314 312 312 311 316 319 320
330 330 329 329 329 328 325 328 325 328 330 330 330 330 329 329 327 328 328 327 327 323 324 323 323 322 320 319 318 317 317 316 316 316 315 315 313 312 310 309 313 315 315
327 327 328 327 327 326 326 325 326 329 330 329 330 331 330 330 329 329 328 326 325 323 322 322 321 319 319 318 318 316 316 315 315 314 314 314 312 310 308 307 309 311 312
326 326 327 327 326 325 328 327 330 330 330 329 330 328 330 330 331 325 327 326 323 321 319 318 317 316 315 314 314 314 314 313 313 312 312 311 310 308 307 306 304 307 307
325 325 326 327 328 331 329 329 329 329 328 329 330 328 328 328 327 328 326 322 319 318 317 314 312 312 311 311 310 309 308 309 307 306 308 308 309 307 306 304 302 303 303
326 326 327 328 332 330 327 326 326 324 322 322 323 326 327 327 326 323 321 318 316 314 312 311 309 308 307 306 306 306 306 305 303 303 305 304 306 307 305 304 302 302 302
328 328 329 331 329 326 324 319 318 318 318 319 322 322 323 322 318 317 316 312 312 312 310 308 306 306 305 304 304 304 305 304 303 304 304 303 305 305 305 303 302 301 301
330 331 330 331 327 325 321 320 319 319 319 319 318 318 316 316 314 313 313 312 310 309 308 306 306 305 304 304 303 303 303 303 304 302 302 303 305 304 303 302 301 300 300
333 332 331 331 328 324 321 322 322 320 319 318 315 313 312 312 314 314 313 310 308 307 306 305 305 304 304 303 303 303 302 303 301 302 303 305 305 303 302 300 300 299 300
334 333 331 329 327 323 327 325 321 319 318 315 314 314 314 314 313 311 310 309 307 306 305 305 304 304 304 302 302 302 302 301 302 301 301 300 300 300 299 299 299 299 298
334 333 330 329 327 327 328 324 323 319 316 315 315 314 314 313 311 309 308 307 306 305 304 304 303 304 303 303 302 302 301 301 302 300 299 298 298 298 297 297 297 297 297
334 331 330 329 327 329 326 323 320 318 316 315 315 314 313 311 309 308 307 306 305 304 304 304 303 303 303 302 302 302 301 299 300 299 298 297 297 297 297 297 296 296 296
331 330 330 329 329 327 320 319 318 317 316 316 315 315 313 310 309 307 306 305 304 304 303 303 303 302 302 302 301 300 300 299 298 298 298 297 297 296 296 296 295 295 295
330 329 331 330 324 320 319 318 317 318 316 316 314 314 313 311 310 307 305 305 304 303 303 302 301 300 300 300 300 300 299 299 298 298 296 296 296 295 295 294 295 293 294
332 331 324 322 320 319 319 318 318 318 316 314 313 313 311 310 307 305 305 304 303 302 302 300 299 299 299 299 299 299 299 298 297 297 295 295 295 295 294 294 293 293 292

GFSSE_925_thetae_051.txt.gz
Theta_e
333 338 342 342 339 337 336 335 333 331 330 331 332 332 333 333 331 328 325 326 328 327 322 318 311 309 308 308 310 315 320 324 326 332 330 330 334 331 325 324 328 330 327
332 337 341 341 339 337 337 334 332 331 332 332 332 333 333 332 325 323 322 324 324 324 322 319 313 312 312 311 309 313 320 322 324 329 332 328 328 332 329 324 326 329 327
327 338 341 341 338 337 335 333 332 332 332 332 333 334 331 324 321 320 320 322 323 324 323 317 313 313 312 313 311 317 319 318 320 326 331 331 328 329 329 324 322 327 325
332 339 340 338 338 335 334 334 333 333 333 333 332 328 322 321 319 318 318 318 317 319 317 314 312 311 311 311 314 318 318 322 326 331 330 327 326 328 321 322 322 322 320
335 337 338 337 333 332 335 335 333 333 333 330 325 322 321 318 317 316 315 314 314 315 315 313 312 311 311 314 316 318 320 325 325 325 315 313 313 324 324 317 319 320 321
334 335 334 332 332 333 334 333 333 330 328 325 321 319 316 314 314 313 315 315 316 315 313 312 313 313 313 313 316 319 321 320 320 315 312 313 313 319 323 317 314 315 317
333 332 331 333 334 334 334 334 331 328 325 321 319 316 312 312 312 315 315 315 314 314 314 314 313 313 313 313 317 318 319 318 321 317 314 312 313 318 323 324 321 320 316
334 333 333 334 334 334 334 331 328 324 320 318 317 313 312 312 315 314 314 314 314 314 314 314 314 314 315 316 314 316 318 318 320 320 317 314 313 314 314 314 317 318 320
331 332 333 334 334 333 332 328 325 321 317 317 314 313 313 315 315 314 314 314 313 314 315 315 315 315 316 319 317 317 318 317 317 320 317 314 314 315 314 312 314 322 323
331 331 333 333 334 333 330 326 323 318 317 315 315 316 316 315 315 314 314 314 314 314 315 316 316 316 318 320 317 318 317 317 317 317 315 314 313 318 317 313 312 317 321
330 331 332 334 333 330 328 324 320 316 316 318 317 320 322 325 323 319 316 315 315 315 317 320 321 320 321 319 319 317 317 317 317 316 316 315 314 315 314 313 312 317 318
331 333 331 331 330 327 323 320 317 317 319 323 326 327 327 326 327 326 319 319 322 318 322 322 321 321 320 319 318 317 317 316 316 316 315 314 314 313 315 312 310 314 315
330 331 332 331 325 321 320 317 323 327 324 325 329 330 329 329 326 326 327 326 326 323 324 323 321 319 318 317 317 316 315 315 315 313 313 313 312 310 312 312 311 311 311
330 332 332 330 327 325 324 326 328 329 330 329 331 330 331 330 329 327 327 327 323 322 318 318 318 318 317 316 314 312 311 310 312 311 310 311 310 309 309 310 309 308 307
329 328 327 327 326 328 328 326 328 331 330 331 330 330 329 329 327 327 326 321 320 320 319 318 316 313 311 310 309 308 307 306 305 304 304 306 307 308 307 307 306 305 305
328 328 326 325 324 327 330 330 330 330 329 328 328 328 328 328 326 327 322 318 318 317 315 313 311 308 307 306 305 305 305 305 305 304 303 305 304 306 306 304 304 304 304
326 326 326 328 330 330 329 329 328 328 328 327 325 325 326 327 326 324 322 317 314 312 311 309 307 306 304 304 303 303 304 304 303 303 303 303 303 305 305 303 303 303 303
326 326 326 331 329 328 328 327 326 323 322 321 322 324 325 321 321 320 317 312 312 310 308 307 306 304 304 303 303 303 302 302 303 302 302 302 302 305 304 303 301 301 301
325 326 331 330 329 328 326 322 319 319 318 319 320 320 319 317 314 312 312 310 309 308 307 306 305 304 304 303 302 302 302 301 301 301 301 301 302 302 301 300 300 299 299
327 329 331 328 327 325 319 319 319 318 318 317 316 314 312 312 313 313 311 309 307 306 305 305 304 304 303 303 302 301 300 301 301 300 299 299 298 298 298 298 298 297 298
330 331 330 327 326 322 320 322 322 320 316 314 312 312 313 313 313 310 309 308 306 305 304 304 303 303 303 303 302 301 301 301 300 300 299 299 298 297 297 296 297 297 296
330 331 329 328 327 325 322 324 322 318 315 314 314 314 313 313 311 310 309 307 306 305 304 303 303 303 302 301 302 302 298 300 300 299 298 298 297 296 296 296 296 295 295
331 330 329 329 328 326 326 325 321 317 315 314 314 314 313 312 309 308 307 306 305 304 304 303 303 302 302 301 300 301 297 297 298 298 298 298 297 296 296 295 295 295 294
331 330 329 329 328 326 328 323 320 317 316 315 314 314 313 310 309 308 307 305 304 304 303 303 302 301 300 300 299 300 300 299 296 297 297 297 296 296 295 294 294 294 293
331 330 329 328 327 327 328 322 319 316 316 315 315 314 312 310 309 309 308 305 304 303 302 301 300 299 298 298 299 299 299 299 298 296 295 295 296 295 294 293 294 292 292
330 329 329 328 328 327 320 319 317 317 316 314 315 313 313 311 309 308 305 304 303 302 301 299 298 297 297 297 297 299 299 298 298 297 295 294 294 295 294 294 292 292 291

GFSSE_925_thetae_054.txt.gz
Theta_e
343 343 342 337 335 334 333 331 329 330 331 331 331 330 328 324 319 317 318 319 322 324 323 314 312 311 311 313 319 322 323 328 331 329 328 332 333 328 324 327 327 327 328
343 343 341 337 335 335 333 331 331 332 332 332 331 327 322 318 317 317 318 320 324 326 323 314 312 312 312 315 317 318 319 319 330 330 327 328 331 329 323 323 323 323 326
343 343 340 337 335 335 332 331 332 333 333 332 329 323 318 317 314 315 318 322 325 325 321 311 310 311 313 317 320 322 322 329 329 330 326 325 328 329 325 322 322 321 323
346 342 340 337 336 334 333 336 335 336 333 330 325 319 316 315 314 315 317 320 320 316 311 310 311 313 316 318 320 327 329 329 329 324 318 317 318 323 323 316 320 321 320
343 342 339 336 336 334 334 336 336 334 330 325 321 317 314 313 313 315 315 314 312 311 312 312 312 313 316 318 318 324 323 325 315 313 316 317 318 320 313 314 314 315 317
341 340 338 336 333 334 336 335 334 329 325 321 319 315 311 312 314 316 314 313 312 312 313 313 313 313 316 318 316 317 319 315 314 313 314 316 319 324 317 313 316 318 317
340 338 336 332 334 335 334 332 328 324 320 319 316 312 311 313 314 314 313 312 312 313 313 314 314 315 314 315 318 317 318 319 317 316 314 314 319 323 321 313 312 314 321
335 333 331 332 333 333 332 329 325 321 318 317 313 311 312 314 313 313 312 313 313 314 314 314 314 319 318 316 317 317 316 317 319 315 314 315 317 321 321 317 314 314 319
331 331 331 332 331 332 329 326 322 318 317 313 311 311 314 313 312 312 312 313 313 314 315 315 315 318 320 317 317 317 317 316 316 316 314 316 319 320 320 319 317 319 320
329 328 326 325 331 331 328 323 319 316 315 312 313 314 314 312 313 313 313 313 314 315 317 317 318 321 320 319 318 317 317 317 316 315 315 314 317 319 319 317 317 316 317
326 324 324 329 330 329 326 321 317 316 314 315 315 315 316 318 315 315 315 315 315 318 320 320 321 320 319 318 318 317 317 316 315 315 314 313 314 317 317 315 315 315 314
327 327 328 330 330 329 325 319 316 316 316 317 321 324 326 324 322 319 318 318 318 319 320 320 320 319 318 318 317 315 315 315 315 313 313 312 312 314 315 313 313 312 311
327 324 329 331 330 325 321 317 317 318 321 324 326 326 327 326 326 325 323 322 322 322 323 321 318 317 316 315 314 311 311 310 311 308 308 311 310 312 313 312 310 309 308
330 330 331 330 326 322 318 318 320 320 325 328 327 327 328 326 326 327 326 325 325 321 319 317 317 315 313 311 310 308 306 306 305 304 303 306 307 308 310 310 308 308 307
329 331 330 326 322 320 320 326 327 326 327 330 330 330 329 328 327 326 324 320 319 317 317 315 313 311 310 308 306 304 303 304 304 304 303 304 304 307 309 308 307 306 306
329 331 330 327 325 324 325 326 328 329 330 331 330 329 329 328 326 325 320 318 317 315 313 312 309 307 305 303 302 302 303 302 302 302 303 302 302 305 306 306 305 305 306
327 327 328 329 326 327 326 327 330 330 329 328 328 327 327 327 325 321 317 315 313 313 311 309 307 305 303 302 302 302 302 301 302 301 301 301 302 306 304 304 304 303 303
327 326 325 326 329 328 329 330 329 328 327 326 324 325 326 325 323 321 318 314 311 309 308 307 305 303 303 302 302 302 301 300 300 301 300 300 303 305 303 303 300 301 301
327 326 328 328 329 328 328 327 326 325 322 321 323 324 322 320 318 314 311 309 308 307 306 305 304 304 303 302 302 301 301 300 301 300 299 298 298 298 298 298 297 298 299
324 326 328 329 328 327 325 323 320 318 318 319 320 318 317 314 312 311 309 308 307 306 305 304 303 302 303 302 301 301 300 301 300 299 299 298 298 297 297 296 296 297 297
325 326 329 328 327 326 322 319 318 318 318 317 316 314 312 313 313 310 308 307 306 306 304 303 303 303 302 301 301 300 301 300 299 299 298 298 297 296 296 296 296 295 295
327 327 329 329 328 324 320 319 321 321 317 315 312 312 313 313 311 309 308 307 306 305 303 303 302 302 301 301 300 299 297 298 299 298 298 298 297 297 296 295 295 295 294
328 328 328 327 327 324 320 321 322 320 315 313 313 313 313 312 310 309 309 308 306 304 303 303 302 301 300 299 299 299 296 296 297 298 298 297 297 296 296 295 294 293 293
329 328 328 327 327 325 322 323 321 316 313 313 314 313 312 312 309 308 307 306 304 304 303 302 301 300 298 298 298 298 299 299 295 294 297 297 296 296 295 294 293 293 291
329 328 328 328 328 327 324 325 322 317 314 314 314 313 313 311 309 307 306 304 304 303 302 301 299 298 297 296 297 297 298 298 298 295 295 294 296 296 295 294 293 293 292
329 329 329 329 328 327 325 328 322 316 315 315 314 313 313 310 308 307 305 304 303 302 300 299 297 296 296 296 296 296 297 298 297 297 295 296 294 295 294 294 293 292 291

GFSSE_925_thetae_057.txt.gz
Theta_e
343 343 340 334 332 329 327 328 332 335 334 332 330 328 322 320 318 315 314 316 323 326 326 326 325 323 319 318 319 323 330 330 327 327 327 332 331 330 328 324 327 331 332
343 342 339 334 332 330 327 327 331 332 331 329 325 320 317 313 311 311 317 322 326 325 324 324 323 319 320 320 319 319 327 329 325 322 322 328 329 329 327 321 321 326 327
343 341 337 335 333 330 327 328 331 332 330 326 320 316 314 310 310 314 318 322 324 324 323 323 322 322 325 325 324 326 329 329 323 320 317 322 326 325 324 319 322 325 326
342 341 338 336 334 330 330 332 334 334 330 323 317 314 312 310 313 316 318 321 321 323 322 322 318 321 328 327 327 328 328 319 314 316 318 320 323 324 321 316 316 316 316
342 340 339 337 333 332 335 335 335 335 327 320 315 312 311 312 315 315 314 312 313 314 315 318 314 316 318 319 322 320 314 314 315 317 320 321 322 324 321 313 314 317 321
340 341 339 335 332 333 335 335 334 328 322 316 314 311 313 315 315 314 311 312 313 313 313 313 315 315 317 317 319 315 314 315 315 316 318 320 323 324 323 317 312 313 321
340 340 337 334 332 335 335 334 327 323 319 317 312 311 313 314 314 311 311 313 313 314 314 317 315 316 317 317 317 318 318 316 315 314 315 317 321 323 322 319 315 314 318
340 338 335 331 331 333 333 329 323 319 317 315 312 312 314 314 312 311 312 313 314 314 314 318 318 316 317 317 316 316 316 317 315 314 315 319 320 322 321 320 317 315 318
336 332 331 331 331 330 328 323 320 316 316 312 311 314 313 313 312 312 313 314 315 315 315 317 320 318 317 317 317 317 316 316 315 314 314 317 320 321 319 319 316 313 315
330 331 331 328 326 327 326 323 317 315 313 311 312 314 313 313 313 313 314 315 316 317 317 320 320 320 319 318 317 316 316 315 315 314 313 316 319 319 318 317 314 311 311
330 328 325 321 321 327 326 320 315 315 312 312 314 314 314 314 314 314 315 315 318 319 320 321 320 319 318 318 317 316 315 315 314 313 312 313 316 317 316 315 314 310 309
325 324 321 323 322 328 325 321 318 315 314 315 315 315 315 315 316 316 316 316 318 319 320 320 319 317 317 316 314 313 312 311 310 309 310 312 314 316 315 314 312 310 306
326 326 325 322 328 329 324 319 317 315 316 316 318 320 322 322 320 320 320 320 319 321 320 319 317 316 315 313 311 309 307 305 304 303 306 309 310 312 313 312 310 309 308
326 326 326 326 328 326 322 318 317 317 318 320 322 324 325 326 325 324 324 324 322 321 318 316 315 312 310 308 306 305 305 304 303 303 303 304 305 309 311 310 309 309 307
327 327 327 329 329 325 320 318 319 319 322 325 326 327 328 326 327 326 325 323 319 316 316 314 312 309 306 303 302 303 302 302 302 302 302 302 302 306 310 309 308 307 306
328 329 328 328 328 323 318 319 320 322 326 329 330 329 329 328 326 325 321 318 316 314 312 310 307 305 302 301 301 301 302 301 301 301 301 301 302 307 308 307 306 305 305
328 330 331 330 326 322 320 323 325 327 329 330 329 329 328 327 325 321 318 316 313 311 309 307 305 303 301 301 300 301 300 299 300 300 301 302 305 306 305 304 303 303 302
329 329 331 326 325 322 322 325 327 329 330 329 328 327 327 324 322 319 316 313 310 308 307 306 304 303 302 301 301 301 301 299 300 299 299 299 302 302 303 299 298 301 302
327 328 330 328 325 326 327 327 329 329 328 327 325 325 325 324 320 319 315 310 308 307 306 305 303 302 302 302 302 301 299 300 299 299 298 298 298 298 298 297 297 297 299
326 326 327 328 326 327 328 328 327 326 324 323 322 323 321 318 315 312 309 308 307 306 305 304 303 302 302 301 301 299 300 300 299 299 298 297 297 297 296 296 296 296 296
326 326 326 327 328 328 326 324 323 321 319 320 320 318 316 313 311 310 309 307 306 306 305 303 302 302 301 300 300 299 300 300 299 299 297 297 297 296 296 296 295 295 295
326 326 327 327 328 326 326 324 320 318 318 317 316 315 313 312 312 309 309 308 307 306 304 303 302 302 301 299 299 298 295 297 298 298 298 297 297 297 296 295 294 293 294
325 324 327 328 328 326 324 320 319 318 317 314 312 312 312 312 311 310 309 307 306 304 303 302 302 301 300 299 298 298 295 294 296 297 297 297 297 296 296 295 294 293 292
325 324 325 327 326 325 323 320 320 321 317 315 312 312 313 312 310 309 308 307 305 304 303 302 300 299 298 297 296 297 298 298 295 294 297 297 296 296 295 295 294 293 292
325 325 325 325 325 324 321 319 321 322 320 316 312 313 313 311 310 308 307 305 304 303 301 300 299 297 296 296 296 296 296 297 297 294 292 295 296 295 295 295 294 293 292
326 326 326 326 327 326 322 321 322 323 318 314 313 313 312 310 308 306 304 303 302 301 300 298 297 296 296 295 295 295 296 297 297 295 291 293 294 295 294 294 293 292 290

GFSSE_925_thetae_063.txt.gz
Theta_e
342 339 332 329 328 333 338 338 337 333 329 329 329 329 325 319 318 319 317 317 320 326 327 329 330 333 334 331 325 324 320 318 323 326 328 327 327 326 321 321 325 325 326
341 339 333 328 327 327 327 328 328 328 329 329 326 321 315 315 318 322 318 318 324 327 323 322 322 325 329 325 321 316 315 315 315 319 324 325 325 324 322 317 323 325 326
340 338 336 329 328 329 329 329 330 330 327 323 317 313 315 322 323 322 317 319 323 321 320 320 319 323 328 324 315 314 315 315 316 317 323 323 324 326 325 325 322 324 324
340 338 338 335 334 334 333 332 329 326 322 317 314 314 321 324 323 321 320 324 330 332 331 326 324 326 327 317 314 315 316 317 317 321 323 323 323 325 325 325 325 325 325
340 338 338 335 336 337 336 335 334 330 324 318 317 318 323 322 321 321 322 324 327 328 328 325 325 326 320 314 315 317 317 317 317 322 323 323 323 323 323 318 322 323 324
339 337 335 334 335 335 335 331 325 321 318 319 316 317 321 320 322 323 322 321 321 320 320 323 323 319 314 315 316 316 315 315 320 321 322 323 323 323 321 320 319 321 322
339 336 334 333 334 335 334 326 321 316 318 320 318 321 318 321 323 324 321 318 318 318 317 318 317 314 315 316 316 315 315 315 320 320 321 322 322 322 319 318 317 317 319
339 335 334 331 333 335 329 322 317 316 312 317 317 319 317 320 321 320 318 315 316 317 317 317 317 317 317 317 316 315 315 315 319 319 320 320 320 320 318 316 315 315 317
337 335 334 334 334 329 321 322 316 313 311 313 316 314 316 317 316 316 318 317 316 316 316 316 316 316 316 316 315 315 315 314 317 318 318 319 320 319 317 315 313 313 314
335 334 333 332 325 323 324 320 321 317 313 316 316 314 315 314 315 315 316 318 319 317 317 317 317 316 316 316 315 315 314 313 315 317 317 318 319 318 316 313 312 311 311
331 331 330 325 322 322 321 321 319 318 315 314 314 313 314 315 315 317 317 318 318 319 318 317 317 316 315 315 314 313 313 312 313 314 315 316 317 317 315 313 311 311 310
327 327 325 325 321 319 318 317 322 317 315 313 313 313 314 315 316 317 318 319 319 317 316 316 314 312 312 310 309 308 307 306 307 312 314 313 315 315 314 312 311 310 309
322 323 322 321 322 321 320 322 317 315 316 314 314 314 315 316 317 317 318 319 318 318 316 314 313 312 310 308 306 305 304 304 304 304 305 306 309 312 313 311 310 309 308
322 321 319 317 316 317 321 320 318 314 315 315 315 315 315 316 318 317 318 318 318 317 315 315 312 309 307 305 303 301 301 301 302 301 301 302 303 310 313 311 310 308 307
322 321 318 317 316 323 326 320 317 314 315 315 315 316 318 318 318 319 319 319 317 315 315 312 310 307 302 301 300 300 299 299 299 300 302 300 302 308 311 309 308 309 307
322 322 321 324 325 328 327 321 317 315 316 316 318 321 323 322 322 322 320 319 315 314 311 309 306 303 300 300 300 300 299 299 299 300 306 306 306 310 308 307 306 306 305
323 322 323 326 327 328 326 320 317 316 317 319 322 324 326 325 325 323 320 315 313 311 309 307 304 301 300 300 300 298 299 299 299 301 303 305 306 307 305 303 303 303 303
324 325 325 325 328 328 326 320 318 317 319 322 324 325 326 326 325 322 317 315 311 308 307 304 302 300 300 302 301 298 299 299 299 299 300 300 301 300 300 298 298 297 297
326 326 326 326 327 329 326 320 319 319 323 327 328 328 327 325 324 320 316 312 309 308 306 304 301 300 303 302 301 300 299 300 299 299 298 298 297 297 297 296 296 296 296
326 326 327 328 329 329 325 320 320 322 325 328 328 327 326 324 320 317 313 312 309 306 305 303 301 300 302 301 301 300 299 299 299 299 298 297 296 296 297 296 297 296 295
326 327 328 329 329 329 324 322 323 326 327 328 326 326 324 320 317 316 313 311 307 306 305 302 301 302 302 300 301 300 300 299 299 299 298 298 297 296 296 296 296 296 295
325 326 327 328 329 326 323 320 323 324 326 326 324 323 319 319 318 315 314 309 306 305 304 302 302 302 302 299 300 299 300 300 299 299 299 298 297 297 296 296 296 295 295
325 325 326 327 329 327 324 323 325 325 324 321 319 319 319 319 316 313 309 307 306 305 304 303 302 302 302 299 297 298 299 298 297 298 298 298 298 298 297 296 295 295 295
325 325 325 326 327 327 324 323 324 323 321 318 318 318 317 314 310 309 308 306 306 305 303 302 301 300 298 299 298 297 297 297 297 297 297 297 297 297 297 296 295 295 294
325 325 325 326 325 325 325 324 324 322 320 319 317 317 314 312 310 308 307 306 305 304 303 302 300 298 297 296 297 297 297 297 297 297 297 297 297 296 296 296 295 294 293
324 325 325 325 324 323 324 324 324 321 319 317 316 314 312 312 311 309 307 306 304 303 301 300 301 298 295 295 295 296 296 296 296 297 297 297 296 295 295 295 294 293 291

GFSSE_925_thetae_066.txt.gz
Theta_e
344 338 338 342 342 342 339 336 335 337 334 337 336 332 328 322 318 316 316 321 326 332 336 336 336 335 332 329 321 317 318 322 322 322 324 326 325 326 324 325 325 325 327
343 338 338 341 342 341 338 337 338 335 338 336 332 327 320 315 312 313 319 321 326 332 333 335 335 332 323 315 314 314 315 316 322 324 323 323 326 326 325 321 323 326 327
342 337 337 339 342 341 339 338 335 335 334 331 326 319 315 309 311 316 322 324 327 331 331 334 334 331 316 314 314 315 315 317 322 323 323 323 324 326 326 326 326 327 326
341 336 336 337 339 339 337 334 333 332 329 323 317 314 311 312 315 321 324 327 330 333 331 333 333 320 314 315 316 316 316 319 322 322 322 322 322 324 323 324 325 325 326
340 336 336 332 333 334 334 332 331 328 321 317 314 313 317 316 319 322 326 331 333 331 332 334 326 315 315 316 317 316 316 320 322 322 322 323 322 321 319 315 321 322 322
341 337 336 331 331 332 332 332 326 319 317 319 320 319 319 319 321 324 328 330 332 332 333 329 320 314 316 317 316 315 317 320 321 321 322 322 321 321 319 318 319 320 321
340 338 336 332 333 334 333 328 320 318 319 320 321 323 322 324 323 323 325 325 328 329 327 323 314 316 317 316 315 315 316 320 320 320 321 321 320 319 317 316 317 318 319
336 337 337 333 334 335 333 328 323 321 319 321 324 325 323 322 321 320 320 320 320 322 320 315 315 316 316 316 315 315 316 319 319 319 319 320 320 319 316 315 315 315 316
334 335 334 334 335 334 331 328 324 322 319 325 323 320 321 320 318 317 318 318 318 317 316 316 317 317 316 315 315 315 314 317 319 318 318 319 319 318 315 313 313 313 313
335 334 334 334 330 325 321 322 323 318 324 323 318 318 318 317 317 316 316 316 316 317 317 316 316 316 316 315 315 314 314 316 316 316 317 317 319 317 314 312 312 312 312
332 333 333 325 321 318 315 315 323 323 323 321 317 317 317 320 319 320 321 317 317 317 317 317 316 316 316 315 314 312 313 314 314 314 315 317 317 317 314 312 312 311 311
327 325 324 322 319 318 320 321 322 324 324 321 320 321 321 321 321 322 320 319 318 317 317 316 315 315 313 313 311 310 309 309 310 311 313 314 315 316 314 312 311 310 310
327 325 324 322 320 317 315 313 317 320 323 322 322 320 322 324 322 323 321 319 317 316 313 312 314 314 313 312 310 308 307 306 306 306 306 306 308 314 314 312 311 309 309
323 323 322 320 319 317 316 315 314 324 323 322 321 322 323 323 324 324 323 321 318 316 315 315 313 312 310 308 307 306 306 305 304 304 305 302 304 311 313 312 311 309 307
322 321 321 320 318 316 314 314 319 322 322 321 321 321 321 323 323 323 322 320 318 316 315 313 312 309 308 307 306 305 304 304 304 305 308 301 302 310 312 310 309 309 307
321 320 319 317 316 316 323 324 321 320 322 321 321 322 323 323 324 323 321 318 315 315 314 312 310 309 307 306 305 304 303 303 305 306 307 307 308 311 309 308 306 307 306
322 321 317 320 322 324 327 324 321 320 320 319 320 324 326 326 324 322 319 316 315 314 312 309 309 308 306 305 304 303 303 303 304 304 304 305 306 308 307 305 303 305 305
320 319 320 324 327 328 328 324 321 321 321 322 325 327 328 327 324 322 319 317 314 312 310 309 309 307 306 305 304 303 303 302 303 302 302 303 303 302 301 301 298 298 297
322 321 323 327 329 330 329 325 323 323 323 325 328 328 328 327 323 321 318 316 313 312 311 309 308 307 306 306 305 305 303 303 303 301 301 301 301 299 299 299 296 296 296
324 325 326 328 329 329 330 326 323 323 324 328 329 328 325 324 322 321 317 314 313 312 311 309 308 307 307 307 305 305 304 303 303 302 301 300 300 299 299 299 298 298 296
325 326 327 328 329 330 330 326 323 324 326 328 329 329 326 324 322 319 317 314 313 312 310 309 308 307 307 306 307 307 305 304 303 302 301 300 300 299 299 298 298 297 297
328 328 328 329 331 331 328 325 323 323 325 327 327 326 324 322 320 318 316 314 313 311 310 308 308 308 308 305 306 305 309 306 304 302 302 300 300 299 299 298 298 297 297
327 328 329 330 330 330 328 325 324 326 327 327 326 325 323 320 319 315 314 314 312 310 309 309 309 308 308 305 304 303 304 307 302 301 300 300 299 299 299 298 298 297 297
327 327 329 330 330 330 328 326 324 325 326 326 326 325 320 318 316 313 313 313 311 310 310 309 308 307 305 304 302 299 299 299 301 301 300 300 299 299 299 298 298 297 297
328 328 327 328 330 330 330 328 327 326 327 327 325 323 319 316 313 313 312 311 310 310 309 308 307 305 301 303 301 299 299 300 299 300 302 300 298 298 298 298 297 297 296
330 330 329 328 328 329 330 329 329 328 329 326 324 321 316 315 312 311 311 310 310 309 309 307 305 302 302 300 299 298 299 299 299 299 299 298 298 297 297 297 296 296 295

GFSSE_925_thetae_072.txt.gz
Theta_e
342 343 344 344 337 335 332 331 330 330 330 329 327 326 326 327 328 328 332 333 334 335 337 335 330 330 326 316 320 323 322 321 321 322 327 327 327 327 326 325 326 327 328
342 344 344 344 339 336 334 332 332 331 330 328 327 327 326 325 326 328 332 333 334 336 335 331 330 328 318 319 321 323 325 325 325 323 323 326 326 326 328 328 326 327 327
331 344 344 344 341 337 335 333 334 334 332 327 327 326 323 322 324 329 332 333 335 334 332 330 328 318 316 318 320 322 323 324 325 325 321 320 323 325 325 326 327 326 327
340 343 344 344 342 340 339 338 339 336 331 328 327 323 320 323 329 333 334 334 333 333 329 329 326 316 316 316 321 322 322 323 324 323 320 319 319 321 323 322 323 324 325
340 343 343 343 342 340 339 338 338 335 330 327 322 319 320 326 331 333 333 334 333 332 329 327 317 316 316 318 321 321 322 322 323 322 320 318 318 319 320 320 320 321 322
339 342 341 342 341 339 338 338 337 333 328 322 320 321 323 326 329 330 331 333 333 330 328 320 317 316 316 317 320 320 319 321 323 321 320 318 317 318 318 318 318 318 319
339 340 339 340 341 339 339 337 335 330 324 322 321 322 325 329 329 330 331 334 333 322 317 317 316 316 316 316 315 318 319 320 322 320 319 317 317 317 316 316 316 317 317
337 338 337 339 339 338 339 336 331 326 323 323 323 325 328 332 333 332 331 332 329 316 316 317 316 316 316 317 314 319 319 320 321 321 319 316 316 316 315 315 315 315 315
335 331 332 327 337 337 336 332 329 324 324 324 325 325 328 331 333 331 331 331 321 315 317 317 316 316 317 317 314 317 317 318 320 320 318 317 316 315 314 314 314 314 315
332 333 329 329 332 332 331 330 330 329 328 326 324 326 327 329 329 330 328 323 316 316 317 317 316 317 317 316 315 315 316 316 319 319 317 317 316 315 313 313 313 313 314
333 331 330 331 329 328 325 326 328 328 328 326 325 324 324 322 323 325 323 318 315 317 317 316 317 318 317 313 311 312 312 313 317 318 311 317 317 315 313 312 312 312 313
325 328 330 328 324 322 321 321 325 328 326 325 322 321 320 323 323 319 318 316 316 317 317 317 318 316 315 315 313 311 310 309 311 313 308 316 317 315 314 312 311 310 310
322 323 326 324 321 320 319 319 315 313 321 322 321 322 320 324 320 317 317 317 316 316 317 317 316 317 316 315 313 310 309 308 309 308 306 309 317 316 314 312 311 310 309
322 319 319 319 318 316 313 314 316 321 323 320 323 321 325 324 321 317 318 316 317 317 317 318 318 317 316 313 309 308 307 307 307 308 309 302 308 316 315 313 311 309 308
322 319 318 319 321 322 322 323 322 322 321 322 323 324 324 323 323 323 322 319 319 318 317 319 318 315 313 310 309 308 307 307 307 311 310 299 302 314 314 311 312 310 308
320 320 319 318 320 320 321 318 315 313 314 315 317 322 324 324 324 323 322 322 320 320 320 319 316 315 313 310 308 307 306 307 307 310 310 308 300 312 312 310 308 308 308
319 318 318 317 317 316 313 313 313 313 315 316 318 323 323 324 325 326 324 323 322 321 320 319 316 315 313 310 308 307 306 306 307 307 309 309 307 304 308 308 307 306 305
318 318 317 316 313 313 313 314 315 319 318 319 321 318 323 324 324 326 324 323 321 321 319 318 316 314 312 309 308 307 306 306 306 305 305 306 308 306 303 302 301 299 298
319 318 317 315 313 314 315 316 318 318 317 323 322 323 323 324 325 326 324 322 320 320 318 317 316 314 311 310 310 309 308 307 306 306 305 304 304 302 303 301 300 300 300
319 319 318 317 317 317 317 318 321 321 323 323 322 325 324 326 328 326 324 322 321 320 318 316 316 314 311 311 310 309 309 308 307 307 306 304 304 303 302 302 301 301 300
321 320 318 319 318 320 322 323 324 324 322 323 324 325 326 326 327 327 325 325 321 319 317 316 316 312 311 311 311 311 311 309 308 307 307 306 305 304 303 302 301 301 300
321 320 319 321 326 327 326 326 324 323 323 323 324 327 327 328 328 327 326 324 322 320 318 317 314 312 312 311 311 312 311 310 309 308 307 306 306 304 303 302 301 301 301
323 323 324 326 328 328 327 327 324 322 322 322 327 328 327 328 327 327 325 323 321 320 319 316 314 313 313 312 310 310 309 310 307 308 308 306 306 303 302 303 302 302 301
323 323 325 327 329 328 328 326 324 323 323 324 327 329 327 327 327 326 325 324 321 320 320 316 314 312 313 312 310 309 307 306 306 305 307 306 303 303 303 302 302 302 301
327 328 328 327 327 327 327 328 325 324 323 323 324 329 327 326 326 325 325 323 321 320 319 316 314 312 314 312 309 307 306 305 305 305 303 304 304 304 302 302 301 301 300
328 329 330 330 329 328 329 326 328 325 326 326 328 328 327 326 325 324 323 321 320 320 318 316 314 313 312 308 307 307 304 305 306 306 303 303 302 301 301 300 299 299 299

GFSSE_925_thetae_078.txt.gz
Theta_e
345 343 338 333 327 327 330 331 332 330 327 327 327 329 329 333 333 333 331 331 332 330 329 331 329 330 330 329 327 325 325 326 326 327 329 328 327 327 326 326 326 327 328
342 342 337 336 339 333 330 329 330 328 327 324 323 323 326 327 330 333 332 331 330 328 330 331 331 331 330 329 325 327 321 318 322 325 326 325 325 326 327 325 325 325 326
335 339 336 334 338 338 331 330 329 328 325 323 321 322 324 330 332 333 329 329 328 328 329 331 330 330 330 329 329 327 323 317 314 319 323 323 323 324 324 324 325 325 326
333 336 338 335 335 338 335 330 329 327 325 323 320 323 330 331 333 331 325 324 323 325 328 329 329 325 322 320 324 322 320 316 311 312 317 320 321 322 323 323 325 325 327
335 332 337 334 327 331 335 330 329 327 325 322 322 329 333 333 332 325 321 319 319 322 326 327 322 321 319 319 321 320 319 310 308 310 315 318 319 320 320 320 323 322 321
326 331 335 332 333 335 332 330 328 327 324 320 324 333 333 332 329 322 321 319 318 319 322 320 320 319 319 322 321 321 312 311 308 310 316 318 318 319 319 319 319 318 318
327 329 335 336 333 334 334 332 329 328 323 321 330 333 333 331 325 321 320 318 317 315 315 318 319 318 318 321 321 320 317 315 308 311 315 317 317 317 317 318 317 317 317
335 328 331 330 331 334 337 332 330 326 323 323 333 334 333 330 324 321 320 318 315 316 315 314 314 317 316 319 321 320 320 314 309 311 315 316 317 317 317 317 316 315 315
335 334 327 330 328 328 335 333 327 326 323 323 331 333 333 330 325 321 319 316 315 316 316 315 312 316 316 313 317 320 320 316 311 310 313 316 316 316 316 316 315 314 313
332 330 332 327 326 327 336 332 328 330 329 329 330 332 333 331 326 318 317 317 316 316 317 316 313 316 313 312 315 320 319 316 312 311 311 315 316 315 315 315 314 314 313
330 329 330 327 326 326 331 331 328 331 329 330 331 331 334 332 327 317 317 317 316 317 318 317 313 314 312 310 314 319 318 314 312 310 312 315 315 314 314 314 314 313 312
329 328 329 328 324 324 324 323 321 329 333 333 333 332 332 332 327 317 317 317 316 318 318 315 313 312 311 310 309 315 314 312 309 311 312 315 315 314 313 312 312 312 312
329 328 327 326 325 325 324 321 320 329 332 332 333 332 332 331 325 317 317 317 316 317 317 316 316 315 312 309 308 309 310 309 309 309 312 314 316 314 313 312 311 310 309
326 326 326 326 325 323 320 318 317 327 330 332 332 331 331 328 320 316 317 316 317 318 316 316 317 315 313 309 308 307 307 307 307 308 311 313 315 315 314 312 311 310 309
321 323 325 325 324 323 321 317 319 324 323 325 327 327 325 322 318 316 316 316 317 318 316 317 317 315 312 308 306 306 307 308 309 308 305 306 314 315 314 313 311 310 308
321 321 322 323 323 321 321 321 321 318 320 319 322 320 320 319 316 316 316 316 317 317 317 318 318 316 312 308 307 306 307 308 308 309 307 303 310 315 314 313 310 311 308
320 320 319 320 320 319 317 317 318 323 321 322 323 320 317 316 316 316 316 317 318 317 317 318 318 315 312 309 307 306 307 307 307 308 308 305 306 314 312 309 307 304 302
319 319 319 319 318 317 317 319 322 323 324 324 323 324 322 319 317 317 317 317 319 318 318 319 318 314 312 310 308 306 306 306 306 306 307 307 306 309 311 307 303 301 300
319 319 319 319 318 316 315 319 321 323 324 323 323 323 323 323 321 322 322 320 320 320 319 319 318 315 313 310 308 306 306 306 306 305 306 305 306 306 305 303 302 300 301
319 319 317 318 316 315 317 319 320 321 321 318 319 321 323 324 324 324 325 322 322 321 320 319 318 315 313 311 308 307 307 306 306 306 305 305 304 304 303 303 302 302 301
318 318 318 317 317 317 317 316 316 314 313 314 315 317 316 320 323 323 324 324 322 321 321 319 317 316 315 311 309 308 307 307 307 306 306 305 304 305 304 303 303 302 302
317 317 317 317 318 317 319 317 315 314 312 313 313 314 315 318 319 322 323 325 323 322 320 319 318 317 315 312 310 309 307 309 308 307 306 305 304 304 304 303 303 302 302
317 317 316 316 317 315 315 314 314 313 313 313 313 313 316 321 322 322 323 323 325 323 321 319 319 317 315 312 310 310 306 307 306 308 308 307 307 306 305 304 303 302 302
318 318 317 315 314 314 313 315 316 317 317 317 317 317 318 322 322 322 323 323 325 325 323 320 319 317 316 312 310 310 310 308 304 305 306 307 307 307 306 305 304 303 302
319 318 317 316 315 315 315 316 317 319 320 320 321 321 323 325 324 324 324 324 325 325 325 324 320 317 316 315 312 310 308 305 305 304 304 305 305 306 305 304 303 302 302
319 318 317 316 316 316 317 317 320 319 321 322 322 321 322 323 324 325 325 325 325 325 325 322 321 319 317 316 313 311 307 307 305 305 303 303 303 304 304 302 301 300 300

GFSSE_925_thetae_081.txt.gz
Theta_e
341 341 338 338 340 340 340 332 330 335 336 338 336 331 330 332 334 334 334 332 329 330 331 331 331 330 329 328 328 329 328 327 327 327 327 326 326 326 326 326 326 327 328
342 342 337 335 334 336 337 339 329 326 326 332 329 328 331 333 333 333 331 326 330 332 332 332 331 330 328 326 324 322 323 324 325 326 326 326 326 325 326 325 324 325 325
343 341 336 334 332 333 333 334 338 334 325 323 325 332 333 333 332 328 325 330 331 331 332 331 331 331 329 329 322 319 322 323 323 323 323 323 324 326 325 326 327 327 326
341 339 338 332 329 328 331 330 334 336 337 336 335 333 333 331 328 326 328 330 331 331 332 331 330 329 326 324 321 315 313 315 318 319 321 322 323 323 324 324 325 325 326
336 338 341 335 329 327 326 330 331 329 329 333 334 333 333 331 329 326 326 330 331 331 331 328 324 321 324 321 318 310 310 312 314 316 319 320 320 321 323 321 321 320 320
333 335 338 336 328 327 327 327 333 331 327 324 330 333 334 330 326 323 326 329 330 330 327 324 319 319 321 319 312 310 311 312 313 316 318 319 319 320 319 319 318 318 318
333 333 335 336 333 326 329 329 331 326 328 330 326 333 333 326 323 323 324 325 327 326 321 317 320 321 320 318 314 313 308 309 312 315 317 318 319 319 318 317 317 317 316
326 327 332 335 333 330 331 332 332 330 327 327 332 334 331 324 322 319 318 320 321 318 316 317 319 321 321 319 318 312 311 310 312 315 316 317 318 318 317 316 315 315 315
332 329 331 331 331 331 333 333 329 326 326 331 332 333 328 324 321 317 315 315 316 315 315 316 315 319 321 320 320 316 312 310 309 313 316 317 318 318 316 315 314 314 313
333 328 324 326 328 330 330 332 328 325 334 328 332 332 325 324 320 316 315 315 315 313 314 315 313 314 317 320 320 317 313 312 309 312 316 316 317 317 316 315 314 313 312
330 327 326 328 328 328 327 326 329 327 332 332 333 330 326 325 320 316 316 316 316 314 314 312 312 313 315 319 319 317 313 310 309 311 315 316 316 316 315 314 313 312 312
329 329 329 329 325 325 325 328 328 326 332 334 333 331 327 324 319 316 316 317 317 315 313 312 311 311 313 317 318 314 311 309 309 312 314 315 315 315 314 314 313 312 311
328 328 326 325 325 324 325 325 325 323 324 332 332 331 327 323 320 317 316 317 317 314 312 312 312 310 309 312 315 312 310 309 310 312 313 315 315 314 313 312 312 311 310
327 327 326 324 324 323 322 322 318 325 330 331 332 331 328 322 320 317 316 317 318 316 316 316 315 311 309 308 310 309 308 308 311 312 313 314 315 315 314 312 311 310 309
326 326 325 324 323 322 320 317 317 323 326 327 325 329 327 320 318 317 316 317 318 317 317 317 315 314 310 308 307 307 307 308 310 312 312 313 314 315 314 313 311 310 308
323 325 325 323 321 320 320 320 318 320 321 323 324 324 326 319 317 317 316 317 317 317 318 318 317 315 308 306 306 306 307 308 307 307 307 312 313 314 315 313 313 311 308
321 323 324 323 322 320 319 320 322 324 325 323 323 323 326 319 316 317 316 317 317 317 318 318 316 312 309 307 306 306 307 308 308 307 305 306 313 314 314 311 310 310 308
320 320 321 322 322 321 320 321 323 322 323 324 324 326 323 318 316 316 316 316 317 317 318 318 317 313 310 308 306 306 306 307 307 307 307 306 306 314 312 310 306 302 300
320 319 320 319 319 319 320 321 322 321 319 322 321 320 319 316 316 316 316 317 317 317 318 318 317 315 312 309 307 306 306 306 306 306 306 306 306 308 311 310 304 302 301
319 319 319 319 318 317 320 320 323 322 321 323 322 318 316 316 316 316 316 317 318 318 317 318 318 316 314 311 308 306 306 306 306 306 306 306 306 306 306 305 303 302 302
318 319 319 319 318 317 318 321 322 322 323 324 324 324 324 322 321 321 321 319 320 320 320 319 318 317 315 312 308 307 306 306 306 306 305 305 305 305 304 304 303 302 302
318 317 317 317 316 316 317 319 320 321 321 321 321 321 322 321 322 323 324 324 323 322 321 320 319 316 315 313 309 307 306 307 306 306 305 305 305 304 304 304 303 303 303
317 317 317 316 315 315 315 315 315 317 318 315 315 318 317 318 320 321 323 323 324 324 321 320 319 318 317 314 311 310 306 307 307 308 307 306 305 304 303 304 304 304 303
316 316 317 318 316 316 316 316 316 315 316 313 313 314 314 314 316 320 321 321 322 323 323 321 320 318 317 315 311 309 309 309 307 307 306 306 306 305 305 305 304 304 303
317 316 317 317 318 317 317 317 316 316 316 314 313 313 314 313 313 318 321 322 323 323 323 323 321 318 318 316 313 310 309 305 305 305 306 304 305 305 306 306 305 304 303
317 317 317 316 316 317 316 316 316 315 315 315 315 314 314 316 315 319 321 323 323 323 323 324 324 322 319 317 315 314 312 308 306 307 305 305 305 307 306 306 305 301 301

GFSSE_925_thetae_084.txt.gz
Theta_e
340 341 338 339 338 339 342 342 339 337 335 332 330 331 330 334 335 336 334 334 334 333 333 332 331 330 330 330 330 329 326 326 326 326 327 327 327 327 327 327 327 328 329
342 341 337 338 339 334 337 341 338 337 334 331 332 330 335 335 335 334 333 331 330 331 331 330 330 329 328 328 328 327 326 326 326 326 325 325 326 325 325 325 325 325 325
342 341 336 338 339 335 334 341 339 337 334 334 331 330 334 333 333 332 331 332 332 331 331 330 329 327 327 326 326 325 324 324 324 324 324 324 326 329 328 325 324 325 324
341 342 338 334 335 334 331 338 339 338 336 333 329 330 331 334 331 331 333 332 331 331 331 331 331 329 325 324 324 323 322 320 321 322 322 324 324 326 325 325 325 324 323
341 341 340 337 336 334 330 329 337 338 336 334 328 324 329 331 330 332 332 331 330 331 331 332 330 328 320 312 316 318 317 318 320 321 321 322 322 322 322 321 321 320 319
338 337 339 337 338 337 332 328 327 327 326 326 328 326 329 330 331 332 331 331 331 330 329 329 329 322 316 309 308 311 314 315 317 318 320 320 320 320 319 319 318 318 317
334 333 332 335 335 337 337 337 335 332 333 332 332 331 330 330 331 331 330 330 329 327 325 324 323 319 311 310 307 309 313 314 316 318 320 319 320 319 319 318 317 317 316
332 330 331 333 332 334 335 336 335 333 334 334 330 328 328 329 330 331 330 329 326 319 320 320 320 317 314 309 310 311 313 313 315 318 319 319 319 318 317 316 316 315 315
329 328 328 329 333 331 331 331 334 333 331 334 333 329 325 326 329 330 329 325 318 318 320 321 320 317 317 312 312 310 311 313 314 317 318 319 318 317 316 316 315 314 313
329 328 327 329 330 332 330 332 329 330 329 334 332 328 321 325 327 327 325 318 317 317 320 321 320 319 318 315 312 312 310 311 314 317 318 318 318 317 316 315 314 313 313
332 329 327 326 325 329 329 329 330 329 330 333 333 325 321 324 324 322 317 315 316 314 315 319 320 320 318 316 314 312 309 311 313 316 317 317 318 317 316 315 314 313 312
329 326 327 327 327 328 328 330 330 326 325 327 331 328 321 322 319 316 315 313 314 313 313 315 317 319 319 317 314 311 309 310 312 314 316 317 317 317 315 314 313 312 311
329 328 327 327 328 324 324 327 328 325 324 330 331 327 323 320 317 317 316 314 313 313 312 314 315 317 316 316 313 310 309 310 311 314 315 316 316 316 315 314 313 312 311
328 328 327 327 324 325 324 327 326 326 326 328 327 324 324 320 317 316 316 313 313 313 311 312 311 313 313 314 312 310 309 310 311 313 314 315 315 315 314 313 312 311 310
327 327 326 325 322 323 324 324 326 327 327 326 327 324 322 318 316 316 317 313 312 313 312 310 309 309 310 312 310 308 308 310 311 312 313 314 315 315 314 313 311 310 309
325 326 325 324 322 322 323 322 322 323 325 324 324 323 321 318 317 316 317 316 315 316 316 314 315 313 309 308 308 308 308 309 311 313 313 314 314 315 314 313 312 310 309
323 325 323 322 321 320 320 320 320 319 317 323 323 322 319 318 317 316 317 317 316 317 316 315 313 310 307 306 306 306 307 308 308 310 311 313 314 314 314 313 314 311 310
322 322 323 321 320 320 319 319 320 322 322 322 320 321 322 317 317 316 316 317 315 317 316 316 315 310 308 307 306 306 307 307 307 305 305 310 313 314 314 311 308 306 304
320 321 322 321 320 320 320 319 320 322 322 321 321 320 321 318 317 317 316 317 316 317 316 317 316 314 310 307 306 306 306 306 307 306 306 305 308 311 311 311 309 303 301
320 321 321 321 320 319 320 321 319 322 323 320 319 321 322 320 316 316 316 316 316 316 317 317 317 314 312 311 307 306 306 306 306 306 306 306 306 307 310 311 309 304 301
319 320 320 319 318 319 320 321 321 320 320 318 317 317 321 320 316 316 316 316 316 316 317 317 317 316 313 311 309 306 305 305 306 306 306 306 306 306 307 308 306 303 302
318 319 319 318 318 319 319 320 321 319 320 322 320 319 320 317 316 316 316 316 317 318 318 317 318 316 315 314 309 306 306 306 306 306 305 305 306 306 305 305 304 303 303
318 318 318 318 317 318 320 322 320 319 320 322 321 316 319 318 319 320 321 322 322 320 320 320 319 318 317 314 311 310 306 307 306 307 306 305 305 305 305 305 304 304 303
318 317 318 318 317 316 318 320 318 319 319 319 317 320 321 322 322 321 323 322 323 323 323 323 321 320 318 315 310 310 309 309 309 308 307 307 306 305 305 303 303 303 303
317 316 317 317 317 316 316 316 316 318 318 316 318 315 316 315 315 316 317 318 320 321 322 323 322 320 318 317 315 312 308 308 307 307 309 304 304 307 306 305 306 307 305
316 316 316 317 316 315 315 316 315 315 316 316 316 313 313 314 315 314 313 315 320 321 321 322 322 321 320 318 317 316 313 309 306 306 306 307 307 306 305 306 306 306 306

GFSSE_925_thetae_087.txt.gz
Theta_e
341 341 339 337 337 341 344 343 337 335 333 333 334 331 324 326 330 333 334 335 336 336 335 334 332 331 331 330 330 328 328 328 328 329 330 331 329 329 328 328 331 332 332
341 342 334 336 337 341 344 342 339 336 333 335 333 329 321 326 335 334 335 335 335 334 333 332 331 331 331 330 328 326 326 326 326 326 326 327 328 327 326 326 327 329 329
341 341 338 338 338 342 344 342 339 336 334 334 332 333 324 331 335 334 334 334 333 332 331 330 330 329 330 329 328 327 326 325 325 326 326 327 328 328 327 325 325 325 325
341 341 341 337 336 340 343 342 340 338 334 333 336 335 332 333 333 332 331 332 331 331 330 329 328 327 327 327 326 325 324 324 324 325 327 328 327 328 326 326 325 324 324
337 341 340 338 337 338 343 343 341 340 336 337 335 331 329 332 333 331 332 331 330 331 330 329 327 325 324 320 319 321 322 322 323 324 324 324 324 325 323 322 321 320 321
334 342 341 337 336 336 342 343 341 339 338 336 334 331 332 331 332 330 331 330 329 329 332 330 323 310 310 309 314 318 320 321 321 322 322 321 321 322 320 319 319 319 318
334 338 339 336 335 335 340 341 341 338 335 331 332 330 332 332 330 329 330 330 331 331 330 328 315 310 308 310 312 314 315 317 319 320 320 320 320 320 319 319 318 317 317
333 334 333 332 330 334 333 339 340 339 333 329 329 332 332 331 328 329 330 331 329 328 329 321 312 309 308 309 311 313 316 318 319 319 319 319 319 319 318 317 317 316 316
330 331 331 330 331 325 333 332 334 336 331 331 331 332 331 328 328 329 330 328 325 326 324 319 313 309 311 309 310 312 314 317 318 319 318 318 318 318 317 317 316 315 314
328 328 328 329 332 327 332 333 330 329 334 332 330 332 331 329 329 329 328 325 320 322 322 317 315 312 312 311 311 311 313 316 318 318 318 318 318 318 317 316 315 314 314
331 329 328 328 330 331 329 330 331 332 334 334 333 331 330 331 330 328 326 318 320 322 320 317 315 314 312 312 311 311 314 316 318 318 318 318 318 317 316 315 315 314 313
330 330 328 326 325 326 329 328 330 334 334 333 332 330 330 330 328 326 319 318 320 321 320 318 317 315 315 316 313 312 315 316 317 318 318 318 318 317 316 315 314 313 312
330 329 327 326 326 328 328 329 331 331 333 331 331 330 328 327 325 320 317 316 317 321 322 320 317 318 317 316 313 311 314 315 316 317 317 317 318 317 315 314 313 312 311
328 329 327 327 327 325 325 326 328 328 330 330 327 328 325 323 321 319 316 315 314 320 323 322 319 317 315 312 309 309 313 315 315 316 316 317 317 317 315 314 312 312 311
327 328 326 326 326 324 324 325 326 328 328 329 328 326 323 320 317 314 314 313 313 314 316 318 317 317 314 312 309 309 311 314 315 315 315 316 316 315 315 314 312 311 310
325 326 326 325 324 324 323 326 326 326 328 326 326 323 321 319 315 314 313 312 312 313 314 315 313 314 313 311 309 309 311 314 314 315 315 315 315 315 314 314 312 311 310
323 325 324 324 323 323 322 326 326 327 326 323 326 323 318 316 316 315 312 312 312 310 309 310 310 312 311 310 309 309 309 309 312 312 315 315 314 314 314 314 313 311 310
322 323 323 322 322 321 324 323 325 325 324 324 324 322 316 316 316 316 312 313 315 313 312 313 311 310 309 308 308 308 307 308 309 311 314 315 315 315 314 314 314 312 311
321 322 322 322 320 320 321 322 322 322 322 320 324 321 317 316 316 317 316 315 315 314 314 314 310 308 307 306 306 306 307 307 307 307 308 310 314 315 315 314 311 308 304
321 322 321 320 320 320 319 321 320 320 320 321 322 321 318 317 316 316 317 316 316 316 315 316 312 309 309 308 306 306 307 307 307 307 306 305 311 313 315 314 312 310 303
320 320 321 320 320 319 319 320 321 321 320 318 317 316 321 319 317 316 316 316 315 316 317 317 314 312 310 308 307 307 306 305 306 306 306 306 306 307 313 313 312 311 307
319 319 319 320 320 320 320 319 319 320 322 321 320 318 318 319 317 317 316 316 316 316 317 317 316 315 314 310 311 310 314 310 306 306 306 306 306 307 307 308 309 310 307
319 319 318 319 319 319 320 320 318 319 321 318 317 319 318 317 316 316 316 316 316 316 316 316 317 317 317 314 311 315 314 317 312 309 307 305 305 305 306 306 307 307 306
319 319 318 318 318 319 319 320 318 318 320 319 316 317 319 316 316 317 316 316 316 316 317 317 319 317 317 316 311 311 313 313 318 317 308 308 306 305 305 305 305 307 305
319 318 319 318 317 318 320 319 319 318 318 320 319 319 319 319 317 316 316 317 320 320 320 321 320 320 320 318 316 313 311 310 310 313 317 311 307 307 307 306 306 309 303
318 318 317 317 317 317 319 319 319 320 319 319 319 318 318 319 321 321 321 321 322 322 322 322 322 322 321 319 317 316 315 315 312 311 312 312 310 309 309 309 309 306 305

GFSSE_925_thetae_090.txt.gz
Theta_e
345 343 340 339 341 342 343 339 336 333 333 335 335 332 328 335 332 335 333 334 335 335 337 336 333 333 334 334 331 331 331 331 332 332 333 333 333 333 333 332 334 334 333
344 344 340 340 340 342 345 340 337 334 334 335 334 331 327 337 334 335 335 335 336 335 335 334 332 330 331 331 329 329 328 328 329 329 329 330 330 331 331 331 331 331 330
343 344 342 338 340 343 345 342 337 332 334 335 334 331 330 336 336 332 335 335 335 335 334 332 332 331 331 327 326 326 326 325 325 325 327 327 328 329 328 327 327 328 328
340 344 343 339 339 335 337 343 339 334 337 336 332 329 332 335 337 336 335 334 333 332 331 331 332 330 329 327 326 325 326 326 328 328 327 328 328 327 327 326 326 325 325
335 344 343 341 339 336 326 344 340 341 340 337 332 333 334 336 335 335 334 332 330 330 329 329 329 329 327 326 326 324 324 325 326 326 327 326 325 325 324 322 323 323 322
335 339 343 342 337 335 338 342 340 340 340 336 333 334 335 336 335 332 331 330 329 329 330 329 327 326 323 322 323 323 324 323 324 324 324 323 323 321 321 321 321 320 320
335 338 338 339 335 334 334 337 339 340 339 337 336 335 335 333 333 331 330 329 330 329 328 326 321 312 314 318 320 321 321 321 321 321 321 322 321 321 320 319 319 319 318
336 338 336 337 335 328 323 329 339 340 339 337 335 334 334 333 332 330 329 329 332 329 323 314 308 308 310 313 318 319 319 319 320 321 321 321 320 320 319 318 318 317 317
335 335 334 335 336 330 326 326 326 340 339 337 335 334 335 334 330 330 331 331 331 327 315 311 307 307 309 312 315 316 319 320 320 320 320 319 320 319 318 317 317 316 316
333 334 334 334 332 330 329 327 332 337 336 337 333 334 333 331 330 332 331 329 328 324 314 310 310 308 311 313 315 317 318 319 319 319 319 319 319 319 318 317 316 315 315
333 332 330 331 331 327 328 331 330 335 334 334 333 334 332 332 331 331 330 326 325 320 315 311 312 311 311 312 314 314 318 319 319 318 318 318 319 318 317 316 316 315 314
334 333 330 331 332 331 328 330 330 329 334 334 334 333 332 332 330 329 327 323 322 320 315 313 313 312 315 315 315 316 317 318 319 319 318 319 319 318 317 316 315 314 314
332 332 330 328 329 329 330 330 330 328 331 332 332 331 332 331 329 326 326 327 325 321 320 317 316 318 318 316 315 316 317 318 318 318 318 318 318 318 316 315 314 314 313
331 332 328 327 327 327 326 329 330 329 328 327 326 328 329 329 327 324 325 326 325 323 322 321 319 320 319 317 316 317 317 317 318 318 318 317 318 317 316 315 314 313 312
329 330 328 327 326 325 326 327 328 329 329 327 326 326 328 328 325 323 323 325 324 324 323 322 322 321 319 316 316 316 317 317 317 317 317 318 317 317 316 315 314 313 311
328 327 327 327 326 324 324 324 325 328 330 328 327 327 326 325 323 322 322 322 324 325 324 322 321 320 317 316 316 316 316 316 316 317 317 316 317 316 316 315 314 312 311
326 325 326 325 325 324 324 324 325 325 329 328 326 325 324 323 322 320 319 319 319 320 321 320 320 317 317 316 315 315 315 316 316 317 317 317 315 315 315 314 314 313 311
324 324 323 324 323 323 323 324 325 327 328 327 325 322 321 321 320 318 317 316 316 317 317 317 317 316 316 315 315 314 314 316 316 316 316 317 316 316 314 314 313 313 312
323 323 322 323 322 323 323 325 326 325 325 324 323 320 318 316 315 315 317 315 312 312 313 314 316 316 314 314 313 313 313 313 315 315 315 316 317 316 316 314 313 313 311
322 322 322 321 321 322 323 323 323 322 321 322 322 319 317 314 314 313 315 313 312 313 316 315 314 314 314 313 311 311 312 311 311 311 313 314 315 316 316 317 315 314 311
321 321 321 321 320 322 322 322 322 322 321 322 321 320 317 316 316 314 313 315 316 317 318 317 316 315 313 312 310 311 311 311 312 312 311 311 311 314 316 316 316 313 312
322 320 321 323 321 322 321 321 321 321 321 322 321 320 319 316 317 318 318 319 319 318 318 318 316 316 316 313 316 318 320 316 313 312 312 312 312 311 312 314 315 314 312
323 322 320 321 321 322 322 320 320 319 319 319 320 319 319 315 319 320 320 319 319 320 320 319 319 320 320 318 316 320 323 323 321 317 313 312 311 311 310 312 314 312 311
323 322 322 320 320 321 320 320 320 320 321 319 319 318 320 321 321 320 320 320 320 318 319 321 321 321 321 322 319 317 318 320 323 323 317 314 312 309 309 308 309 311 310
322 323 322 321 320 320 321 320 319 319 322 320 320 318 319 318 317 318 320 320 320 320 320 321 321 321 321 322 322 321 318 319 319 321 323 320 314 312 309 308 308 309 308
321 322 322 321 320 319 320 320 319 318 320 320 319 319 318 317 317 317 319 321 321 321 321 322 323 323 323 323 323 322 321 321 320 320 321 320 321 319 313 310 310 310 308

GFSSE_925_thetae_093.txt.gz
Theta_e
343 347 342 338 342 345 342 342 338 335 334 335 334 329 338 338 339 336 335 335 335 336 338 338 338 338 337 335 332 333 334 334 334 334 335 336 336 336 334 334 334 336 334
343 346 344 338 340 344 344 341 342 337 336 337 334 330 336 338 336 333 333 335 337 337 336 335 336 335 335 332 331 332 332 332 332 332 332 333 334 334 332 332 332 332 332
340 344 345 340 339 342 344 341 341 342 340 340 335 331 336 336 334 335 335 336 336 336 335 333 333 333 332 329 329 329 329 328 327 327 330 331 331 331 329 329 329 329 329
337 344 345 343 339 340 342 341 340 341 339 340 336 333 336 335 334 336 336 335 333 334 334 333 332 332 330 328 327 326 325 327 328 329 327 327 328 329 328 327 327 327 327
336 340 345 344 339 338 339 340 332 337 339 340 337 336 337 336 335 337 335 334 332 332 333 333 332 330 327 326 325 325 328 327 329 328 327 327 326 326 325 325 325 324 323
334 336 343 343 340 337 338 334 334 337 337 339 337 336 337 336 336 335 334 331 331 331 331 332 330 327 326 325 325 328 327 327 327 327 326 324 324 325 324 323 322 322 322
337 335 341 342 342 338 337 334 335 337 337 339 335 336 336 336 335 334 331 329 330 330 329 329 327 326 326 324 323 322 323 323 324 323 323 322 322 323 321 321 321 320 320
338 338 339 339 338 337 337 331 327 323 337 337 334 335 336 336 334 332 329 330 330 328 326 324 319 320 322 322 321 322 321 321 322 322 322 321 322 321 320 319 319 319 318
337 337 338 339 339 335 334 326 324 322 327 334 334 337 335 334 332 329 330 330 326 318 312 308 312 316 318 319 319 320 320 321 322 322 321 321 320 320 319 318 318 318 317
336 336 337 337 338 338 334 329 326 326 325 334 333 336 335 333 330 331 332 330 325 313 307 307 310 313 315 317 315 320 320 321 321 320 320 320 320 319 318 318 317 317 316
336 335 335 335 337 334 332 329 326 325 324 328 333 336 334 333 332 331 333 330 320 312 308 307 308 310 312 313 317 319 320 320 320 320 319 319 319 319 318 317 316 316 316
337 335 333 334 335 335 329 329 328 327 324 325 335 335 333 333 332 332 332 329 317 311 310 309 310 310 314 316 317 318 321 320 320 319 319 319 319 319 318 317 316 315 315
334 335 333 332 332 333 331 330 327 324 326 330 335 332 332 333 331 331 330 327 321 313 318 316 312 317 316 315 318 319 320 320 320 319 319 319 319 318 317 316 316 315 314
332 334 333 331 331 331 331 331 329 327 327 332 333 332 331 332 330 330 329 327 322 321 320 319 319 320 319 317 319 319 319 319 320 319 319 318 318 318 317 316 315 314 314
330 330 332 330 330 330 331 328 330 329 325 332 332 331 331 330 330 328 328 327 324 323 322 320 322 321 320 318 319 319 319 319 320 319 318 317 318 318 317 316 315 314 313
329 330 329 328 327 327 329 326 328 330 328 325 326 327 328 329 327 328 328 326 325 324 323 322 323 322 319 318 318 318 318 319 319 319 319 318 317 317 317 317 315 314 313
328 328 326 326 325 326 327 325 327 327 328 326 323 324 326 326 325 326 327 326 325 325 324 324 323 320 318 317 318 318 318 318 319 320 319 318 317 317 317 316 315 314 313
328 327 324 324 324 324 324 324 324 325 327 328 326 324 326 325 324 324 325 326 326 325 324 323 321 319 318 317 317 317 317 318 318 319 319 319 317 316 315 315 314 314 313
327 326 325 323 323 324 323 324 325 325 326 327 325 326 325 324 323 323 322 322 323 323 322 321 319 318 318 317 317 317 317 317 318 318 318 319 319 318 317 315 314 313 313
326 324 323 323 324 323 324 325 325 326 325 325 324 324 323 323 322 321 320 319 319 318 317 317 318 318 317 316 315 315 315 315 316 317 317 318 318 318 318 318 315 314 313
325 325 325 322 323 323 323 322 323 323 324 323 322 321 321 320 319 319 319 317 316 316 315 316 317 317 317 316 314 314 315 315 314 314 314 316 316 317 318 318 319 317 315
324 324 325 325 323 324 324 324 321 321 322 321 320 319 319 318 317 317 317 316 316 317 316 317 318 318 318 315 315 318 321 317 315 315 315 314 314 314 316 318 318 318 316
324 324 324 325 324 324 322 322 321 321 320 319 318 316 315 316 317 315 314 316 318 318 320 321 320 319 320 317 317 321 324 324 321 317 316 316 316 315 315 314 316 317 317
326 325 323 324 323 324 324 323 321 321 321 320 320 319 320 319 319 319 319 319 319 321 322 320 320 319 322 322 321 320 321 322 324 324 320 318 317 316 315 314 313 315 316
325 326 324 323 322 323 323 323 323 321 320 321 320 320 320 317 315 317 317 321 321 321 321 319 321 323 323 323 323 323 321 321 321 322 323 321 320 318 316 314 314 313 313
325 324 325 323 322 322 323 323 323 320 320 320 320 319 319 318 316 317 320 321 322 322 322 322 322 322 323 323 324 323 323 322 321 322 324 322 322 320 318 315 313 312 311

GFSSE_925_thetae_096.txt.gz
Theta_e
348 344 341 339 344 343 342 343 343 335 333 337 336 332 333 334 335 334 333 331 334 335 338 338 337 339 338 335 335 335 335 335 336 336 336 337 337 336 335 334 334 334 334
343 347 342 339 341 344 342 342 342 341 340 340 334 333 335 332 333 333 332 334 335 337 339 338 338 337 335 333 334 334 334 334 334 334 335 335 335 334 333 333 333 332 332
340 345 345 341 338 343 344 342 342 341 340 338 336 337 338 334 333 332 335 336 336 337 338 337 336 335 332 331 332 332 332 331 331 331 331 331 332 332 331 331 330 330 331
336 343 347 343 338 341 344 343 342 341 340 338 336 337 338 335 333 334 336 336 335 335 336 335 335 333 330 330 330 328 327 329 331 329 329 329 330 330 329 329 329 328 327
336 339 344 345 341 338 341 342 341 340 338 339 337 336 336 334 333 335 336 335 334 333 333 333 333 330 328 327 325 327 328 328 327 326 326 326 326 327 327 327 326 326 325
334 336 342 343 342 339 338 339 338 335 336 338 337 335 336 334 336 336 335 333 333 333 332 332 330 327 326 324 327 327 329 328 326 325 323 324 325 327 325 324 324 323 323
338 336 340 341 342 339 338 339 339 335 333 334 337 333 335 335 333 335 334 332 332 332 332 330 325 325 323 326 328 328 328 326 327 324 324 323 323 323 323 322 322 322 321
339 339 340 341 341 340 339 339 335 332 333 333 331 335 336 333 333 334 332 331 331 331 329 325 324 324 321 327 325 323 322 323 324 323 322 322 322 322 321 320 320 320 319
338 339 340 340 337 337 339 338 337 332 326 326 325 330 337 335 335 333 330 330 330 328 325 323 323 322 319 321 322 321 321 323 323 322 322 321 322 321 320 319 319 319 318
337 338 338 337 338 339 335 337 334 325 325 324 323 324 332 332 334 331 329 329 328 324 321 316 318 320 318 320 320 321 321 323 322 321 321 320 320 320 319 319 318 318 317
336 336 335 335 336 338 337 334 329 326 324 322 322 321 330 334 331 330 329 327 323 320 313 312 314 316 315 317 320 320 321 321 321 320 320 319 320 319 319 318 318 317 317
339 336 334 334 335 335 334 332 329 327 327 326 324 322 332 333 332 331 329 322 317 312 309 310 311 313 311 318 319 320 321 320 320 319 318 320 320 319 318 317 317 317 316
336 335 333 331 334 333 332 329 328 326 327 326 324 323 331 333 333 332 329 320 316 309 310 310 311 313 313 318 319 321 321 320 320 319 319 319 320 319 318 317 316 316 315
335 336 333 333 331 331 331 331 329 325 325 325 324 327 333 333 333 331 328 319 314 315 313 309 317 316 314 317 319 320 321 320 319 319 318 319 319 319 318 317 316 315 314
332 333 333 331 330 331 330 331 329 327 326 325 327 329 333 332 333 331 327 320 315 318 314 317 320 317 317 318 319 319 319 320 320 318 318 318 318 319 318 317 316 315 314
330 331 332 330 329 329 330 329 330 327 327 330 331 332 332 332 331 330 326 321 322 320 318 320 321 320 319 319 319 319 319 321 319 319 317 317 317 317 317 317 316 315 314
329 329 329 327 328 328 328 327 329 329 326 330 332 332 331 331 330 329 327 323 325 322 320 322 322 321 319 318 319 319 319 319 319 319 318 317 317 317 317 317 316 315 314
329 328 327 325 326 326 328 326 327 329 328 327 329 329 329 329 328 328 328 325 326 324 322 324 322 320 318 318 318 318 318 318 320 320 319 319 317 316 316 316 315 315 314
328 327 325 324 325 325 325 325 325 327 328 326 325 326 327 326 327 327 327 326 325 326 324 323 322 319 318 318 318 318 318 318 318 319 319 319 318 317 316 315 315 314 314
326 325 325 324 326 324 324 324 325 327 326 328 324 325 326 325 325 326 326 326 326 325 324 323 321 319 318 318 318 317 317 318 318 318 318 319 319 318 317 317 314 313 312
325 325 324 325 324 324 323 324 326 327 327 327 326 324 326 324 324 323 322 323 322 322 321 319 318 318 317 317 316 316 315 315 316 318 318 318 318 319 318 318 317 315 313
325 325 325 323 324 324 323 322 324 325 325 324 323 324 324 323 321 320 321 319 318 318 317 318 317 317 317 317 314 314 316 316 315 315 314 315 317 317 318 318 319 318 318
325 324 325 325 325 324 322 322 322 322 321 321 321 320 320 319 320 319 319 317 318 316 316 317 317 317 317 316 315 319 322 322 318 316 315 315 314 314 315 317 318 318 319
325 324 325 325 325 323 323 323 322 322 321 320 320 319 319 319 319 318 317 317 316 316 318 319 319 319 319 318 316 316 319 322 321 321 317 316 316 316 315 314 315 316 317
326 326 325 324 325 324 324 323 322 321 320 318 317 317 317 317 316 317 316 315 317 319 319 321 321 320 320 323 321 322 320 320 321 322 321 321 318 317 317 316 316 315 314
326 325 325 324 324 324 324 323 322 321 320 318 317 316 316 317 318 318 317 318 319 319 320 318 320 319 320 322 323 323 323 322 322 322 320 321 321 320 319 318 316 316 315

GFSSE_925_thetae_099.txt.gz
Theta_e
344 342 340 340 341 339 337 335 336 335 334 335 334 334 335 336 336 336 336 335 333 334 339 340 338 342 341 337 335 336 336 336 336 336 337 337 338 336 335 334 334 334 334
345 342 340 340 342 340 339 335 333 334 334 333 334 333 334 335 334 333 331 329 326 335 339 339 339 340 336 334 334 334 335 335 335 335 336 336 336 335 333 333 333 332 332
345 343 341 340 342 342 339 339 334 333 332 334 332 329 333 333 332 329 328 330 335 337 337 338 338 338 334 334 334 334 334 334 334 333 333 333 334 334 332 332 331 330 331
342 343 343 340 339 342 342 340 339 335 332 333 331 328 331 332 330 330 331 334 336 337 337 336 337 335 333 332 332 330 331 330 331 331 331 331 332 332 330 329 329 328 327
339 342 346 344 341 340 343 342 340 341 339 334 331 333 334 333 330 332 333 334 335 336 336 335 335 331 331 331 329 331 330 328 328 328 328 329 329 329 328 328 327 326 326
335 336 342 344 343 339 341 343 342 341 339 337 334 334 335 334 335 334 334 334 334 334 333 333 331 329 329 327 328 328 327 326 325 325 325 325 325 328 326 325 324 324 323
337 337 339 340 341 339 339 341 340 338 337 337 336 336 332 328 335 335 334 333 332 331 332 332 327 326 325 327 328 327 326 324 323 323 324 323 324 325 324 323 322 322 322
338 339 340 340 340 340 338 340 340 338 335 335 329 333 332 331 335 335 333 332 332 331 329 327 324 323 326 327 328 327 326 324 324 323 322 322 322 323 322 321 321 321 320
334 339 341 341 340 340 339 339 340 337 334 332 333 332 328 328 333 334 332 332 332 330 327 324 323 325 327 327 325 321 323 323 322 321 321 321 321 321 320 320 320 319 320
336 337 336 337 337 338 338 338 339 334 332 331 332 329 327 328 331 333 331 331 330 329 326 323 322 327 326 323 320 321 322 322 321 320 320 320 320 320 320 319 319 319 318
336 336 336 336 335 337 338 336 334 333 331 329 328 326 324 325 331 331 331 330 330 327 324 323 316 324 322 320 321 322 321 321 320 318 318 319 320 320 319 319 318 318 318
336 336 333 333 334 338 337 335 332 325 324 325 324 323 323 325 324 331 330 329 327 324 321 316 316 319 320 320 321 321 321 320 320 319 318 319 320 319 319 318 318 318 317
337 336 332 333 334 335 334 332 331 328 327 326 323 323 324 329 332 331 329 327 323 316 314 317 316 318 319 320 320 321 320 320 319 317 319 319 320 319 318 318 317 317 316
337 335 332 331 333 332 333 331 329 328 326 327 326 325 324 327 331 329 328 323 317 313 313 314 313 313 319 320 321 320 319 319 318 317 319 319 319 319 318 318 317 316 315
335 334 332 332 332 331 330 330 330 328 325 326 326 323 328 331 330 327 323 319 313 310 310 312 311 318 319 320 320 320 320 319 318 316 318 318 318 319 319 318 317 316 314
333 333 332 331 330 330 330 330 330 328 326 326 325 324 324 331 329 326 321 317 313 308 311 316 312 317 317 319 319 319 320 319 318 316 317 318 317 318 318 318 317 316 315
330 330 329 329 328 328 329 330 330 326 327 328 326 325 330 331 329 324 318 315 311 309 319 320 316 316 317 319 319 320 320 319 318 315 316 317 317 317 317 317 317 316 316
328 327 326 326 326 327 328 327 329 328 330 330 331 326 332 331 328 324 316 319 315 314 320 321 319 318 319 318 319 318 320 319 319 318 314 316 316 316 316 316 316 316 315
327 326 326 325 326 326 328 326 328 329 329 330 330 330 331 330 328 324 319 322 319 317 320 321 320 319 318 318 318 318 318 319 319 319 318 315 314 315 315 316 316 315 315
327 326 324 325 325 325 325 326 326 329 327 328 330 330 330 329 327 324 320 325 322 322 322 322 321 318 318 318 318 318 318 318 320 319 318 318 318 317 315 314 314 314 313
325 325 324 324 326 324 323 323 324 326 327 326 328 328 328 327 327 326 322 326 323 324 324 322 319 319 318 318 318 317 317 318 318 318 319 319 318 318 317 317 317 315 313
325 323 324 325 324 323 324 324 326 326 326 326 327 327 327 326 326 326 326 325 326 324 323 322 319 318 317 317 316 316 314 315 315 317 318 318 319 319 318 318 317 318 317
324 324 324 324 324 323 323 323 325 325 327 326 325 325 325 325 322 325 325 324 324 322 321 319 318 317 316 315 316 314 318 317 315 315 315 316 317 317 317 318 318 318 318
324 324 324 324 324 324 323 322 323 323 323 323 324 324 324 323 320 321 323 324 323 320 318 318 317 317 317 316 315 317 321 322 320 318 316 315 314 314 314 315 316 317 317
324 323 325 325 324 323 322 322 322 322 322 321 320 320 320 320 319 318 318 319 318 317 319 318 317 317 317 318 316 316 317 318 320 319 318 318 316 315 315 316 315 314 315
324 323 325 325 324 324 323 322 322 321 320 319 319 319 319 319 319 318 317 317 316 316 316 317 318 319 319 320 319 320 320 320 320 320 317 319 319 321 320 319 317 317 317

GFSSE_925_thetae_102.txt.gz
Theta_e
343 342 340 339 338 337 336 335 336 337 336 335 335 336 338 339 337 337 337 337 337 341 338 334 335 335 340 341 337 335 336 336 336 337 337 338 338 337 335 334 334 334 333
341 341 340 340 339 337 335 334 333 333 334 335 334 336 336 336 336 336 335 335 337 340 340 336 337 339 341 337 335 336 336 336 336 336 336 336 336 337 334 333 333 333 333
341 341 341 341 340 339 336 334 333 332 331 333 332 335 336 336 336 335 334 335 338 340 340 338 338 339 339 335 335 335 336 336 335 335 334 334 334 335 333 332 332 331 330
341 341 340 340 340 340 337 334 335 332 331 333 331 333 334 334 333 330 329 333 336 337 337 337 337 339 335 334 334 334 334 334 333 333 332 333 333 333 332 330 330 329 329
340 341 341 341 339 340 340 336 333 332 332 333 331 332 334 332 330 330 330 333 334 334 335 336 338 334 333 332 332 332 332 332 331 331 332 332 332 331 330 328 328 327 327
340 340 342 342 340 339 340 340 337 336 335 336 331 331 336 335 331 330 333 334 335 335 335 336 334 332 331 330 329 329 329 329 329 329 328 328 329 329 328 326 325 325 324
341 341 343 342 340 340 340 341 340 341 339 336 335 332 334 333 334 334 334 334 334 334 333 334 332 331 330 330 327 326 326 325 326 326 326 325 326 327 326 324 323 323 322
336 339 341 341 340 340 340 342 342 340 338 337 335 334 329 326 327 331 334 334 333 332 331 331 330 327 328 327 326 324 324 323 323 324 324 323 324 325 324 322 322 321 321
334 335 339 340 340 340 340 341 342 341 338 337 335 333 328 326 328 331 331 332 331 330 329 329 327 327 328 327 325 324 323 323 322 322 322 322 322 322 322 321 320 320 320
332 333 336 339 340 340 339 339 339 339 337 335 333 329 328 325 327 328 331 332 330 328 328 326 325 327 327 325 321 324 324 323 321 320 321 320 321 320 320 320 320 319 320
335 334 335 336 337 336 337 338 339 338 336 334 332 328 326 324 323 325 329 332 330 327 326 324 325 327 325 320 322 324 323 321 320 320 320 320 321 321 320 319 319 319 319
337 336 335 334 334 335 337 337 336 334 333 333 331 330 327 325 327 326 330 331 330 325 323 324 326 325 320 322 322 322 321 320 318 319 319 320 321 320 320 319 319 318 318
335 336 334 333 334 335 337 335 334 333 332 332 330 328 329 328 326 323 328 329 330 323 322 323 325 322 319 320 321 321 321 319 317 318 318 320 320 320 319 319 318 318 317
336 335 333 333 333 336 335 334 333 329 327 326 327 326 324 324 324 325 327 329 329 323 322 320 323 320 319 320 321 320 320 319 317 317 319 319 320 320 319 318 318 317 316
336 335 332 332 334 334 333 332 331 329 328 327 324 323 323 324 326 329 329 328 326 319 318 318 320 319 319 320 320 320 319 318 317 318 318 318 319 319 319 319 318 317 316
336 333 331 331 331 331 330 330 329 329 328 326 326 325 323 327 328 328 326 327 321 313 315 315 318 319 319 320 320 319 319 317 316 317 318 318 318 319 319 319 318 317 316
334 333 332 331 329 329 330 329 329 329 326 326 325 325 325 325 328 325 326 323 314 313 313 313 313 318 319 319 320 319 319 318 316 316 317 317 317 318 318 318 318 317 316
332 331 330 329 328 327 329 329 329 328 326 325 325 324 325 327 326 325 323 316 311 311 311 311 317 317 319 318 319 319 319 318 317 315 316 317 317 317 317 317 317 317 317
330 328 326 326 326 327 328 327 329 328 327 329 327 325 325 327 326 322 319 311 309 310 314 313 315 316 319 318 319 319 319 318 317 315 315 316 316 316 316 316 316 316 315
327 326 325 325 326 326 328 326 328 329 329 329 330 327 330 326 324 322 315 309 309 316 319 317 316 317 318 318 318 319 319 319 318 318 317 315 315 314 314 315 315 315 314
326 325 325 325 325 325 325 326 326 328 327 329 328 328 329 328 323 319 315 311 313 318 320 318 318 318 318 318 318 316 318 319 319 319 319 318 317 316 315 315 314 313 313
325 324 324 325 325 324 323 323 324 325 327 327 327 327 328 327 323 319 318 316 317 319 321 320 319 318 318 318 317 315 314 314 318 319 319 319 319 318 317 317 317 317 316
324 324 324 324 324 322 322 322 324 324 326 326 326 325 327 326 325 321 320 319 320 319 322 320 319 317 317 317 317 315 314 314 313 315 317 318 318 319 318 318 318 318 317
323 324 324 324 323 323 321 323 324 325 326 326 327 325 325 327 325 322 324 323 322 321 322 320 319 317 317 316 316 315 318 318 315 317 315 315 316 317 318 318 317 317 317
324 323 323 324 323 323 322 322 324 324 325 325 325 325 325 325 326 325 324 324 323 323 322 320 319 317 318 316 316 315 319 319 320 317 316 316 315 315 315 315 315 315 315
323 324 324 323 323 323 321 321 323 322 322 323 323 323 320 320 322 325 324 323 324 322 318 318 317 317 316 315 315 315 316 317 318 319 316 317 318 319 318 317 316 316 316

GFSSE_925_thetae_108.txt.gz
Theta_e
339 338 338 338 340 338 338 337 336 337 340 341 341 338 337 336 337 338 338 336 337 338 336 336 336 336 339 341 339 338 338 338 338 338 338 339 339 339 336 336 336 336 335
331 333 337 338 341 339 338 337 336 338 341 341 341 338 337 336 338 338 336 338 340 339 341 336 336 340 340 339 337 338 337 337 337 337 337 336 337 338 334 333 333 333 333
329 331 336 343 342 340 338 337 335 336 340 341 340 337 337 341 339 340 339 340 340 341 342 339 336 339 339 338 337 336 336 335 335 334 335 335 335 335 332 332 332 332 332
331 331 334 339 342 340 337 336 335 336 339 341 339 337 338 335 339 340 338 339 339 341 340 340 339 338 338 336 335 335 335 335 334 334 333 334 334 334 332 331 332 332 333
334 332 333 338 341 339 338 337 335 337 344 344 342 342 342 341 340 339 338 338 337 338 339 340 337 337 336 335 335 334 334 334 334 332 333 334 334 334 333 330 329 330 330
333 330 332 337 341 339 341 338 337 335 339 342 339 341 341 340 338 337 337 336 336 334 338 338 336 336 335 334 334 334 334 333 332 332 333 333 332 332 328 327 326 326 326
335 334 335 337 339 340 340 341 340 339 336 337 336 336 335 334 334 333 335 335 334 334 334 336 336 335 335 335 335 334 332 332 331 331 331 330 330 328 327 326 325 324 324
337 337 338 339 339 340 340 341 340 340 338 335 335 333 330 331 328 329 332 333 331 333 332 335 335 335 334 334 333 332 332 331 331 330 329 329 328 327 326 325 323 323 322
338 338 339 340 339 339 340 340 340 339 336 336 333 332 329 326 325 325 329 331 331 332 332 333 334 333 333 332 332 331 331 330 329 328 327 327 326 327 325 323 322 321 321
338 339 340 340 340 340 340 340 340 339 336 336 333 330 327 325 326 325 323 326 330 330 331 333 332 331 331 330 330 329 328 327 326 326 325 324 324 325 323 321 320 320 319
338 339 340 340 340 339 340 340 340 339 337 335 332 329 326 326 326 325 322 325 330 329 330 331 329 329 328 326 325 324 324 325 324 323 323 323 323 324 322 321 320 320 320
336 337 337 338 338 338 339 339 341 340 338 335 331 328 328 328 327 326 326 326 329 329 329 331 329 327 325 324 323 323 322 322 322 321 321 321 322 321 320 319 319 319 319
335 335 334 336 336 337 338 338 338 339 338 334 332 329 328 326 326 327 327 328 327 330 329 329 327 325 324 323 323 322 322 321 321 320 320 321 321 320 320 320 319 319 319
333 333 333 335 336 336 336 334 334 336 334 334 332 327 326 328 328 325 324 326 328 328 328 328 327 324 322 322 323 322 321 320 319 319 320 320 320 320 320 320 319 319 319
333 333 333 335 335 333 334 334 336 333 333 331 332 330 328 327 328 325 325 327 329 327 327 327 326 323 321 322 323 322 320 318 319 319 319 320 320 320 320 320 319 319 318
332 333 334 334 334 333 333 332 333 332 332 333 330 329 329 327 328 325 325 327 329 327 327 326 324 321 321 322 322 321 319 317 318 319 319 319 319 319 320 320 319 318 318
331 332 334 335 333 332 332 334 333 329 330 330 330 329 328 327 327 326 327 327 328 327 325 325 321 320 321 322 322 320 318 318 318 319 319 319 319 319 319 319 319 318 318
330 332 333 334 332 332 333 334 330 327 327 328 329 328 327 327 326 325 327 329 328 327 323 324 320 318 320 321 320 319 318 318 317 318 318 318 318 319 319 318 318 318 318
330 331 333 333 331 331 331 329 329 328 328 328 328 328 328 327 326 327 327 327 327 327 322 324 320 318 319 319 319 319 318 317 317 318 318 318 317 318 318 318 317 317 317
330 331 333 332 330 330 328 327 327 327 328 327 327 327 327 326 326 326 327 325 325 324 320 321 321 317 319 319 319 318 317 317 317 317 317 317 317 317 317 317 317 316 316
330 331 332 330 330 327 326 326 326 328 327 327 326 326 325 325 324 326 325 324 323 325 319 320 319 317 317 318 317 316 316 317 317 318 317 317 317 316 317 316 315 314 314
327 328 329 329 328 326 325 324 324 326 326 326 327 328 325 325 324 324 323 321 323 320 317 317 317 316 317 318 317 316 314 316 317 317 317 317 316 316 315 314 314 313 313
325 326 327 327 325 325 325 324 324 325 326 326 326 326 325 325 324 324 321 320 318 318 316 315 316 317 316 317 317 317 312 316 314 317 316 316 316 316 315 315 316 316 316
324 323 326 324 324 325 325 325 325 324 325 325 326 326 326 325 322 321 322 322 317 315 314 314 316 317 316 316 317 317 316 315 314 314 315 317 317 317 317 317 317 317 317
322 323 323 322 324 325 324 323 322 322 323 325 325 326 323 322 321 321 321 318 314 313 313 314 315 317 317 317 317 316 315 315 315 314 313 313 317 318 318 318 317 317 317
321 321 321 321 323 324 322 322 321 320 324 324 325 324 320 319 318 319 318 314 314 314 313 313 315 317 317 317 317 316 317 318 318 317 315 315 314 315 316 316 316 316 316

GFSSE_925_thetae_111.txt.gz
Theta_e
339 333 336 334 337 337 338 338 336 337 340 342 341 339 337 339 340 341 343 342 342 342 343 340 339 340 340 341 338 338 339 339 339 339 339 339 340 338 337 337 337 338 335
325 331 335 335 338 339 338 337 336 337 342 343 341 339 338 339 340 342 341 339 340 341 342 339 338 340 340 337 338 337 338 338 337 337 337 337 338 338 335 335 336 336 335
325 328 334 336 343 342 338 337 336 337 342 341 341 338 340 341 341 341 338 338 339 340 341 339 337 340 340 337 338 337 337 337 336 336 337 337 337 336 334 334 333 333 333
325 328 331 335 341 343 339 337 336 337 341 341 341 339 338 338 339 338 338 339 338 339 341 341 341 341 338 337 336 337 336 336 335 335 335 336 336 335 333 332 332 333 333
327 327 330 334 342 341 339 337 337 344 345 341 340 339 341 340 340 338 338 338 339 340 339 340 339 339 337 336 336 335 335 334 334 335 335 335 335 334 333 333 332 332 332
330 330 331 334 340 341 340 337 339 344 346 342 340 339 339 339 338 337 338 337 336 338 339 339 338 337 336 335 335 334 334 334 333 334 335 334 335 333 330 329 330 329 330
333 332 333 334 338 341 341 338 339 342 344 338 337 338 337 334 333 334 335 333 333 336 338 338 336 336 335 335 334 334 333 332 333 334 334 334 333 331 329 326 325 326 326
334 333 334 336 337 340 340 340 338 337 337 337 338 337 335 329 333 334 332 333 332 332 335 335 335 335 334 334 334 333 332 332 333 333 333 333 330 329 326 325 324 324 323
335 335 336 337 338 339 341 340 340 339 334 336 335 336 334 334 332 331 332 331 331 329 331 334 334 335 334 334 334 332 331 331 332 332 331 331 327 327 326 324 322 322 322
336 338 337 338 338 339 340 340 339 338 337 335 335 334 333 330 327 326 323 322 323 332 331 331 333 334 334 333 332 331 331 331 331 330 329 329 327 327 324 322 322 321 321
339 338 337 339 339 339 340 340 340 339 337 336 335 333 330 328 326 325 325 324 328 331 330 330 333 332 333 332 332 331 330 329 329 329 328 326 325 325 323 322 320 320 320
339 339 339 339 340 340 340 341 340 340 338 336 335 332 329 327 326 325 326 326 324 330 330 331 332 331 331 329 328 327 326 326 326 326 326 323 323 323 323 321 321 320 320
337 337 338 339 340 340 340 339 338 338 338 336 333 330 329 327 325 324 325 325 328 331 331 332 330 329 328 327 325 324 324 324 324 324 323 322 322 323 321 320 320 320 319
334 336 335 336 338 338 338 338 337 336 337 335 334 331 329 327 328 328 327 325 328 330 331 329 328 327 326 325 323 323 322 322 322 322 321 321 321 322 322 322 320 319 318
333 334 334 333 336 336 337 337 337 333 335 335 333 331 329 328 329 328 327 326 329 328 329 328 326 325 324 323 323 322 322 321 321 320 321 320 320 321 321 320 320 320 318
333 333 333 333 334 336 336 335 334 331 334 333 332 330 329 328 328 328 328 329 329 328 328 328 324 324 323 323 323 322 321 320 320 320 320 320 320 320 321 320 320 319 319
331 332 332 332 334 335 332 333 333 331 331 331 331 330 329 327 328 327 327 328 328 328 327 326 323 324 322 322 322 321 320 320 320 320 320 320 319 319 320 319 319 319 319
329 331 332 332 334 334 332 333 330 330 330 330 330 330 328 327 327 327 326 327 327 327 325 323 322 322 321 321 321 321 320 319 320 320 320 320 320 319 319 319 318 318 318
328 330 331 331 333 333 332 331 330 329 328 328 328 329 328 328 327 328 327 327 326 327 325 322 322 322 321 321 321 320 320 320 320 319 320 320 320 320 319 318 318 317 317
327 329 330 331 332 332 331 330 328 328 327 327 327 327 327 327 327 327 327 326 325 325 323 321 320 321 321 321 319 319 319 319 319 319 319 319 319 320 319 319 318 318 317
328 329 330 331 329 330 330 328 328 329 327 327 327 327 327 327 325 326 327 326 325 323 322 320 319 319 319 320 319 319 319 318 319 319 319 319 319 319 319 319 319 318 318
327 329 329 330 328 328 327 327 327 327 327 326 326 327 326 327 327 326 326 325 324 320 320 319 319 319 319 319 320 319 321 319 318 318 319 318 318 318 318 318 318 317 317
327 326 327 328 327 327 327 325 324 325 326 326 326 327 326 326 325 325 326 324 324 321 318 318 318 319 319 319 320 320 321 323 319 318 318 318 318 317 317 317 316 317 316
326 324 326 326 326 325 324 324 323 325 326 326 326 326 327 327 325 324 325 324 323 322 319 318 319 320 319 319 319 317 320 319 322 322 318 318 318 318 318 317 317 317 316
326 323 324 327 325 325 325 324 322 325 325 324 325 326 326 325 324 324 323 320 320 320 319 317 318 319 319 319 319 318 317 318 318 319 321 319 317 318 318 318 318 317 317
325 322 325 326 323 324 323 323 324 323 323 324 324 325 325 324 322 321 320 320 319 319 317 316 317 318 319 319 319 318 318 318 319 321 321 319 319 318 318 318 318 318 317

GFSSE_925_thetae_114.txt.gz
Theta_e
338 339 333 332 334 338 339 338 337 337 340 342 340 336 338 339 340 341 342 342 342 342 344 343 342 342 341 340 337 338 339 340 340 340 340 340 339 338 337 338 338 339 336
334 340 331 332 333 338 339 338 337 337 340 342 341 338 339 340 343 342 341 342 343 343 343 341 339 340 341 339 339 339 339 339 339 339 339 338 338 337 337 338 338 337 336
337 340 331 334 336 340 339 338 337 338 342 344 342 340 339 342 343 341 342 342 341 342 342 341 340 342 339 337 338 338 338 338 337 336 337 338 338 336 336 336 335 334 334
337 340 342 335 336 338 338 337 337 338 342 345 342 341 339 343 342 341 340 339 340 339 341 341 341 341 337 337 338 337 337 337 336 337 338 337 337 336 333 333 333 334 334
337 338 343 334 335 337 338 337 337 345 345 345 343 341 339 341 340 337 337 339 339 339 339 340 341 339 337 337 337 336 336 336 335 336 336 336 336 335 335 333 332 333 334
337 338 341 332 333 339 339 337 338 346 345 344 342 340 340 339 337 336 337 339 339 338 337 338 340 338 337 336 336 336 335 334 335 335 335 335 335 334 333 333 333 332 332
339 340 335 332 335 340 339 337 339 345 346 342 340 339 338 337 329 332 332 335 337 336 337 337 338 337 336 336 335 334 334 334 335 335 335 335 335 332 331 330 330 331 330
342 343 343 335 337 340 340 338 339 340 341 340 338 339 338 334 324 325 330 334 334 335 337 336 336 336 335 335 334 334 333 334 334 335 334 334 331 331 329 326 326 326 325
344 343 343 343 341 340 340 339 338 338 337 339 339 339 338 333 332 331 333 332 334 334 336 335 335 334 334 334 334 333 332 333 334 333 333 333 330 330 327 324 324 324 323
344 343 343 344 343 344 342 340 339 336 336 339 339 338 336 333 329 335 333 332 330 330 333 332 334 332 333 334 334 332 331 333 332 332 332 332 328 328 326 325 322 322 322
343 343 343 344 343 344 345 342 339 339 338 336 338 337 335 334 336 334 333 331 328 330 332 332 332 331 333 333 332 332 331 332 332 331 331 328 328 327 324 323 322 322 322
342 343 342 343 343 345 343 343 343 342 341 339 338 337 336 336 334 332 329 326 329 331 330 328 330 331 332 332 331 331 331 331 331 330 329 326 326 326 324 322 322 321 320
340 342 342 343 343 344 342 341 343 342 341 340 339 337 335 334 332 329 330 330 331 332 333 330 330 332 332 331 331 331 329 328 326 325 326 324 325 325 323 322 322 320 320
336 341 342 342 343 341 341 341 341 339 339 338 337 336 334 333 332 331 331 331 331 330 333 333 331 331 331 330 329 328 326 325 324 323 324 323 323 324 322 321 320 320 318
334 337 340 341 342 342 342 340 339 338 338 338 337 335 334 333 332 331 331 330 331 329 329 331 331 331 330 329 328 326 326 325 323 322 322 321 321 321 322 322 322 320 319
332 335 338 340 340 340 340 339 337 337 336 337 336 334 334 332 331 331 330 331 329 329 330 330 329 329 329 328 327 326 326 324 322 321 321 321 321 321 321 322 322 320 320
329 333 336 339 339 339 337 337 337 337 336 334 334 333 333 332 330 331 331 330 329 331 330 328 327 327 327 327 326 327 325 323 321 320 321 321 320 320 320 320 320 320 319
323 328 334 337 339 337 336 336 335 335 334 333 332 332 331 331 330 330 330 330 331 329 328 326 326 327 326 326 326 326 325 322 322 320 320 319 320 320 320 320 319 319 319
322 325 333 336 338 337 337 335 334 334 331 331 331 331 330 330 330 330 329 330 329 328 328 326 326 325 325 325 325 325 324 322 322 319 320 320 320 320 319 319 318 318 318
324 327 332 335 337 336 335 333 333 333 330 330 330 329 329 329 329 329 328 328 329 327 327 325 325 325 325 325 324 325 323 322 322 319 319 320 320 320 320 320 318 318 317
328 329 332 334 336 332 333 332 332 332 330 330 329 327 328 328 328 328 328 327 327 327 327 325 325 325 325 325 324 324 323 323 322 319 319 319 319 319 320 320 319 319 318
330 331 332 333 336 332 332 334 332 330 328 328 328 327 327 327 327 327 327 328 327 326 327 324 325 325 325 324 324 324 324 323 322 321 319 319 319 318 319 319 319 320 319
330 332 332 333 335 334 334 332 332 331 329 329 330 328 327 327 327 326 326 327 326 325 325 323 324 324 325 324 324 323 324 325 322 321 320 318 318 318 318 318 319 319 319
330 331 331 333 333 333 334 332 331 330 329 329 329 329 327 328 327 326 326 325 324 324 323 321 323 324 324 324 324 322 321 321 324 324 321 320 319 318 319 318 318 319 319
329 330 329 331 332 333 333 332 330 328 328 328 329 329 329 328 326 326 325 325 324 323 322 321 322 323 324 324 324 323 323 323 322 321 322 320 320 320 320 321 320 320 320
330 328 328 330 330 329 330 330 328 327 327 328 328 328 328 327 326 326 325 324 323 322 321 321 321 322 323 324 323 322 322 322 322 321 320 320 321 320 320 321 321 321 321

GFSSE_925_thetae_117.txt.gz
Theta_e
335 326 328 330 335 339 339 339 339 340 342 342 340 338 338 338 340 341 342 343 343 342 344 344 343 343 340 339 338 337 338 339 339 338 339 340 339 337 337 338 339 339 337
333 337 328 329 332 336 338 339 338 338 341 343 341 338 337 338 339 341 342 343 342 343 343 343 342 342 341 339 338 339 339 339 339 339 339 338 337 337 338 338 339 338 337
335 341 331 329 330 334 336 338 338 337 339 343 342 340 337 338 338 341 342 342 342 344 343 341 341 341 339 338 339 339 339 338 338 337 338 338 340 337 338 336 335 335 335
335 342 344 332 330 333 336 337 337 338 341 342 343 341 338 338 339 340 341 342 341 343 342 341 341 340 338 338 338 338 338 337 336 337 337 338 338 336 334 334 334 334 334
335 339 345 331 330 332 336 337 337 340 346 345 345 342 339 338 339 339 337 338 339 341 341 342 341 338 337 338 337 337 337 335 337 336 337 337 337 336 335 333 333 333 335
335 337 344 334 332 333 335 336 337 343 346 346 345 342 340 337 336 331 331 335 337 339 339 341 341 337 337 337 337 336 336 335 336 336 336 336 336 335 334 334 335 334 332
335 340 341 331 331 333 336 337 337 343 345 345 344 343 338 337 333 333 333 333 335 335 336 339 340 337 337 337 336 335 335 335 336 336 336 336 336 334 334 333 332 331 332
339 343 344 333 332 332 337 337 337 341 345 344 343 342 339 335 326 328 334 334 329 334 336 338 338 337 336 336 336 335 333 334 335 334 335 334 333 333 331 331 331 330 330
343 345 345 342 337 334 338 337 337 339 340 343 342 341 340 337 332 325 326 327 332 335 337 336 337 337 336 335 335 334 333 334 335 334 334 333 330 331 328 327 326 326 325
345 345 345 344 343 343 342 338 337 339 339 341 341 339 338 337 330 329 330 333 332 335 337 336 336 335 335 334 334 333 333 332 334 333 334 332 329 329 327 326 326 324 323
344 345 344 345 345 345 344 342 338 338 338 339 340 339 338 336 329 332 336 334 333 334 334 332 333 333 334 334 333 332 331 333 332 332 332 329 328 329 327 325 323 323 322
343 344 344 344 345 345 343 343 341 341 340 339 341 340 339 337 336 336 336 333 331 329 328 329 330 331 330 334 333 331 332 333 331 331 331 328 328 327 326 324 323 322 321
340 343 343 345 345 345 344 344 341 341 340 341 340 339 338 337 335 336 334 334 330 329 330 328 327 328 332 333 333 332 332 332 331 330 328 326 326 326 324 323 323 322 320
335 342 343 343 345 346 343 342 342 342 341 341 341 340 337 337 336 334 332 330 333 332 334 332 331 331 333 333 333 332 330 329 326 328 326 324 326 325 324 323 322 321 319
329 336 342 343 344 345 343 341 340 342 342 341 341 340 337 336 335 334 332 332 333 332 333 332 332 332 332 332 331 329 328 325 324 327 326 323 323 324 324 323 322 321 319
327 333 339 343 343 345 342 341 341 341 340 342 341 340 338 336 335 334 333 332 331 332 330 328 331 332 331 330 329 327 326 324 323 324 324 323 322 320 321 323 321 321 320
326 330 336 341 343 344 343 341 340 339 339 340 339 340 338 337 335 334 333 332 333 333 330 326 328 330 329 328 327 326 325 325 322 322 323 321 321 321 321 320 320 320 320
324 328 332 336 341 343 343 341 339 338 338 338 337 338 338 336 335 334 333 332 332 331 329 327 328 328 328 328 327 325 325 323 322 321 321 321 320 321 320 321 320 319 319
323 324 327 335 339 342 342 340 339 339 338 337 337 336 336 335 334 333 333 334 332 331 330 329 328 326 326 327 326 326 325 323 322 320 322 320 321 321 320 320 319 319 319
322 323 325 332 338 341 342 340 339 338 335 336 336 335 335 335 334 332 332 332 333 331 330 328 327 327 326 325 325 325 324 323 322 319 320 320 321 321 321 321 319 319 318
323 327 328 331 337 341 340 340 337 337 334 334 334 334 334 332 332 333 331 331 330 331 329 327 327 326 325 326 325 325 324 322 323 320 320 320 321 321 321 322 319 319 318
323 329 330 332 336 339 339 337 336 337 335 335 333 331 331 331 332 331 331 330 329 329 328 327 327 325 325 326 325 324 325 323 323 320 319 320 320 320 320 321 320 320 321
326 330 331 333 335 338 335 335 336 336 334 332 331 331 331 330 328 329 329 329 328 328 327 326 327 324 325 324 325 325 326 325 323 321 319 319 320 320 319 320 320 320 321
325 330 332 332 334 338 334 336 337 335 333 332 331 331 330 330 329 327 328 327 326 327 327 326 327 325 325 325 325 324 323 322 326 325 321 320 320 320 319 319 319 320 320
324 330 333 333 334 337 336 336 336 336 334 332 330 331 331 330 329 327 327 327 326 326 327 326 325 326 325 326 325 325 324 323 323 324 325 321 319 319 319 320 319 320 320
331 333 334 333 335 336 336 336 335 335 333 331 330 330 331 330 331 329 327 327 326 326 325 325 325 325 326 325 326 325 325 325 324 325 325 323 321 319 319 320 321 321 321

GFSSE_925_thetae_120.txt.gz
Theta_e
332 323 325 329 335 338 340 340 340 341 341 341 341 339 337 337 338 338 340 342 342 341 343 343 342 342 341 340 340 340 339 339 339 338 337 336 336 337 338 339 338 338 337
323 321 324 327 331 335 337 339 339 339 340 341 341 340 337 337 338 339 340 342 342 343 345 343 340 339 339 338 337 337 338 338 337 337 335 337 338 338 339 338 337 337 337
324 323 325 327 329 334 336 338 338 338 339 341 342 341 337 337 338 337 341 342 341 343 344 342 340 340 337 337 337 338 338 337 337 336 338 338 337 338 337 336 337 336 336
333 325 326 325 327 333 335 337 337 338 338 341 343 341 339 337 337 337 338 340 340 343 343 342 342 341 337 338 338 338 337 337 337 338 338 338 339 335 335 335 335 334 334
340 342 327 324 326 330 333 336 337 338 340 345 345 342 340 338 337 337 335 336 336 337 342 341 341 338 338 338 338 337 336 336 337 338 337 337 337 336 333 333 333 334 334
337 341 337 324 325 328 332 335 337 339 347 345 344 343 340 338 336 334 328 328 330 331 336 339 340 337 337 337 337 335 336 336 337 336 336 336 335 335 334 334 335 333 333
337 340 339 325 324 327 332 335 337 340 345 344 344 343 340 337 335 330 327 328 331 329 334 334 336 336 337 337 336 335 336 336 336 335 336 335 333 334 334 334 332 332 332
338 342 339 327 325 327 331 334 337 341 343 344 344 342 339 337 328 327 326 327 331 327 333 334 337 336 337 336 335 334 335 335 336 336 334 334 334 336 333 332 331 332 331
343 346 339 330 328 329 332 334 336 339 342 344 344 343 339 336 330 331 332 329 327 326 335 336 337 337 337 335 335 334 334 335 334 334 334 333 333 334 332 331 330 330 328
344 347 341 340 333 331 333 335 336 338 340 342 343 342 340 334 331 328 334 332 330 333 335 335 332 336 336 334 334 333 334 333 334 334 332 331 330 331 330 328 327 326 325
346 346 346 345 342 339 338 335 336 337 338 341 341 341 340 337 336 326 328 326 332 332 334 332 330 331 334 334 333 333 332 333 332 333 332 330 329 329 329 327 325 324 323
347 346 346 345 345 345 345 342 337 337 338 338 341 341 340 338 336 333 334 334 332 330 334 329 329 330 331 333 333 332 331 331 332 332 331 329 329 328 327 326 325 325 324
344 347 346 345 346 346 343 344 340 342 340 339 341 341 340 338 336 335 336 335 331 330 330 328 329 328 330 331 332 331 332 331 331 331 329 328 328 328 325 325 324 323 321
341 345 345 346 347 346 344 343 343 341 341 342 339 340 339 338 337 335 335 334 330 330 327 329 327 327 328 329 331 331 331 331 331 330 328 327 327 326 325 323 322 322 320
338 343 344 345 346 347 345 343 343 341 342 342 341 339 340 338 337 336 334 334 331 332 332 329 327 327 329 330 332 330 331 331 330 328 326 325 326 324 324 323 322 321 320
326 343 344 344 346 347 345 344 342 344 341 342 342 341 340 338 337 335 333 332 333 330 331 329 328 329 329 331 331 328 328 326 328 326 324 325 324 323 323 323 322 321 320
324 327 344 344 345 347 346 344 342 344 342 342 342 342 339 337 336 334 333 332 331 331 331 331 329 329 330 331 330 329 326 324 325 325 322 323 323 322 320 321 320 320 320
324 327 338 345 344 346 346 343 342 342 341 341 339 341 339 338 336 335 334 333 332 331 331 328 328 326 327 329 328 327 325 324 324 323 322 321 321 320 320 320 319 319 319
323 323 332 338 343 345 347 343 341 341 341 340 338 338 340 338 336 335 334 333 332 332 331 328 326 326 328 327 326 326 324 323 322 323 321 321 321 321 319 320 320 319 319
322 322 331 335 341 345 346 344 343 342 339 340 339 337 338 338 336 334 334 332 332 332 331 327 327 328 328 326 327 324 324 324 321 321 321 321 321 321 319 320 319 319 318
323 325 325 337 339 344 345 344 342 341 339 339 338 336 335 335 335 334 333 332 332 332 330 328 327 328 326 326 327 325 326 323 321 320 322 321 321 321 320 320 318 318 318
324 326 327 327 339 342 344 344 341 341 337 335 334 334 333 334 334 333 333 332 331 332 330 329 328 327 325 325 326 325 323 323 323 320 320 322 320 321 322 321 319 319 319
326 328 329 330 332 340 343 342 340 338 336 334 335 333 332 332 332 331 333 331 331 331 330 328 328 327 325 325 326 324 323 323 322 322 320 320 322 321 323 322 320 319 320
326 327 331 330 332 338 342 339 338 336 337 335 334 332 332 330 329 331 331 330 329 329 328 328 328 327 324 324 325 324 323 322 321 322 321 320 321 320 320 321 321 320 322
323 328 330 331 332 337 339 337 336 337 336 334 333 331 331 331 329 328 328 328 329 328 328 328 327 326 324 323 324 324 324 324 321 321 320 320 322 320 320 320 320 320 320
331 332 333 333 333 339 337 337 336 337 336 334 334 333 332 329 330 329 327 326 328 327 327 326 327 326 324 323 324 324 324 324 322 322 321 320 320 321 320 319 320 319 320

GFSSE_925_thetae_123.txt.gz
Theta_e
332 329 328 328 332 337 339 340 340 340 341 341 340 339 336 335 337 339 341 342 341 340 340 340 340 340 340 340 340 339 339 339 338 338 338 337 336 338 339 338 338 337 337
324 325 325 324 328 335 338 338 339 340 341 341 340 339 336 336 337 339 342 341 341 340 339 340 340 339 339 340 339 339 338 338 337 336 337 337 338 339 336 336 336 337 337
321 324 325 324 327 331 334 336 338 339 340 341 341 340 337 337 338 338 341 340 340 339 340 340 339 338 338 338 338 338 337 336 335 336 336 338 339 337 336 336 336 336 336
322 323 323 324 325 328 333 335 337 337 338 340 341 341 338 339 338 337 337 337 336 337 339 340 341 336 336 337 337 337 336 338 336 336 337 338 337 336 336 336 335 335 334
323 323 323 323 326 329 331 334 336 337 338 340 342 341 339 338 337 335 336 331 334 334 338 339 341 337 337 337 337 336 337 339 337 336 337 335 336 337 336 335 334 334 333
326 325 323 323 325 328 332 334 335 337 343 343 343 341 339 337 335 335 332 328 333 334 335 337 337 337 337 337 336 336 337 337 337 336 335 335 335 336 335 333 333 333 333
333 336 324 323 325 328 332 334 336 336 341 342 343 341 339 337 335 335 332 330 329 327 332 335 336 337 337 336 335 335 337 336 336 336 334 334 334 334 334 333 332 332 332
336 340 333 324 325 328 332 335 337 339 342 342 343 341 339 337 335 333 330 329 328 327 332 334 336 336 336 336 335 335 335 335 336 335 334 333 334 336 335 332 332 332 331
336 338 337 325 325 328 333 336 339 338 339 342 342 340 339 336 328 328 327 328 329 329 331 333 335 334 335 335 335 334 334 336 335 334 332 334 333 334 336 331 331 331 330
340 339 337 326 325 330 334 337 339 340 337 340 341 340 338 333 329 328 327 327 329 329 333 334 335 333 334 333 334 333 335 335 334 333 332 333 333 333 334 331 330 329 326
343 341 340 326 327 331 334 336 338 339 340 340 340 341 339 334 332 329 332 330 328 327 332 331 332 330 332 332 333 332 333 333 333 332 332 331 332 331 331 330 328 326 324
346 344 342 331 330 333 334 335 337 338 339 341 340 340 339 335 330 330 332 332 330 332 332 332 329 331 331 332 332 331 332 332 333 332 330 329 330 330 328 327 326 326 325
345 346 345 343 339 337 339 338 336 337 338 340 340 340 339 336 336 326 333 330 331 332 333 332 330 330 331 331 331 332 332 331 332 332 330 329 329 328 327 327 325 325 324
346 345 345 344 344 342 342 342 337 336 337 338 339 339 339 338 337 333 335 333 332 330 331 329 329 329 330 330 329 330 331 331 331 331 328 328 328 328 325 325 325 324 322
345 346 345 345 345 345 343 343 340 338 339 338 341 340 338 338 336 334 335 334 331 329 328 326 327 328 330 329 329 331 329 330 330 329 328 327 327 326 324 324 322 323 322
341 345 345 345 344 345 345 343 342 341 340 341 339 341 339 338 337 336 335 334 331 328 326 326 327 326 328 328 328 328 328 330 330 328 327 326 325 324 323 322 322 322 322
331 343 345 345 345 346 345 345 341 343 340 342 342 339 340 339 337 336 334 333 332 327 327 328 326 327 327 328 327 328 328 328 329 326 325 326 324 322 322 321 321 322 321
321 341 343 344 345 345 346 345 342 341 342 341 342 342 340 339 337 336 334 333 333 331 329 330 329 328 327 327 328 327 327 328 328 324 324 324 323 322 321 320 320 320 319
320 329 341 343 345 345 346 345 344 342 343 342 342 342 341 339 337 336 334 332 331 331 331 330 330 328 327 328 326 327 324 326 325 323 323 321 322 320 321 320 320 319 319
319 321 337 343 344 346 346 345 343 342 342 341 340 339 341 339 337 335 334 333 332 331 331 331 329 328 327 327 327 327 324 324 323 322 321 321 320 320 320 320 319 319 318
319 320 339 343 344 346 345 343 342 341 340 340 340 339 338 340 339 336 335 334 332 331 331 330 328 326 326 326 327 326 325 322 322 322 321 320 319 320 319 320 319 319 318
321 322 331 341 344 345 345 344 342 340 341 340 340 337 336 337 337 336 334 334 332 331 331 330 328 327 327 326 326 325 324 323 321 322 321 321 320 320 319 319 319 318 318
323 326 332 338 342 344 345 343 342 340 339 338 339 336 335 334 334 336 334 333 332 332 330 330 327 327 326 326 326 325 323 324 322 321 321 321 320 321 320 319 319 317 315
324 327 329 334 339 343 344 343 341 339 336 336 335 335 333 333 333 333 333 333 332 332 330 329 328 326 326 325 325 325 323 323 322 322 320 321 321 320 321 320 320 317 318
321 328 328 329 337 340 343 343 340 338 337 336 335 334 333 332 331 332 331 332 331 331 330 329 328 327 326 325 325 325 323 322 321 321 320 319 320 320 322 322 321 319 319
324 329 330 329 331 339 341 341 339 338 336 335 334 333 332 331 330 329 329 331 329 329 329 328 328 327 326 324 324 325 323 322 320 320 319 319 320 321 320 322 321 320 321

GFSSE_925_thetae_126.txt.gz
Theta_e
337 336 339 337 338 338 338 339 340 341 341 340 338 336 335 337 342 343 343 342 340 339 339 339 340 340 341 340 340 339 339 340 340 339 341 341 342 339 338 338 338 338 338
327 332 334 335 335 334 335 337 339 339 340 340 339 337 336 337 339 342 342 341 340 339 339 338 339 340 340 339 339 338 338 338 339 339 340 340 341 340 338 338 337 338 337
324 328 329 329 329 330 333 335 337 338 339 340 340 337 338 338 339 341 340 339 337 338 338 339 338 338 339 338 338 337 336 337 337 339 339 339 339 340 336 336 337 337 336
322 325 327 327 326 329 332 334 336 337 339 340 340 338 337 337 337 338 338 336 336 337 338 338 337 336 337 337 337 337 336 336 337 338 339 338 338 341 337 336 336 336 335
322 325 326 324 325 327 331 333 335 336 338 340 340 338 337 336 335 336 336 335 336 335 336 337 336 335 335 337 336 336 335 335 336 337 338 337 340 338 336 336 335 334 334
323 326 324 323 324 326 330 332 334 336 337 339 340 339 337 336 335 335 335 334 334 335 335 336 336 335 337 337 337 338 337 336 336 336 336 337 337 337 335 334 333 333 333
325 325 323 323 324 326 328 331 333 335 338 340 340 339 337 336 335 335 335 330 332 332 334 336 336 336 336 336 337 337 337 336 336 335 334 336 336 335 334 333 333 332 332
324 324 324 323 324 325 328 331 333 334 340 341 341 339 337 336 335 335 333 331 331 328 330 334 335 334 336 335 336 337 337 336 334 334 334 333 334 336 335 333 332 332 331
325 324 323 324 325 327 328 330 333 333 339 341 341 339 338 336 335 332 330 328 328 327 331 334 334 334 335 334 335 336 335 335 334 333 332 334 334 334 334 332 332 331 329
334 332 326 325 327 331 333 331 333 334 338 341 341 339 338 335 329 328 330 328 328 329 332 333 334 333 334 334 333 334 334 334 334 333 332 333 333 333 333 332 331 330 329
340 337 333 327 329 332 334 336 335 335 337 340 340 339 337 332 328 328 327 327 328 329 332 332 333 334 333 333 332 332 333 334 333 332 332 332 332 331 331 331 332 329 327
340 338 335 329 328 332 334 336 337 338 338 340 339 339 336 329 331 329 328 327 327 327 332 332 335 334 333 333 331 331 333 334 332 332 332 332 331 330 330 329 331 327 326
340 340 338 331 328 331 334 336 338 338 339 340 339 339 337 331 331 330 331 330 328 328 332 331 332 331 332 331 332 332 333 333 332 332 331 330 330 328 328 328 328 326 325
342 340 341 338 329 332 332 335 336 337 338 339 340 339 338 333 330 332 331 331 329 330 332 331 331 331 332 331 331 331 332 332 331 330 329 329 329 328 327 327 326 326 324
342 342 343 342 336 333 334 335 334 336 337 337 339 339 338 336 333 330 330 331 327 331 331 332 329 330 331 332 330 330 331 330 331 330 329 329 328 328 327 327 326 325 324
341 342 343 344 342 339 338 338 337 334 336 337 337 338 338 337 336 335 332 334 330 332 330 331 328 329 329 330 330 329 329 329 330 330 328 328 328 327 326 326 325 324 323
342 341 343 344 344 343 342 340 340 337 335 336 337 338 338 338 336 333 333 334 333 331 328 328 326 328 328 329 329 329 329 328 329 329 328 327 327 325 324 323 321 322 322
337 342 342 344 344 344 344 342 341 339 337 337 338 339 339 338 337 334 335 334 333 331 329 325 326 328 327 328 328 327 326 328 329 329 327 326 326 324 323 321 321 321 321
319 336 342 343 344 344 344 343 343 341 339 339 341 340 339 339 338 336 336 334 333 331 329 325 327 326 328 327 328 327 327 328 328 329 326 325 324 322 322 321 320 320 320
318 320 334 342 344 344 344 343 342 342 342 341 342 342 340 339 338 337 336 334 333 331 329 329 329 328 328 326 327 327 326 326 327 327 324 324 323 322 321 320 319 320 319
318 317 331 341 343 344 343 342 341 341 341 341 341 342 341 340 339 337 336 334 333 333 331 330 330 329 327 327 327 327 324 324 324 325 324 323 322 321 320 320 319 319 319
317 316 327 339 341 344 343 343 342 341 341 342 341 341 341 340 339 337 335 334 332 332 331 331 329 327 327 327 326 326 325 322 321 321 322 322 321 320 320 320 319 319 318
317 316 320 336 341 344 343 342 342 340 339 339 340 340 339 337 338 338 335 334 334 332 331 330 329 327 326 326 326 326 324 325 321 320 320 321 320 319 319 320 319 319 318
319 317 320 334 341 343 343 341 341 340 338 338 338 339 339 336 335 337 336 335 333 332 330 329 329 327 326 325 326 326 325 323 322 320 320 320 320 320 319 319 319 319 318
319 323 327 336 341 343 343 341 340 339 339 338 336 337 337 335 335 334 334 335 333 332 331 329 328 327 326 325 325 325 324 322 322 321 321 319 319 320 320 320 319 319 318
317 323 329 337 341 341 342 341 340 339 337 335 335 335 334 334 334 333 333 333 332 331 331 330 328 328 326 326 325 325 325 323 321 321 319 320 320 319 320 320 320 320 319

GFSSE_925_thetae_129.txt.gz
Theta_e
337 340 340 340 340 339 340 340 340 340 339 337 335 335 342 343 343 342 341 340 339 339 340 339 340 341 341 340 339 339 339 339 338 338 340 339 337 340 339 339 338 339 338
333 339 341 340 339 338 338 339 340 340 339 338 336 335 339 343 343 342 341 340 339 338 338 339 340 340 340 340 339 339 339 338 338 337 336 340 340 340 339 338 338 338 337
333 338 340 338 337 336 336 337 338 339 339 338 337 335 336 339 342 342 340 339 338 338 337 338 338 339 338 338 338 338 339 338 337 336 338 340 342 342 337 337 337 336 335
332 336 336 332 332 332 332 334 337 338 339 339 337 336 336 337 338 340 339 337 337 337 338 338 337 338 338 338 337 337 338 338 339 340 339 340 339 341 337 337 336 336 336
332 332 328 327 329 328 329 331 335 337 338 339 337 336 336 335 337 338 337 336 336 336 337 337 336 336 336 337 337 336 337 337 338 338 338 339 338 339 337 336 336 335 334
328 326 324 327 328 326 327 329 333 335 337 339 338 337 336 335 336 336 336 336 336 337 337 335 336 336 336 336 336 336 336 337 337 337 337 337 337 337 336 335 334 334 333
325 324 325 328 325 325 326 328 332 334 337 339 339 337 336 335 335 335 335 335 336 336 337 336 335 336 336 336 335 335 335 336 337 336 337 337 336 336 335 333 333 332 331
323 324 327 328 325 324 325 328 331 333 335 338 339 337 336 336 335 335 334 332 334 335 335 334 335 336 336 337 336 335 335 336 335 335 336 336 335 336 335 333 332 332 330
325 328 330 328 326 325 325 326 329 332 333 337 339 338 336 335 334 334 334 331 331 333 335 333 336 336 336 337 336 336 335 335 334 333 334 334 334 334 334 334 332 331 329
328 332 332 329 328 327 328 326 328 330 334 338 339 338 337 335 335 333 330 330 330 329 334 333 334 335 336 336 336 335 335 333 332 333 333 333 333 333 332 332 333 330 328
333 334 333 330 329 328 329 329 330 331 334 339 339 338 337 335 333 331 329 327 327 329 333 333 333 334 334 335 334 333 333 333 332 332 332 333 332 332 331 331 330 329 328
335 333 331 329 329 331 332 333 333 334 336 339 339 338 337 333 328 329 329 327 328 329 332 332 333 333 334 333 332 333 332 333 332 332 332 332 331 331 330 329 329 329 328
336 334 331 329 328 330 334 336 337 336 336 339 338 338 337 333 328 328 327 327 330 331 332 332 333 334 334 333 332 332 332 332 332 332 332 331 331 329 329 328 328 327 326
339 336 334 330 329 331 333 338 338 337 337 337 337 338 336 330 330 328 327 327 327 326 332 331 332 333 333 333 332 332 332 332 332 332 331 331 329 329 329 327 327 327 325
339 339 337 334 331 332 333 337 341 342 341 339 336 337 336 332 330 333 330 330 329 327 330 330 331 332 332 332 331 331 331 332 332 331 331 330 329 328 328 328 327 326 325
334 340 339 336 332 331 332 333 336 341 341 343 337 337 337 335 330 333 330 331 330 328 331 329 331 330 331 332 330 331 330 330 330 329 329 329 329 328 328 327 328 327 325
324 335 341 340 336 332 331 332 333 335 340 341 340 337 336 336 333 333 329 330 330 327 330 330 331 329 330 331 330 329 329 329 328 324 329 329 328 328 327 326 326 325 324
319 337 340 342 340 337 333 332 333 332 334 337 339 337 337 337 336 334 332 329 333 328 331 330 330 328 329 330 330 329 329 329 328 327 328 328 328 327 326 325 324 323 322
318 330 340 342 342 341 339 337 336 336 334 335 335 336 335 336 336 335 335 332 333 332 331 330 329 326 328 329 329 328 328 328 326 325 328 328 327 326 324 323 321 321 320
317 319 334 341 342 342 342 340 340 339 337 335 335 335 335 336 337 337 335 332 334 333 332 330 327 327 328 328 328 327 327 327 327 327 328 328 326 325 323 322 320 320 320
315 316 325 339 341 342 342 340 339 339 339 337 337 336 336 338 338 337 336 334 334 333 332 330 327 327 327 327 328 326 326 326 326 327 326 327 326 324 322 322 320 319 319
315 315 317 332 340 342 342 341 340 340 339 338 338 339 339 339 338 338 337 336 334 333 332 330 329 328 327 327 326 326 325 323 323 325 325 325 325 324 322 321 320 319 319
312 315 316 326 337 341 342 341 341 340 339 338 338 339 340 340 339 338 338 336 335 333 331 331 329 328 327 327 326 326 325 325 321 321 323 324 324 323 322 321 320 319 319
311 312 314 323 335 340 342 341 340 339 338 339 338 338 338 340 339 339 338 336 333 333 332 332 331 329 327 326 326 326 325 323 321 321 320 322 323 322 322 321 320 320 319
311 313 316 318 334 339 342 340 339 339 339 338 339 338 337 339 340 339 336 336 334 332 331 331 330 328 327 327 326 326 325 322 322 320 322 321 320 320 320 320 320 319 319
312 314 318 320 334 339 341 340 339 339 338 337 337 337 337 336 336 337 335 335 335 334 332 331 331 329 327 327 326 326 325 324 321 320 319 321 321 320 319 319 319 319 319